     2              OBSERVATION DATA    GPS                 RINEX VERSION / TYPE
TRRINEXO V2.8.4 LH                                          PGM / RUN BY / DATE
                                                            COMMENT
BIT 2 OF LLI (+4) FLAGS DATA COLLECTED UNDER "AS" CONDITION COMMENT
Original Marker Name: 0191                                  COMMENT
Campaign Name: coachelle valley 1990                        COMMENT
4-Character Station Name: 0191                              COMMENT
6-Character Antenna Code: TRMSST                            COMMENT
Vertical Measurement Point: TGP                             COMMENT
Vertical Offset to Rinex Ref. Point: 0.0629                 COMMENT
Radial Measurement Point: NGP                               COMMENT
Radial Offset to Rinex Ref. Point: 0.2334                   COMMENT
Antenna Height from Field Measurement: 1.3190 m             COMMENT
Original XYZ: -2343093.3929 -4765260.4394 3521193.4962      COMMENT
New XYZ position is based on association with SCEC monument COMMENT
E1D0T7M8+0011. Position of that monument is believed to be  COMMENT
valid to within 1 m horizontally; vertical accuracy         COMMENT
should be no worse than 3-times this value.                 COMMENT
                                                            COMMENT
Revised Rinex header created by UCSD GPS archive for        COMMENT
GSAC on 19-Apr-1999 (1999:109) 07:37:23 GMT                 COMMENT
For assistance contact dagnew@ucsd.edu or hjohnson@ucsd.edu COMMENT
                                                            COMMENT
WAST 1990                                                   MARKER NAME
UNKNOWN OBSERVER RIVERSIDE COUNTY FCWCD                     OBSERVER / AGENCY
492 TRIMBLE 4000 SST 4.11 / 4.10                            REC # / TYPE / VERS
31 TR 4000SST L1/L2 GEO                                     ANT # / TYPE
 -2343095.0000 -4765265.0000  3521197.0000                  APPROX POSITION XYZ
        1.2353        0.0000        0.0000                  ANTENNA: DELTA H/E/N
     1     2     0                                          WAVELENGTH FACT L1/2
     3    C1    L1    L2                                    # / TYPES OF OBSERV
     0                                                      INTERVAL
  1990    10    17    11     2   30.000000                  TIME OF FIRST OBS
  1990    10    17    18     1   60.000000                  TIME OF LAST OBS
     0                                                      # OF SATELLITES
                                                            END OF HEADER
 90 10 17 11  2 30.0000000  0  5 02 06 11 18 15
  20947155.781          -0.174 7
  22352309.383          -0.27716
  23918114.250          -0.17116
  21971141.172          -0.19617
  24806533.875          -0.76315
 90 10 17 11  2 45.0000000  0  5 02 06 11 18 15
  20946081.430       -5640.535 7
  22345604.602      -35229.353 6
  23924834.391       35310.416 6
  21978394.602       38128.838 7
  24799680.914      -36018.183 5
 90 10 17 11  3  0.0000000  0  5 02 06 11 18 15
  20945020.859      -11217.892 7        -0.12013
  22338903.555      -70444.341 6
  23931574.344       70720.802 6
  21985667.125       76346.388 7
  24792838.016      -71984.928 5
 90 10 17 11  3 15.0000000  0  5 02 06 11 18 15
  20943970.281      -16733.480 7     -4297.989 3
  22332204.750     -105646.417 6        -0.43011
  23938332.063      106229.450 6        -0.47111
  21992956.953      114650.761 7        -0.30912
  24786004.383     -107902.014 5        -0.38111
 90 10 17 11  3 30.0000000  0  5 02 06 11 18 15
  20942934.273      -22191.603 7     -8551.073 3
  22325508.000     -140839.357 6    -27423.490 1
  23945105.156      141831.921 6     27741.727 1
  22000262.594      153037.533 7     29911.461 2
  24779174.453     -143773.118 5    -27951.882 1
 90 10 17 11  3 45.0000000  0  5 02 06 11 18 15
  20941905.594      -27591.711 7    -12758.954 3
  22318811.102     -176022.500 6    -54838.907 1
  23951899.211      177528.419 6     55557.178 1
  22007583.328      191506.907 7     59887.602 2
  24772359.813     -179597.087 5    -55866.647 1
 90 10 17 11  4  0.0000000  0  5 02 06 11 18 15
  20940888.789      -32928.003 7    -16917.103 3
  22312121.766     -211189.860 6    -82242.034 1
  23958711.898      213324.509 6     83450.257 1
  22014919.078      230064.937 7     89932.821 2
  24765556.914     -215367.673 5    -83739.816 1
 90 10 17 11  4 15.0000000  0  5 02 06 11 18 15
  20939885.078      -38206.674 7    -21030.354 3
  22305429.617     -246347.433 6   -109637.531 1
  23965540.797      249213.715 6    111415.885 1
  22022272.469      268704.977 7    120041.924 2
  24758754.391     -251090.483 5   -111575.746 1
 90 10 17 11  4 30.0000000  0  5 02 06 11 18 15
  20938891.969      -43423.451 7    -25095.370 3
  22298743.430     -281490.514 6   -137021.746 2
  23972388.109      285200.135 5    139457.273 1
  22029641.430      307430.941 7    150217.997 2
  24751966.578     -286761.080 5   -139370.999 1
 90 10 17 11  4 45.0000000  0  5 02 06 11 18 15
  20937912.602      -48577.619 7    -29111.601 3
  22292057.930     -316618.470 6   -164394.171 1
  23979254.789      321284.091 5    167574.653 1
  22037027.328      346243.030 7    180461.190 2
  24745188.633     -322378.220 5   -167124.600 1
 90 10 17 11  5  0.0000000  0  5 02 06 11 18 15
  20936941.414      -53673.015 7    -33082.035 3
  22285376.617     -351734.826 6   -191757.556 1
  23986138.094      357461.532 6    195764.850 1
  22044430.523      385137.399 7    210768.482 2
  24738421.633     -357945.367 5   -194839.256 1
 90 10 17 11  5 15.0000000  0  5 02 06 11 18 15
  20935984.000      -58709.378 7    -37006.476 3
  22278695.039     -386838.979 6   -219111.425 1
  23993043.250      393732.512 6    224027.941 1
  22051847.875      424114.347 7    241140.128 2
  24731665.031     -393461.620 5   -222514.210 1
 90 10 17 11  5 30.0000000  0  5 02 06 11 18 15
  20935035.516      -63686.422 7    -40884.688 3
  22272018.734     -421930.314 6   -246455.317 1
  23999962.914      430097.161 6    252364.027 1
  22059278.359      463173.583 7    271575.891 2
  24724915.742     -428925.894 5   -250148.701 1
 90 10 17 11  5 45.0000000  0  5 02 06 11 18 15
  20934098.398      -68604.321 7    -44716.822 3
  22265342.672     -457008.594 6   -273789.027 1
  24006898.516      466555.140 6    280772.845 1
  22066727.477      502315.187 7    302075.846 2
  24718174.258     -464338.150 5   -277742.640 1
 90 10 17 11  6  0.0000000  0  5 02 06 11 18 15
  20933176.422      -73462.786 7    -48502.645 3
  22258670.055     -492073.600 6   -301112.410 1
  24013852.719      503106.288 5    309254.262 1
  22074192.273      541538.798 7    332639.694 2
  24711444.664     -499697.864 5   -305295.678 1
 90 10 17 11  6 15.0000000  0  5 02 06 11 18 15
  20932262.563      -78263.481 7    -52243.441 3
  22252001.594     -527126.530 6   -328426.387 1
  24020825.172      539748.702 5    337806.802 1
  22081671.430      580842.527 7    363265.968 2
  24704724.109     -535006.306 5   -332808.722 1
 90 10 17 11  6 30.0000000  0  5 02 06 11 18 15
  20931361.227      -83002.293 7    -55936.024 3
  22245333.555     -562163.060 6   -355727.575 1
  24027814.977      576486.463 5    366433.612 1
  22089167.016      620230.635 7    393957.999 2
  24698018.109     -570258.304 5   -360277.788 1
 90 10 17 11  6 45.0000000  0  5 02 06 11 18 15
  20930471.195      -87679.520 7    -59580.626 3
  22238669.547     -597183.187 6   -383015.955 1
  24034827.359      613318.913 5    395134.231 1
  22096678.242      659702.574 7    424715.350 2
  24691322.758     -605453.820 5   -387702.848 1
 90 10 17 11  7  0.0000000  0  5 02 06 11 18 15
  20929592.180      -92296.903 7    -63178.591 3
  22232008.141     -632188.651 6   -410292.957 1
  24041853.109      650243.941 6    423906.973 1
  22104203.906      699256.046 7    455536.229 2
  24684636.031     -640594.293 5   -415085.027 1
 90 10 17 11  7 15.0000000  0  5 02 06 11 18 15
  20928723.875      -96856.945 7    -66731.877 3
  22225348.703     -667181.544 6
  24048898.352      687258.782 6    452749.709 1
  22111746.719      738888.430 7    486418.590 2
  24677962.258     -675682.062 5
 90 10 17 11  7 30.0000000  0  5 02 06 11 18 15
  20927867.906     -101359.756 7    -70240.567 3
  22218692.219     -702161.678 6
  24055957.375      724363.178 6    481662.230 1
  22119302.969      778599.212 7    517362.059 2
  24671289.727     -710716.197 5
 90 10 17 11  7 45.0000000  0  5 02 06 11 18 15
  20927022.805     -105803.052 7    -73702.868 3
  22212038.750     -737126.774 6
  24063035.805      761558.949 6    510645.947 1
  22126874.938      818390.365 7    548368.148 2
  24664635.789     -745694.614 5
 90 10 17 11  8  0.0000000  0  5 02 06 11 18 15
  20926187.539     -110186.310 7    -77118.377 3
  22205388.164     -772075.820 6
  24070130.516      798846.585 5    539701.226 1
  22134462.141      858262.314 7    579437.184 2
  24657992.102     -780615.837 5
 90 10 17 11  8 15.0000000  0  5 02 06 11 18 15
  20925363.359     -114512.125 7    -80489.138 3
  22198740.398     -807010.990 6
  24077243.164      836223.329 5    568825.939 1
  22142064.336      898212.711 7    610567.353 2
  24651359.180     -815481.863 5
 90 10 17 11  8 30.0000000  0  5 02 06 11 18 15
  20924553.039     -118775.923 7    -83811.578 3
  22192095.719     -841927.523 6   -573725.809 1
  24084374.156      873693.342 6    598023.381 1
  22149682.586      938245.548 7    641761.768 2
  24644731.938     -850287.813 5
 90 10 17 11  8 45.0000000  0  5 02 06 11 18 15
  20923751.641     -122985.749 7    -87091.963 3
  22185453.750     -876833.352 6   -600925.152 1
  24091521.453      911248.389 6    627287.067 1
  22157313.148      978352.671 7    673014.062 2
  24638120.039     -885041.301 5   -496402.568 1
 90 10 17 11  9  0.0000000  0  5 02 06 11 18 15
  20922962.383     -127137.941 7    -90327.428 3
  22178813.750     -911724.637 6   -628113.161 1
  24098683.594      948891.727 6    656619.568 1
  22164961.750     1018537.084 7    704326.585 2
  24631516.305     -919738.364 4   -523439.186 1
 90 10 17 11  9 15.0000000  0  6 02 06 11 18 15 13
  20922182.859     -131229.155 7    -93515.383 3
  22172177.773     -946597.758 6   -655287.019 1
  24105864.211      986626.534 6    686023.312 1
  22172623.328     1058802.220 7    735701.999 2
  24624919.922     -954374.982 4   -550428.747 1
  24782512.469          -0.31113
 90 10 17 11  9 30.0000000  0  6 02 06 11 18 15 13
  20921415.258     -135264.932 7    -96660.147 3
  22165543.969     -981457.978 6   -682450.823 2
  24113063.570     1024447.023 5    715493.812 1
  22180300.711     1099142.331 7    767135.830 2
  24618340.430     -988956.534 4   -577375.381 1
  24770173.430      -64829.742 3
 90 10 17 11  9 45.0000000  0  6 02 06 11 18 15 13
  20920659.437     -139240.555 7    -99758.027 3
  22158911.227    -1016300.176 6   -709600.566 2
  24120275.313     1062357.783 5    745034.618 1
  22187992.094     1139561.852 7    798631.554 2
  24611776.180    -1023477.319 5   -604274.691 1
  24757840.000     -129648.886 3
 90 10 17 11 10  0.0000000  0  6 02 06 11 18 15 13
  20919912.141     -143159.127 7   -102811.452 3
  22152287.391    -1051127.313 6   -736738.578 2
  24127508.070     1100355.365 5    774643.082 1
  22195697.992     1180057.507 7    830186.578 2
  24605218.484    -1057940.363 5   -631129.003 1
  24745499.594     -194460.655 3
 90 10 17 11 10 15.0000000  0  6 02 06 11 18 15 13
  20919179.188     -147019.110 7   -105819.232 3
  22145663.000    -1085937.503 6   -763863.383 2
  24134754.703     1138440.940 6    804320.146 1
  22203418.031     1220630.486 7    861801.873 2
  24598672.594    -1092343.583 5   -657936.734 1
  24733167.281     -259262.855 4
 90 10 17 11 10 30.0000000  0  6 02 06 11 18 15 13
  20918455.414     -150823.779 7   -108783.911 3
  22139040.547    -1120733.848 6   -790977.412 2
  24142016.422     1176611.100 6    834063.154 1
  22211154.547     1261277.289 7    893474.707 2
  24592138.000    -1126689.619 5   -684699.865 1
  24720835.922     -324058.331 4        -0.43811
 90 10 17 11 10 45.0000000  0  6 02 06 11 18 15 13
  20917740.953     -154570.975 7   -111703.799 3
  22132421.688    -1155513.686 6   -818078.565 2
  24149298.406     1214867.717 6    863873.527 1
  22218903.992     1301999.807 7    925206.537 1
  24585609.234    -1160975.731 5   -711416.293 1
  24708512.570     -388844.528 4    -50483.164 1
 90 10 17 11 11  0.0000000  0  6 02 06 11 18 15 13
  20917038.016     -158265.292 7   -114582.476 3
  22125805.992    -1190281.686 6   -845170.483 2
  24156594.953     1253206.054 6    893747.582 1
  22226665.695     1342793.129 7    956993.536 2
  24579099.164    -1195206.522 5   -738089.606 1
  24696186.734     -453625.438 5   -100961.749 1
 90 10 17 11 11 15.0000000  0  6 02 06 11 18 15 13
  20916347.195     -161900.281 7   -117414.938 3
  22119193.117    -1225031.087 6   -872247.919 2
  24163905.055     1291632.123 5    923689.957 1
  22234443.023     1383663.477 7    988840.562 2
  24572595.461    -1229375.121 5   -764714.456 1
  24683859.445     -518394.396 5   -151431.059 1
 90 10 17 11 11 30.0000000  0  6 02 06 11 18 15 13
  20915665.320     -165478.895 7   -120203.467 3
  22112584.141    -1259764.445 6   -899312.859 2
  24171232.641     1330142.700 5    953698.169 1
  22242234.281     1424607.849 7   1020745.267 2
  24566107.133    -1263483.446 5   -791292.348 1
  24671538.414     -583153.634 5   -201892.772 1
 90 10 17 11 11 45.0000000  0  6 02 06 11 18 15 13
  20914993.242     -169004.465 7   -122950.669 3
  22105977.789    -1294484.787 6   -926367.662 2
  24178575.445     1368734.316 5    983769.510 1
  22250039.922     1465622.835 7   1052704.977 2
  24559623.219    -1297534.796 5   -817825.864 1
  24659216.102     -647906.023 5   -252349.151 1
 90 10 17 11 12  0.0000000  0  6 02 06 11 18 15 13
  20914334.750     -172471.955 7   -125652.607 3
  22099372.320    -1329187.025 6   -953408.362 1
  24185939.984     1407411.547 6   1013907.593 1
  22257857.000     1506712.751 7   1084723.087 1
  24553155.313    -1331523.534 5   -844310.587 1
  24646896.859     -712646.208 5   -302796.013 1
 90 10 17 11 12 15.0000000  0  6 02 06 11 18 15 13
  20913681.320     -175908.785 7   -128330.663 3
  22092768.242    -1363898.286 6   -980456.096 1
  24193309.039     1446146.657 6   1044090.799 1
  22265686.984     1547850.098 7   1116778.173 2
  24546687.305    -1365476.576 4   -870767.458 1
  24634572.289     -777400.986 5   -353254.274 1
 90 10 17 11 12 30.0000000  0  6 02 06 11 18 15 13
  20913035.813     -179298.339 7   -130971.877 3
  22086164.250    -1398601.698 6  -1007497.706 1
  24200695.734     1484956.088 6   1074331.938 1
  22273527.102     1589051.280 7   1148883.001 2
  24540245.875    -1399376.988 5   -897183.367 1
  24622250.781     -842153.604 5   -403710.846 1
 90 10 17 11 12 45.0000000  0  6 02 06 11 18 15 13
  20912402.125     -182634.097 7   -133571.167 3
  22079563.023    -1433290.445 6  -1034527.888 1
  24208092.906     1523846.124 5   1104635.875 1
  22281380.070     1630322.519 7   1181042.401 1
  24533803.289    -1433217.795 5   -923552.787 1
  24609932.391     -906896.931 5   -454160.144 1
 90 10 17 11 13  0.0000000  0  6 02 06 11 18 15 13
  20911777.250     -185913.830 7   -136126.795 3
  22072966.055    -1467961.852 6  -1061544.558 1
  24215511.430     1562818.982 5   1135004.343 1
  22289247.086     1671665.943 7   1213258.046 1
  24527375.125    -1466996.170 5   -949873.593 1
  24597613.008     -971628.032 5   -504599.946 1
 90 10 17 11 13 15.0000000  0  6 02 06 11 18 15 13
  20911164.766     -189134.293 7   -138636.243 3
  22066370.984    -1502612.474 6  -1088545.046 2
  24222941.813     1601877.553 5   1165439.569 1
  22297127.664     1713084.541 7   1245532.279 1
  24520963.633    -1500708.334 5   -976142.813 1
  24585296.547    -1036343.332 5   -555027.430 1
 90 10 17 11 13 30.0000000  0  6 02 06 11 18 15 13
  20910560.250     -192310.492 7   -141111.199 3
  22059780.906    -1537257.204 7  -1115540.936 2
  24230388.922     1641006.344 5   1195929.517 1
  22305022.555     1754562.820 7   1277853.010 1
  24514554.203    -1534368.921 5  -1002371.839 1
  24572980.984    -1101057.603 5   -605454.126 1
 90 10 17 11 13 45.0000000  0  6 02 06 11 18 15 13
  20909965.422     -195430.981 7   -143542.741 3
  22053189.672    -1571884.225 6  -1142523.014 2
  24237850.016     1680216.718 6   1226483.052 1
  22312927.156     1796112.245 6   1310229.186 1
  24508161.328    -1567966.227 4  -1028551.517 1
  24560669.320    -1165758.656 5   -655870.486 1
 90 10 17 11 14  0.0000000  0  6 02 06 11 18 15 13
  20909382.766     -198496.540 7   -145931.488 3
  22046602.773    -1606493.977 6  -1169491.646 2
  24245327.984     1719507.653 6   1257099.376 1
  22320848.430     1837731.763 7   1342659.973 1
  24501783.156    -1601500.402 5  -1054682.005 1
  24548364.297    -1230446.777 5
 90 10 17 11 14 15.0000000  0  6 02 06 11 18 15 13
  20908809.453     -201507.456 7   -148277.663 3
  22040021.523    -1641086.663 6  -1196446.976 2
  24252821.023     1758878.425 6   1287777.899 1
  22328782.625     1879420.594 7   1375144.766 1
  24495408.344    -1634971.464 5  -1080763.331 1
  24536053.602    -1295122.141 5
 90 10 17 11 14 30.0000000  0  6 02 06 11 18 15 13
  20908248.133     -204462.788 7   -150580.522 3
  22033441.352    -1675660.833 6  -1223387.882 2
  24260329.352     1798329.813 5   1318519.244 1
  22336728.961     1921179.811 7   1407684.403 1
  24489054.031    -1668377.681 5  -1106794.129 1
  24523746.305    -1359783.051 4
 90 10 17 11 14 45.0000000  0  6 02 06 11 18 15 13
  20907694.891     -207363.917 7   -152841.149 3
  22026863.961    -1710217.727 6  -1250315.312 2
  24267847.914     1837860.079 5   1349322.027 1
  22344687.875     1963007.411 7   1440277.324 1
  24482711.734    -1701720.163 5  -1132775.268 1
  24511447.664    -1424430.702 4
 90 10 17 11 15  0.0000000  0  6 02 06 11 18 15 13
  20907153.852     -210211.499 7   -155060.057 3
  22020291.766    -1744757.749 6  -1277229.620 2
  24275386.953     1877468.474 5   1380185.703 1
  22352660.148     2004902.909 6   1472923.153 1
  24476378.281    -1734999.028 5  -1158706.837 1
  24499146.266    -1489064.865 4
 90 10 17 11 15 15.0000000  0  6 02 06 11 18 15 13
  20906622.156     -213002.299 7   -157234.709 3
  22013724.094    -1779277.300 6  -1304127.968 2
  24282938.945     1917157.901 6   1411112.519 1
  22360646.305     2046869.171 6   1505624.140 1
  24470052.594    -1768210.419 5  -1184585.818 1
  24486851.055    -1553681.754 4
 90 10 17 11 15 30.0000000  0  6 02 06 11 18 15 13
  20906100.828     -215738.891 7   -159367.124 3
  22007159.672    -1813778.694 6  -1331012.167 2
  24290507.875     1956925.602 6   1442100.361 1
  22368644.742     2088903.290 6   1538378.022 1
  24463746.102    -1801356.576 5  -1210413.983 1
  24474555.602    -1618283.978 4        -0.48611
 90 10 17 11 15 45.0000000  0  6 02 06 11 18 15 13
  20905591.266     -218421.510 7   -161457.475 3
  22000597.273    -1848262.136 6  -1357882.364 2
  24298089.195     1996770.831 6   1473148.599 1
  22376659.695     2131004.596 7   1571184.232 1
  24457451.398    -1834437.677 5  -1236191.434 1
  24462260.430    -1682871.193 4    -50328.173 1
 90 10 17 11 16  0.0000000  0  6 02 06 11 18 15 13
  20905089.211     -221050.763 7   -163506.238 3
  21994038.344    -1882727.566 6  -1384738.537 2
  24305687.938     2036693.016 6   1504256.786 1
  22384681.797     2173172.462 7   1604042.303 1
  24451170.633    -1867453.204 5  -1261917.800 1
  24449976.227    -1747443.092 3   -100643.900 1
 90 10 17 11 16 15.0000000  0  6 02 06 11 18 15 13
  20904599.555     -223626.211 7   -165513.087 3
  21987483.430    -1917174.410 6  -1411580.228 2
  24313295.750     2076692.268 5   1535425.016 1
  22392719.078     2215407.129 7   1636952.429 1
  24444902.453    -1900402.582 5  -1287592.632 1
  24437691.969    -1811998.974 3   -150947.202 1
 90 10 17 11 16 30.0000000  0  6 02 06 11 18 15 13
  20904122.031     -226147.830 7   -167477.994 3
  21980931.805    -1951602.391 6  -1438407.237 2
  24320924.000     2116768.327 5   1566653.093 1
  22400767.758     2257708.493 7   1669914.526 1
  24438644.750    -1933285.601 5  -1313215.739 1
  24425410.242    -1876538.303 4   -201237.528 1
 90 10 17 11 16 45.0000000  0  6 02 06 11 18 15 13
  20903651.383     -228612.658 7   -169398.644 3
  21974383.438    -1986008.446 6  -1465217.166 2
  24328563.273     2156923.679 5   1597942.961 1
  22408830.594     2300078.892 6   1702930.415 1
  24432399.891    -1966098.685 5  -1338784.345 1
  24413133.703    -1941057.867 4   -251512.453 1
 90 10 17 11 17  0.0000000  0  6 02 06 11 18 15 13
  20903193.523     -231023.282 7   -171277.053 3
  21967840.242    -2020394.751 6  -1492011.700 2
  24336220.719     2197155.564 5   1629292.472 1
  22416905.383     2342515.393 6   1735997.821 1
  24426168.305    -1998843.749 6  -1364299.966 1
  24400861.711    -2005559.900 4   -301773.747 1
 90 10 17 11 17 15.0000000  0  6 02 06 11 18 15 13
  20902743.883     -233381.901 7   -173114.927 3
  21961300.203    -2054763.283 6  -1518792.384 2
  24343889.445     2237461.558 6   1660699.758 1
  22424995.086     2385015.873 7   1769115.093 1
  24419947.719    -2031522.640 5  -1389764.019 1
  24388590.914    -2070046.109 5   -352022.741 1
 90 10 17 11 17 30.0000000  0  6 02 06 11 18 15 13
  20902305.789     -235683.733 7   -174908.560 3
  21954765.492    -2089109.040 6  -1545555.322 2
  24351573.969     2277846.067 6   1692168.205 1
  22433095.031     2427584.694 7   1802285.614 1
  24413747.047    -2064130.175 5  -1415172.450 1
  24376323.031    -2134511.248 5   -402255.327 1
 90 10 17 11 17 45.0000000  0  6 02 06 11 18 15 13
  20901879.344     -237931.239 7   -176659.863 3
  21948232.359    -2123434.091 6  -1572302.106 2
  24359275.242     2318306.354 5   1723695.715 1
  22441207.953     2470219.083 6   1835507.214 1
  24407555.344    -2096668.475 5  -1440526.970 1
  24364058.102    -2198957.180 5   -452472.909 1
 90 10 17 11 18  0.0000000  0  6 02 06 11 18 15 13
  20901461.352     -240123.599 7   -178368.180 3
  21941703.016    -2157737.305 7  -1599031.866 2
  24366987.703     2358843.122 5   1755282.794 1
  22449332.141     2512919.800 6   1868780.516 1
  24401373.078    -2129136.155 5  -1465826.452 1
  24351801.758    -2263382.256 5   -502674.241 1
 90 10 17 11 18 15.0000000  0  6 02 06 11 18 15 13
  20901054.203     -242262.412 7   -180034.790 3
  21935181.422    -2192019.881 7  -1625745.566 2
  24374717.461     2399454.514 5   1786928.008 1
  22457470.695     2555685.299 6   1902104.290 1
  24395213.305    -2161534.172 5  -1491071.629 1
  24339543.773    -2327787.669 5   -552860.260 1
 90 10 17 11 18 30.0000000  0  6 02 06 11 18 15 13
  20900657.586     -244348.104 7   -181660.005 3
  21928661.016    -2226282.217 6  -1652443.488 2
  24382458.570     2440139.758 5   1818630.781 1
  22465620.617     2598514.278 6   1935477.523 1
  24389055.375    -2193862.581 5  -1516262.568 1
  24327290.727    -2392173.902 5   -603031.334 1
 90 10 17 11 18 45.0000000  0  6 02 06 11 18 15 13
  20900270.563     -246381.888 7   -183244.764 3
  21922145.289    -2260525.086 6  -1679126.237 2
  24390215.563     2480897.405 5   1850389.962 1
  22473782.711     2641405.461 6   1968899.218 1
  24382917.766    -2226122.048 5  -1541399.789 1
  24315045.031    -2456541.594 5   -653187.907 1
 90 10 17 11 19  0.0000000  0  6 02 06 11 18 15 13
  20899893.375     -248362.149 7   -184787.832 3
  21915633.250    -2294746.804 6  -1705792.511 2
  24397987.313     2521728.632 5   1882206.493 1
  22481956.703     2684360.308 6   2002370.508 1
  24376795.281    -2258310.770 5  -1566481.886 1
  24302798.789    -2520888.593 5   -703328.436 1
 90 10 17 11 19 15.0000000  0  6 02 06 11 18 15 13
  20899527.672     -250287.189 7   -186287.851 3
  21909126.281    -2328945.281 6  -1732440.667 2
  24405769.125     2562634.825 5   1914081.454 1
  22490145.281     2727380.107 6   2035892.426 1
  24370679.258    -2290426.611 5  -1591507.193 1
  24290558.500    -2585212.606 5   -753451.035 1
 90 10 17 11 19 30.0000000  0  6 02 06 11 18 15 13
  20899170.680     -252159.740 7   -187746.960 3
  21902622.406    -2363122.725 6  -1759072.440 2
  24413568.750     2603613.332 5   1946012.783 1
  22498342.203     2770462.096 6   2069462.814 1
  24364584.547    -2322471.984 5  -1616477.596 1
  24278321.625    -2649515.790 5   -803557.349 1
 90 10 17 11 19 45.0000000  0  6 02 06 11 18 15 13
  20898825.211     -253978.839 7   -189164.422 3
  21896122.813    -2397278.136 6  -1785687.040 2
  24421379.664     2644664.783 5   1978000.931 1
  22506551.508     2813606.872 6   2103082.107 1
  24358497.734    -2354444.945 5  -1641391.555 1
  24266087.133    -2713796.948 5   -853646.560 1
 90 10 17 11 20  0.0000000  0  6 02 06 11 18 15 13
  20898490.109     -255743.334 7   -190539.348 3
  21889624.539    -2431410.047 6  -1812283.320 2
  24429202.484     2685789.900 5   2010046.464 1
  22514773.156     2856815.525 6   2136751.186 1
  24352431.859    -2386344.174 6  -1666248.082 1
  24253860.617    -2778054.395 5   -903717.264 1
 90 10 17 11 20 15.0000000  0  6 02 06 11 18 15 13
  20898161.680     -257458.923 7   -191876.175 3
  21883135.758    -2465523.777 7  -1838865.448 2
  24437043.398     2726982.837 5   2042144.810 1
  22523009.164     2900082.027 6   2170465.346 1
  24346374.125    -2418175.194 5  -1691051.457 1
  24241635.789    -2842293.177 5   -953773.463 1
 90 10 17 11 20 30.0000000  0  6 02 06 11 18 15 13
  20897846.727     -259122.346 7   -193172.348 3
  21876645.609    -2499616.003 6  -1865430.811 2
  24444895.258     2768246.468 5   2074298.275 1
  22531252.984     2943409.039 6   2204226.650 1
  24340329.359    -2449934.063 6  -1715798.595 1
  24229415.633    -2906510.024 5  -1003812.533 1
 90 10 17 11 20 45.0000000  0  6 02 06 11 18 15 13
  20897539.680     -260734.159 7   -194428.290 3
  21870164.422    -2533686.822 7  -1891979.487 2
  24452762.078     2809579.908 5   2106506.149 1
  22539508.586     2986795.889 6   2238034.576 1
  24334297.852    -2481620.838 5  -1740489.583 1
  24217200.031    -2970704.788 5  -1053834.413 1
 90 10 17 11 21  0.0000000  0  6 02 06 11 18 15 13
  20897241.656     -262294.368 7   -195644.042 3
  21863683.992    -2567735.928 6  -1918511.258 2
  24460640.563     2850983.048 5   2138768.325 1
  22547778.102     3030242.563 6   2271889.128 1
  24328283.492    -2513235.011 5  -1765123.988 1
  24204988.914    -3034876.861 5  -1103838.565 1
 90 10 17 11 21 15.0000000  0  6 02 06 11 18 15 13
  20896956.164     -263802.472 7   -196819.201 3
  21857211.250    -2601762.579 7  -1945025.539 2
  24468531.734     2892455.975 5   2171084.901 1
  22556053.992     3073749.244 6   2305790.427 1
  24322279.680    -2544775.659 6  -1789701.079 1
  24192781.461    -3099025.255 5  -1153824.315 1
 90 10 17 11 21 30.0000000  0  6 02 06 11 18 15 13
  20896677.789     -265258.888 7   -197954.082 3
  21850738.781    -2635766.763 7  -1971522.313 2
  24476435.555     2933998.123 5   2203455.410 1
  22564347.820     3117315.312 6   2339738.014 1
  24316288.773    -2576242.634 6  -1814220.784 1
  24180577.063    -3163150.008 5  -1203791.605 1
 90 10 17 11 21 45.0000000  0  6 02 06 11 18 15 13
  20896411.797     -266663.158 7   -199048.338 3
  21844273.945    -2669747.986 7  -1998001.183 2
  24484356.961     2975609.486 5   2235879.840 1
  22572647.953     3160940.527 6   2373731.694 1
  24310320.492    -2607635.550 6  -1838682.792 1
  24168380.508    -3227250.440 5  -1253739.995 1
 90 10 17 11 22  0.0000000  0  6 02 06 11 18 15 13
  20896154.508     -268012.274 7   -200099.616 3
  21837812.773    -2703702.934 7  -2024459.580 2
  24492290.789     3017292.854 5   2268360.378 1
  22580960.555     3204627.966 6   2407773.829 1
  24304360.633    -2638950.500 6  -1863084.029 1
  24156187.781    -3291322.909 5  -1303666.568 1
 90 10 17 11 22 15.0000000  0  6 02 06 11 18 15 13
  20895907.078     -269311.833 7   -201112.270 3
  21831354.258    -2737636.747 7  -2050901.508 2
  24500232.359     3059042.471 5   2300892.537 1
  22589286.688     3248371.954 6   2441860.037 1
  24298415.039    -2670192.663 6  -1887428.569 1
  24144000.727    -3355372.478 5  -1353575.279 1
 90 10 17 11 22 30.0000000  0  6 02 06 11 18 15 13
  20895670.500     -270558.564 7   -202083.754 3
  21824901.586    -2771546.020 7  -2077324.314 2
  24508190.758     3100861.336 5   2333478.650 1
  22597621.172     3292175.220 6   2475992.450 1
  24292482.977    -2701358.654 6  -1911713.728 1
  24131820.766    -3419395.425 5  -1403463.294 1
 90 10 17 11 22 45.0000000  0  6 02 06 11 18 15 13
  20895442.625     -271756.057 7   -203016.870 3
  21818452.063    -2805433.958 7  -2103730.492 2
  24516162.672     3142745.635 5   2366115.754 1
  22605967.359     3336033.876 6   2510168.023 1
  24286567.688    -2732451.713 6  -1935942.049 1
  24119639.250    -3483394.770 5  -1453332.868 1
 90 10 17 11 23  0.0000000  0  6 02 06 11 18 15 13
  20895222.695     -272902.105 7   -203909.909 3
  21812009.156    -2839297.986 7  -2130118.032 2
  24524144.672     3184697.300 5   2398805.345 1
  22614323.227     3379950.211 6   2544388.531 1
  24280663.750    -2763468.816 6  -1960111.191 1
  24107461.625    -3547367.920 5  -1503182.035 1
 90 10 17 11 23 15.0000000  0  6 02 06 11 18 15 13
  20895016.281     -273994.543 7   -204761.170 3
  21805569.836    -2873135.903 7  -2156485.226 2
  24532139.672     3226717.938 5   2431548.715 1
  22622692.516     3423925.809 6   2578655.233 1
  24274779.961    -2794407.411 6  -1984219.160 1
  24095294.148    -3611312.589 5  -1553009.038 1
 90 10 17 11 23 30.0000000  0  6 02 06 11 18 15 13
  20894818.000     -275040.377 7   -205576.107 3
  21799133.570    -2906954.256 7  -2182837.183 2
  24540149.383     3268800.644 5   2464340.405 1
  22631069.469     3467953.520 6   2612962.541 1
  24268903.070    -2825273.855 6  -2008270.912 1
  24083131.445    -3675234.833 5  -1602818.543 1
 90 10 17 11 23 45.0000000  0  6 02 06 11 18 15 13
  20894627.508     -276030.375 7   -206347.544 3
  21792704.414    -2940743.549 7  -2209166.498 2
  24548171.656     3310954.194 5   2497187.329 1
  22639460.594     3512042.144 6   2647317.309 1
  24263047.414    -2856058.818 5  -2032259.161 1
  24070973.648    -3739125.201 5  -1652603.251 1
 90 10 17 11 24  0.0000000  0  6 02 06 11 18 15 13
  20894450.156     -276968.315 7   -207078.401 3
  21786279.492    -2974507.210 7  -2235475.835 2
  24556203.563     3353174.531 5   2530086.282 1
  22647860.945     3556187.727 6   2681716.444 1
  24257201.039    -2886765.424 5  -2056186.385 1
  24058822.234    -3802986.946 5  -1702365.580 1
 90 10 17 11 24 15.0000000  0  6 02 06 11 18 15 13
  20894283.461     -277852.018 7   -207766.998 3
  21779859.766    -3008242.890 7  -2261763.363 2
  24564253.109     3395463.578 5   2563038.783 1
  22656272.563     3600392.353 6   2716161.572 1
  24251371.305    -2917391.038 6  -2080050.482 1
  24046677.813    -3866817.299 5  -1752103.499 1
 90 10 17 11 24 30.0000000  0  6 02 06 11 18 15 13
  20894123.398     -278684.376 7   -208415.589 3
  21773444.984    -3041953.087 7  -2288031.033 2
  24572312.922     3437818.127 5   2596042.341 1
  22664694.719     3644652.733 6   2750650.171 1
  24245560.383    -2947938.538 6  -2103853.716 1
  24034536.555    -3930618.985 5  -1801819.085 1
 90 10 17 11 24 45.0000000  0  6 02 06 11 18 15 13
  20893975.727     -279464.363 7   -209023.362 3
  21767035.844    -3075636.566 7  -2314277.895 2
  24580383.680     3480238.925 5   2629097.504 1
  22673126.773     3688969.744 6   2785182.903 1
  24239761.320    -2978406.249 6  -2127594.771 1
  24022401.719    -3994390.447 5  -1851511.107 1
 90 10 17 11 25  0.0000000  0  6 02 06 11 18 15 13
  20893838.289     -280190.885 7   -209589.477 3
  21760629.391    -3109292.010 7  -2340502.902 2
  24588467.984     3522726.608 5   2662204.785 1
  22681571.719     3733343.918 6   2819760.179 1
  24233980.563    -3008792.744 6  -2151272.532 1
  24010271.070    -4058130.126 5  -1901178.357 1
 90 10 17 11 25 15.0000000  0  6 02 06 11 18 15 13
  20893707.594     -280865.237 7   -210114.937 3
  21754229.953    -3142920.460 7  -2366706.875 2
  24596562.695     3565279.802 5   2695363.102 1
  22690027.500     3777773.906 6   2854380.945 1
  24228217.016    -3039098.698 6  -2174887.530 1
  23998145.430    -4121838.696 5  -1950821.411 1
 90 10 17 11 25 30.0000000  0  6 02 06 11 18 15 13
  20893590.563     -281485.869 7   -210598.538 3
  21747837.742    -3176519.771 7  -2392888.144 2
  24604678.039     3607899.862 5   2728573.508 1
  22698493.672     3822260.886 6   2889046.124 1
  24222463.266    -3069322.106 5  -2198438.199 1
  23986029.172    -4185514.129 5  -2000438.567 1
 90 10 17 11 25 45.0000000  0  6 02 06 11 18 15 13
  20893482.477     -282053.508 7   -211040.831 3
  21741448.500    -3210090.467 6  -2419047.104 2
  24612801.422     3650585.761 5   2761835.260 1
  22706967.813     3866803.958 6   2923754.993 1
  24216730.430    -3099463.089 6  -2221924.667 1
  23973917.750    -4249156.909 5  -2050030.316 1
 90 10 17 11 26  0.0000000  0  6 02 06 11 18 15 13
  20893384.742     -282565.732 7   -211439.968 3
  21735067.211    -3243630.023 6  -2445181.807 2
  24620936.313     3693339.490 5   2795149.841 1
  22715455.469     3911405.366 6   2958509.322 1
  24211004.570    -3129519.223 6  -2245345.037 1
  23961811.070    -4312764.063 5  -2099594.329 1
 90 10 17 11 26 15.0000000  0  6 02 06 11 18 15 13
  20893298.828     -283021.624 7   -211795.217 3
  21728691.164    -3277136.947 7  -2471291.097 2
  24629083.781     3736161.942 5   2828517.991 1
  22723955.563     3956065.895 6   2993309.724 1
  24205310.305    -3159488.779 6  -2268697.948 1
  23949715.164    -4376333.989 5  -2149129.301 1
 90 10 17 11 26 30.0000000  0  6 02 06 11 18 15 13
  20893222.711     -283422.086 7   -212107.283 3
  21722321.633    -3310611.954 7  -2497375.513 2
  24637246.523     3779051.787 5   2861938.657 1
  22732464.492     4000784.109 6   3028155.071 1
  24199616.445    -3189372.545 5  -2291983.970 1
  23937628.297    -4439867.374 5  -2198635.834 1
 90 10 17 11 26 45.0000000  0  6 02 06 11 18 15 13
  20893155.234     -283767.805 7   -212376.676 3
  21715955.750    -3344055.685 7  -2523435.564 2
  24645420.945     3822007.852 5   2895410.905 1
  22740983.328     4045559.165 6   3063044.712 1
  24193945.266    -3219170.663 5  -2315203.264 1
  23925545.617    -4503364.670 5  -2248114.211 1
 90 10 17 11 27  0.0000000  0  6 02 06 11 18 15 13
  20893102.000     -284056.228 7   -212601.437 3
  21709599.633    -3377465.010 7  -2549468.803 2
  24653606.992     3865032.723 5   2928936.781 1
  22749517.188     4090393.185 6   3097980.302 1
  24188296.500    -3248879.997 5  -2338353.380 1
  23913470.797    -4566822.449 5  -2297561.826 1
 90 10 17 11 27 15.0000000  0  6 02 06 11 18 15 13
  20893056.891     -284290.164 7   -212783.742 3
  21703246.727    -3410842.581 7  -2575477.300 2
  24661807.109     3908123.063 5   2962513.658 1
  22758058.906     4135283.197 6   3132959.517 1
  24182658.969    -3278503.112 6  -2361436.303 1
  23901402.148    -4630243.104 5  -2346980.486 1
 90 10 17 11 27 30.0000000  0  6 02 06 11 18 15 13
  20893021.500     -284468.428 7
  21696902.250    -3444186.814 7  -2601459.820 2
  24670019.156     3951279.947 5   2996142.369 1
  22766611.750     4180230.007 6   3167983.002 1
  24177037.445    -3308038.207 5  -2384450.665 1
  23889340.992    -4693625.023 5  -2396368.965 1
 90 10 17 11 27 45.0000000  0  6 02 06 11 18 15 13
  20893001.195     -284588.500 7
  21690564.125    -3477494.843 7  -2627414.123 2
  24678245.406     3994505.690 5   3029824.737 1
  22775177.891     4225236.032 6   3203052.637 1
  24171434.266    -3337482.440 5  -2407394.207 1
  23877287.109    -4756965.284 5  -2445724.979 1
 90 10 17 11 28  0.0000000  0  6 02 06 11 18 15 13
  20892988.297     -284650.973 7
  21684231.578    -3510767.075 6  -2653340.541 2
  24686486.344     4037799.265 5   3063559.985 1
  22783753.219     4270300.383 6   3238167.733 1
  24165849.648    -3366836.320 5  -2430267.336 1
  23865240.047    -4820264.121 5  -2495048.746 1
 90 10 17 11 28 15.0000000  0  6 02 06 11 18 15 13
  20892987.500     -284657.617 7
  21677908.000    -3544005.033 7  -2679240.244 2
  24694732.813     4081158.621 5   3097346.502 1
  22792338.469     4315421.333 6   3273326.910 1
  24160281.188    -3396100.867 5  -2453070.857 1
  23853203.828    -4883522.682 5  -2544341.136 1
 90 10 17 11 28 30.0000000  0  6 02 06 11 18 15 13
  20892998.867     -284603.214 7
  21671588.609    -3577203.023 7  -2705108.795 2
  24702998.711     4124588.828 5   3131188.223 1
  22800937.469     4360603.457 6   3308533.744 1
  24154729.453    -3425270.181 5  -2475800.167 1
  23841177.547    -4946735.189 5  -2593597.593 1
 90 10 17 11 28 45.0000000  0  6 02 06 11 18 15 13
  20893017.570     -284492.936 7
  21665278.992    -3610366.104 7  -2730950.145 2
  24711274.141     4168084.288 5   3165080.789 1
  22809545.945     4405841.137 6   3343783.878 1
  24149196.039    -3454349.519 5  -2498459.371 1
  23829152.133    -5009906.508 5  -2642821.984 1
 90 10 17 11 29  0.0000000  0  6 02 06 11 18 15 13
  20893047.867     -284330.731 7
  21658974.477    -3643497.709 7  -2756766.975 2
  24719566.438     4211641.000 5   3199021.067 1
  22818162.875     4451130.174 6   3379074.014 1
  24143676.703    -3483342.278 5  -2521051.126 1
  23817137.875    -5073040.112 5  -2692016.972 1
 90 10 17 11 29 15.0000000  0  6 02 06 11 18 15 13
  20893089.016     -284116.854 7
  21652677.016    -3676597.842 7  -2782559.279 2
  24727868.641     4255258.350 5   3233008.610 1
  22826791.492     4496470.449 6   3414404.089 1
  24138175.102    -3512248.135 5  -2543575.147 1
  23805133.164    -5136135.784 5  -2741182.408 1
 90 10 17 11 29 30.0000000  0  6 02 06 11 18 15 13
  20893141.820     -283851.498 7
  21646383.383    -3709666.416 7  -2808326.990 2
  24736180.109     4298935.762 5   3267042.964 1
  22835429.781     4541861.450 6   3449773.701 1
  24132695.352    -3541066.649 5  -2566031.126 1
  23793133.102    -5199193.283 5  -2790318.116 1
 90 10 17 11 29 45.0000000  0  6 02 06 11 18 15 13
  20893199.539     -283537.212 7
  21640094.383    -3742705.817 7  -2834071.963 2
  24744499.453     4342670.448 5   3301121.938 1
  22844075.070     4587300.198 6   3485180.512 1
  24127224.852    -3569800.350 5  -2588420.983 1
  23781137.531    -5262214.578 5  -2839425.590 1
 90 10 17 11 30  0.0000000  0  6 02 06 11 18 15 13
  20893268.344     -283176.040 7
  21633813.227    -3775717.730 7  -2859795.541 2
  24752831.695     4386459.913 5   3335243.586 1
  22852730.203     4632784.081 6   3520622.505 1
  24121769.203    -3598450.862 5  -2610746.024 1
  23769155.562    -5325201.575 5  -2888506.337 1
 90 10 17 11 30 15.0000000  0  6 02 06 11 18 15 13
  20893344.719     -282765.994 7
  21627538.109    -3808699.731 7  -2885495.802 2
  24761175.016     4430306.084 5   3369409.431 1
  22861394.203     4678315.426 6   3556101.466 1
  24116334.695    -3627015.660 5  -2633004.311 1
  23757175.898    -5388151.599 5  -2937558.280 1
 90 10 17 11 30 30.0000000  0  6 02 06 11 18 15 13
  20893435.320     -282309.685 7        -0.03613
  21621266.430    -3841654.237 7  -2911174.635 2
  24769529.883     4474205.923 5   3403617.080 1
  22870066.813     4723890.977 6   3591614.869 1
  24110916.180    -3655496.854 5  -2655197.429 1
  23745204.336    -5451066.774 5  -2986583.070 1
 90 10 17 11 30 45.0000000  0  6 02 06 11 18 15 13
  20893528.617     -281805.743 7       392.651 3
  21615000.406    -3874579.592 7  -2936830.745 2
  24777892.391     4518160.553 5   3437867.416 1
  22878749.461     4769512.047 6   3627163.753 1
  24105513.102    -3683892.802 5  -2677324.112 1
  23733238.758    -5513945.400 5  -3035579.365 1
 90 10 17 11 31  0.0000000  0  6 02 06 11 18 15 13
  20893634.000     -281250.837 7       825.050 3
  21608740.844    -3907472.243 7  -2962461.380 2
  24786266.734     4562173.061 5   3472162.851 1
  22887438.531     4815181.386 6   3662750.243 1
  24100126.523    -3712199.646 5  -2699381.373 1
  23721278.367    -5576783.526 5  -3084544.119 1
 90 10 17 11 31 15.0000000  0  6 02 06 11 18 15 13
  20893749.992     -280646.228 7      1296.180 3
  21602487.516    -3940333.076 7  -2988067.233 2
  24794655.695     4606241.908 5   3506502.192 1
  22896136.672     4860897.595 6   3698373.265 1
  24094756.570    -3740418.323 5  -2721369.939 1
  23709328.680    -5639582.018 5  -3133477.974 1
 90 10 17 11 31 30.0000000  0  6 02 06 11 18 15 13
  20893874.898     -279995.858 7      1802.960 3
  21596241.234    -3973165.667 7  -3013651.070 2
  24803052.367     4650362.921 5   3540882.208 1
  22904846.102     4906656.634 6   3734029.654 1
  24089401.055    -3768552.410 5  -2743292.578 1
  23697382.289    -5702344.465 5  -3182383.758 1
 90 10 17 11 31 45.0000000  0  6 02 06 11 18 15 13
  20894004.609     -279299.439 7      2345.620 3
  21589998.180    -4005969.361 7  -3039212.387 2
  24811457.219     4694536.024 5   3575302.792 1
  22913562.977     4952458.411 6   3769719.336 1
  24084067.695    -3796600.865 6  -2765148.512 1
  23685448.367    -5765069.935 6  -3231260.733 1
 90 10 17 11 32  0.0000000  0  6 02 06 11 18 15 13
  20894146.867     -278552.995 7      2927.280 3
  21583761.516    -4038740.031 7  -3064747.969 2
  24819873.914     4738764.848 5   3609766.828 1
  22922287.391     4998306.381 6   3805445.016 1
  24078743.813    -3824559.823 5  -2786934.700 1
  23673520.805    -5827754.137 5  -3280105.540 1
 90 10 17 11 32 15.0000000  0  7 02 06 11 18 15 13 09
  20894299.547     -277756.935 7      3547.597 3
  21577531.648    -4071477.652 7  -3090257.792 2
  24828302.602     4783048.755 4   3644273.727 1
  22931018.336     5044199.886 6   3841206.177 1
  24073440.875    -3852428.970 5  -2808650.881 1
  23661602.281    -5890396.995 5  -3328918.126 1
  24593821.133          -0.73713
 90 10 17 11 32 30.0000000  0  7 02 06 11 18 15 13 09
  20894463.047     -276911.128 7      4206.649 3
  21571308.789    -4104182.017 7  -3115741.695 2
  24836738.398     4827387.695 4   3678823.545 1
  22939762.477     5090139.066 6   3877002.930 1
  24068156.461    -3880208.009 5  -2830296.865 1
  23649690.547    -5952997.740 5  -3377697.898 1
  24584505.703      -48927.869 3
 90 10 17 11 32 45.0000000  0  7 02 06 11 18 15 13 09
  20894630.695     -276016.291 7      4903.917 3
  21565091.195    -4136853.317 7  -3141199.825 2
  24845185.766     4871780.513 4   3713415.295 1
  22948511.781     5136122.813 6   3912834.412 1
  24062887.883    -3907897.156 5  -2851872.801 1
  23637783.438    -6015556.991 5  -3426445.332 1
  24575196.523      -97871.576 3
 90 10 17 11 33  0.0000000  0  7 02 06 11 18 15 13 09
  20894811.086     -275071.758 7      5639.933 3
  21558881.461    -4169490.519 7  -3166631.406 2
  24853642.273     4916227.814 4   3748049.512 1
  22957271.063     5182151.639 6   3948701.006 1
  24057635.211    -3935494.838 5  -2873377.455 1
  23625887.352    -6078073.454 5  -3475159.434 1
  24565880.711     -146830.829 3
 90 10 17 11 33 15.0000000  0  7 02 06 11 18 15 13 09
  20895001.242     -274073.674 7      6417.670 3
  21552677.406    -4202089.612 7  -3192033.300 2
  24862113.430     4960733.004 5   3782728.849 1
  22966040.789     5228229.168 6   3984605.573 1
  24052405.492    -3962997.383 5  -2894807.996 1
  23614002.461    -6140542.811 5  -3523836.843 1
  24556565.492     -195801.635 3
 90 10 17 11 33 30.0000000  0  7 02 06 11 18 15 13 09
  20895200.555     -273026.598 7      7233.578 3
  21546482.281    -4234654.795 7  -3217408.766 2
  24870591.781     5005291.281 5   3817449.589 1
  22974816.383     5274350.335 6   4020544.144 1
  24047181.719    -3990408.799 5  -2916167.523 1
  23602121.250    -6202969.165 5  -3572480.744 1
  24547242.398     -244788.312 3        -0.07811
 90 10 17 11 33 45.0000000  0  7 02 06 11 18 15 13 09
  20895409.563     -271925.586 7      8091.521 3
  21540290.250    -4267180.907 7  -3242753.788 2
  24879079.281     5049907.305 5   3852215.344 1
  22983601.734     5320519.884 6   4056520.413 1
  24041988.453    -4017723.751 5  -2937451.871 1
  23590247.672    -6265347.021 5  -3621086.824 1
  24537914.195     -293785.840 3    -38179.956 1
 90 10 17 11 34  0.0000000  0  7 02 06 11 18 15 13 09
  20895629.914     -270772.140 7      8990.312 3
  21534107.891    -4299669.050 7  -3268069.225 2
  24887581.367     5094579.201 5   3887024.612 1
  22992395.336     5366735.891 6   4092532.851 1
  24036808.492    -4044943.100 5  -2958661.714 1
  23578389.414    -6327677.471 5  -3669655.960 1
  24528588.016     -342795.543 4    -76369.318 1
 90 10 17 11 34 15.0000000  0  7 02 06 11 18 15 13 09
  20895860.203     -269567.415 7      9929.054 3
  21527934.055    -4332120.150 7  -3293355.779 2
  24896093.438     5139305.535 5   3921876.282 1
  23001199.430     5412996.943 6   4128580.408 1
  24031646.227    -4072068.113 5  -2979798.073 1
  23566537.109    -6389961.410 6  -3718188.884 1
  24519262.961     -391818.244 4   -114568.874 1
 90 10 17 11 34 30.0000000  0  7 02 06 11 18 15 13 09
  20896097.148     -268308.116 7     10910.331 3
  21521765.469    -4364530.423 7  -3318610.513 2
  24904617.391     5184089.484 5   3956772.875 1
  23010014.008     5459306.339 6   4164665.631 1
  24026506.086    -4099094.810 6  -3000857.828 1
  23554693.688    -6452194.914 6  -3766682.502 1
  24509935.711     -440850.682 4   -152775.933 1
 90 10 17 11 34 45.0000000  0  7 02 06 11 18 15 13 09
  20896347.070     -266995.607 7     11933.086 3
  21515607.773    -4396901.019 7  -3343834.346 2
  24913148.094     5228929.433 5   3991713.039 1
  23018834.445     5505662.530 6   4200787.327 1
  24021377.453    -4126023.811 5  -3021841.449 1
  23542860.898    -6514378.923 6  -3815137.544 1
  24500595.000     -489893.596 4   -190991.167 1
 90 10 17 11 35  0.0000000  0  7 02 06 11 18 15 13 09
  20896606.563     -265634.499 7     12993.692 3
  21509452.273    -4429236.273 7  -3369030.649 2
  24921691.375     5273820.303 5   4026692.920 1
  23027661.969     5552060.490 6   4236941.559 1
  24016273.836    -4152859.622 5  -3042752.450 1
  23531036.391    -6576517.685 6  -3863557.355 1
  24491259.328     -538951.732 4   -229218.277 1
 90 10 17 11 35 15.0000000  0  7 02 06 11 18 15 13 09
  20896876.000     -264220.431 7     14095.565 3
  21503309.383    -4461531.418 7  -3394195.688 2
  24930242.586     5318766.249 5   4061715.719 1
  23036500.414     5598504.318 6   4273131.558 1
  24011182.023    -4179597.452 5  -3063587.095 1
  23519221.180    -6638606.217 6  -3911938.021 1
  24481923.695     -588020.441 4   -267453.606 1
 90 10 17 11 35 30.0000000  0  7 02 06 11 18 15 13 09
  20897154.031     -262754.362 7     15237.971 3
  21497170.023    -4493787.234 7  -3419330.080 2
  24938809.180     5363765.943 5   4096780.393 1
  23045346.227     5644992.442 6   4309356.057 1
  24006114.992    -4206237.976 5  -3084345.944 1
  23507414.977    -6700645.273 6  -3960280.113 1
  24472587.094     -637100.651 4   -305697.888 1
 90 10 17 11 35 45.0000000  0  7 02 06 11 18 15 13 09
  20897443.172     -261236.899 7     16420.434 3
  21491038.664    -4526003.874 7  -3444433.953 2
  24947384.648     5408818.543 5   4131886.306 1
  23054202.164     5691524.339 6   4345614.666 1
  24001065.859    -4232781.245 5  -3105028.979 1
  23495620.109    -6762634.684 6  -4008583.529 1
  24463244.016     -686192.565 4   -343951.331 1
 90 10 17 11 36  0.0000000  0  7 02 06 11 18 15 13 09
  20897742.703     -259666.572 7     17644.084 3
  21484916.094    -4558179.805 7  -3469506.085 2
  24955967.805     5453925.181 5   4167034.292 1
  23063066.773     5738100.931 6   4381908.101 1
  23996033.039    -4259225.723 6  -3125635.053 1
  23483833.430    -6824572.605 6  -4056846.816 1
  24453896.789     -735294.626 3   -382212.649 1
 90 10 17 11 36 15.0000000  0  7 02 06 11 18 15 13 09
  20898050.820     -258047.815 7     18905.458 3
  21478799.773    -4590318.940 7  -3494549.554 2
  24964559.719     5499081.201 5   4202220.790 1
  23071935.297     5784717.639 6   4418232.807 1
  23991017.977    -4285575.090 6  -3146166.997 1
  23472055.977    -6886463.136 6  -4105073.185 1
  24444550.164     -784411.252 3   -420485.381 1
 90 10 17 11 36 30.0000000  0  7 02 06 11 18 15 13 09
  20898369.820     -256373.219 7     20210.352 3
  21472692.664    -4622413.597 7  -3519558.366 2
  24973162.023     5544293.664 5   4237451.256 1
  23080815.102     5831381.808 6   4454594.467 1
  23986023.547    -4311821.465 6  -3166618.709 1
  23460289.617    -6948298.430 6  -4153256.517 1
  24435202.211     -833534.514 4   -458763.295 1
 90 10 17 11 36 45.0000000  0  7 02 06 11 18 15 13 09
  20898698.141     -254646.700 7     21555.688 3
  21466592.180    -4654467.485 7  -3544535.405 2
  24981774.953     5589558.353 5   4272722.447 1
  23089703.516     5878089.087 6   4490989.739 1
  23981050.586    -4337968.852 5  -3186993.273 1
  23448530.305    -7010081.730 6  -4201399.308 1
  24425859.594     -882668.268 4   -497049.329 1
 90 10 17 11 37  0.0000000  0  7 02 06 11 18 15 13 09
  20899036.086     -252865.259 7     22943.812 3
  21460502.188    -4686477.044 7  -3569477.915 2
  24990399.758     5634878.175 5   4308036.601 1
  23098601.641     5924842.158 6   4527420.702 1
  23976091.422    -4364013.517 6  -3207287.792 1
  23436784.484    -7071809.567 6  -4249498.925 1
  24416502.523     -931809.107 3   -535340.873 1
 90 10 17 11 37 15.0000000  0  7 02 06 11 18 15 13 09
  20899386.391     -251031.122 7     24372.992 3
  21454417.953    -4718444.551 7  -3594387.660 2
  24999032.555     5680250.523 5   4343391.672 1
  23107504.109     5971638.415 6   4563885.314 1
  23971151.875    -4389957.414 6  -3227503.799 1
  23425050.422    -7133484.284 6  -4297557.115 1
  24407146.508     -980959.386 3   -573639.750 1
 90 10 17 11 37 30.0000000  0  7 02 06 11 18 15 13 09
  20899744.789     -249143.423 7     25843.920 3
  21448344.172    -4750368.450 7  -3619263.425 2
  25007676.672     5725676.084 5   4378788.178 1
  23116417.867     6018478.674 6   4600384.219 1
  23966237.727    -4415799.122 6  -3247640.181 1
  23413323.750    -7195104.205 6  -4345572.630 1
  24397794.367    -1030117.940 3   -611945.113 1
 90 10 17 11 37 45.0000000  0  7 02 06 11 18 15 13 09
  20900113.969     -247203.097 7     27355.867 3
  21442275.734    -4782249.670 7  -3644105.931 2
  25016331.344     5771153.450 5   4414225.057 1
  23125341.969     6065361.493 6   4636916.276 1
  23961337.023    -4441539.309 6  -3267697.433 1
  23401609.070    -7256669.938 6  -4393545.907 1
  24388438.367    -1079285.484 3   -650257.493 1
 90 10 17 11 38  0.0000000  0  7 02 06 11 18 15 13 09
  20900493.648     -245210.792 7     28908.314 3
  21436218.070    -4814088.479 7  -3668915.384 2
  25024994.219     5816681.709 5   4449701.603 1
  23134271.672     6112286.041 6   4673480.852 1
  23956458.836    -4467178.298 6  -3287675.830 1
  23389897.422    -7318181.552 6  -4441477.014 1
  24379082.828    -1128462.475 3   -688577.241 1
 90 10 17 11 38 15.0000000  0  7 02 06 11 18 15 13 09
  20900881.188     -243167.923 7     30500.167 3
  21430167.875    -4845885.838 7  -3693692.552 2
  25033666.242     5862259.240 5   4485216.528 1
  23143207.469     6159250.613 6   4710076.613 1
  23951598.523    -4492717.507 6  -3307576.496 1
  23378206.359    -7379640.168 6  -4489366.823 1
  24369720.398    -1177650.092 3   -726905.246 1
 90 10 17 11 38 30.0000000  0  7 02 06 11 18 15 13 09
  20901279.844     -241071.830 7     32133.486 3
  21424124.648    -4877638.734 7  -3718435.055 2
  25042348.266     5907888.532 5   4520771.815 1
  23152153.070     6206257.651 6   4746705.472 1
  23946758.242    -4518153.296 6  -3327396.565 1
  23366524.055    -7441042.282 6  -4537212.608 1
  24360357.930    -1226845.521 3   -765239.346 1
 90 10 17 11 38 45.0000000  0  7 02 06 11 18 15 13 09
  20901689.523     -238924.759 7     33806.526 3
  21418090.172    -4909349.342 7  -3743144.602 2
  25051039.961     5953566.889 4   4556365.308 1
  23161103.664     6253304.581 6   4783365.409 1
  23941939.633    -4543487.639 6  -3347137.579 1
  23354848.773    -7502390.026 6  -4585016.015 1
  24350997.063    -1276050.707 3   -803581.037 1
 90 10 17 11 39  0.0000000  0  7 02 06 11 18 15 13 09
  20902107.164     -236724.879 7     35520.715 3
  21412065.305    -4941015.398 7  -3767819.438 2
  25059744.984     5999295.838 5   4591998.240 1
  23170065.156     6300392.916 6   4820057.613 1
  23937138.187    -4568718.560 6  -3366798.027 1
  23343185.000    -7563681.228 6  -4632775.392 1
  24341630.609    -1325263.813 3   -841928.915 1
 90 10 17 11 39 15.0000000  0  7 02 06 11 18 15 13 09
  20902536.891     -234472.103 7     37276.121 3
  21406048.180    -4972636.592 7  -3792459.313 3
  25068455.828     6045075.174 5   4627670.471 1
  23179031.813     6347522.487 6   4856781.961 1
  23932352.758    -4593845.425 6  -3386377.394 1
  23331531.555    -7624915.039 6  -4680490.046 1
  24332262.648    -1374484.345 4   -880282.556 1
 90 10 17 11 39 30.0000000  0  7 02 06 11 18 15 13 09
  20902975.797     -232169.012 7     39070.736 3
  21400038.617    -5004214.884 7  -3817065.769 2
  25077176.242     6090902.238 5   4663379.860 1
  23188008.430     6394690.603 6   4893536.349 1
  23927592.133    -4618870.347 6  -3405877.281 1
  23319893.055    -7686093.584 6  -4728161.613 1
  24322896.961    -1423714.664 4   -918643.845 1
 90 10 17 11 39 45.0000000  0  7 02 06 11 18 15 13 09
  20903423.039     -229813.115 7     40906.492 3
  21394037.367    -5035747.620 7  -3841636.719 2
  25085908.086     6136779.054 5   4699127.986 1
  23196990.227     6441899.222 6   4930322.279 1
  23922852.039    -4643790.396 6  -3425295.459 1
  23308260.977    -7747214.232 6  -4775788.056 1
  24313527.195    -1472952.162 4   -957010.700 1
 90 10 17 11 40  0.0000000  0  7 02 06 11 18 15 13 09
  20903881.141     -227405.882 7     42782.262 3
  21388047.109    -5067236.458 7  -3866173.475 2
  25094649.203     6182703.731 5   4734913.439 1
  23205983.898     6489146.454 6   4967138.294 1
  23918128.875    -4668606.768 6  -3444632.878 1
  23296640.008    -7808278.190 6  -4823370.335 1
  24304157.727    -1522198.378 4   -995384.363 1
 90 10 17 11 40 15.0000000  0  7 02 06 11 18 15 13 09
  20904348.813     -224946.504 7     44698.674 3
  21382061.570    -5098679.575 7  -3890674.592 3
  25103399.688     6228677.029 5   4770736.764 1
  23214983.484     6536433.165 6   5003985.057 1
  23913423.828    -4693318.429 6  -3463888.690 1
  23285032.031    -7869283.656 6  -4870907.051 1
  24294783.703    -1571451.951 4  -1033763.771 1
 90 10 17 11 40 30.0000000  0  7 02 06 11 18 15 13 09
  20904827.000     -222436.708 7     46654.364 3
  21376087.602    -5130078.406 7  -3915141.195 3
  25112154.172     6274697.111 5   4806596.555 1
  23223988.016     6583757.457 6   5040861.119 1
  23908744.133    -4717926.477 6  -3483063.748 1
  23273434.469    -7930231.875 6  -4918399.150 1
  24285406.156    -1620714.306 4  -1072150.030 1
 90 10 17 11 40 45.0000000  0  6 02 06 18 15 13 09
  20905314.789     -219875.513 7     48650.105 3
  21370120.719    -5161431.994 7  -3939572.565 3
  23233001.969     6631119.773 6   5077766.826 1
  23904080.211    -4742429.592 6  -3502157.042 1
  23261846.539    -7991121.810 6  -4965845.831 1
  24276028.359    -1669984.572 4  -1110542.433 1
 90 10 17 11 41  0.0000000  0  6 02 06 18 15 13 09
  20905811.867     -217261.013 7     50687.384 3
  21364163.164    -5192737.910 7  -3963966.790 2
  23242020.633     6678521.860 6   5114703.496 1
  23899437.938    -4766825.542 6  -3521166.866 1
  23250270.414    -8051950.904 6  -5013245.114 1
  24266656.156    -1719260.300 4  -1148939.070 1
 90 10 17 11 41 15.0000000  0  6 02 06 18 15 13 09
  20906319.383     -214594.802 7     52764.957 3
  21358213.867    -5223997.609 7  -3988324.994 2
  23251048.453     6725961.372 6   5151669.327 1
  23894815.789    -4791115.763 6  -3540094.298 1
  23238707.461    -8112720.584 6  -5060598.097 1
  24257280.820    -1768543.287 4  -1187341.411 1
 90 10 17 11 41 30.0000000  0  6 02 06 18 15 13 09
  20906836.703     -211877.727 7     54882.174 3
  21352273.445    -5255211.703 7  -4012647.665 2
  23260082.320     6773437.780 6   5188663.932 1
  23890215.164    -4815300.540 6  -3558939.544 1
  23227154.969    -8173430.929 6  -5107904.838 1
  24247896.289    -1817833.855 4  -1225749.640 1
 90 10 17 11 41 45.0000000  0  6 02 06 18 15 13 09
  20907363.547     -209109.555 7     57039.198 3
  21346343.805    -5286379.288 7  -4036934.099 2
  23269125.297     6820951.025 6   5225687.222 1
  23885632.219    -4839379.333 6  -3577702.226 1
  23215613.172    -8234081.282 6  -5155164.830 1
  24238516.938    -1867131.768 4  -1264163.585 1
 90 10 17 11 42  0.0000000  0  6 02 06 18 15 13 09
  20907899.344     -206288.760 7     59237.229 3
  21340423.281    -5317498.590 7  -4061182.884 2
  23278173.273     6868502.330 6   5262740.172 1
  23881070.398    -4863350.346 6  -3596380.910 1
  23204081.891    -8294669.577 6  -5202376.472 1
  24229136.227    -1916435.132 4  -1302581.822 1
 90 10 17 11 42 15.0000000  0  6 02 06 18 15 13 09
  20908447.227     -203413.742 7     61477.503 3
  21334510.070    -5348567.920 7  -4085392.726 2
  23287230.125     6916092.780 6   5299823.617 1
  23876531.102    -4887211.521 6  -3614974.021 1
  23192565.945    -8355194.006 6  -5249538.345 1
  24219753.023    -1965742.213 4  -1341002.905 1
 90 10 17 11 42 30.0000000  0  6 02 06 18 15 13 09
  20909004.516     -200486.697 7     63758.308 3
  21328606.906    -5379589.030 7  -4109565.008 2
  23296291.461     6963719.843 6   5336935.607 1
  23872011.336    -4910964.752 6  -3633483.001 1
  23181060.680    -8415656.466 6  -5296651.930 1
  24210370.547    -2015055.141 4  -1379428.592 1
 90 10 17 11 42 45.0000000  0  6 02 06 18 15 13 09
  20909570.453     -197509.194 7     66078.439 3
  21322712.734    -5410563.162 7  -4133700.691 3
  23305362.234     7011381.659 6   5374074.673 1
  23867506.961    -4934611.020 6  -3651908.638 1
  23169566.438    -8476058.040 6  -5343718.075 1
  24200983.734    -2064375.057 4  -1417859.679 1
 90 10 17 11 43  0.0000000  0  6 02 06 18 15 13 09
  20910147.586     -194480.778 7     68438.234 3
  21316825.523    -5441489.673 7  -4157799.260 2
  23314440.148     7059078.770 6   5411241.242 1
  23863028.031    -4958149.512 6  -3670250.292 1
  23158083.758    -8536397.916 6  -5390736.150 1
  24191593.172    -2113701.397 4  -1456295.787 1
 90 10 17 11 43 15.0000000  0  6 02 06 18 15 13 09
  20910733.359     -191401.850 7     70837.398 3
  21310950.547    -5472368.293 7  -4181860.518 3
  23323523.094     7106810.154 6   5448434.522 1
  23858572.398    -4981580.441 6  -3688508.149 1
  23146613.219    -8596675.561 6  -5437705.712 1
  24182210.383    -2163034.005 4  -1494736.750 1
 90 10 17 11 43 30.0000000  0  6 02 06 18 15 13 09
  20911329.055     -188272.700 7     73275.684 3
  21305084.758    -5503199.195 7  -4205884.598 2
  23332612.234     7154575.371 6   5485654.144 1
  23854134.000    -5004903.566 6  -3706681.993 1
  23135154.461    -8656891.047 6  -5484626.866 1
  24172820.734    -2212373.264 4  -1533182.908 1
 90 10 17 11 43 45.0000000  0  6 02 06 18 15 13 09
  20911933.742     -185090.602 7     75755.231 3
  21299227.477    -5533979.428 7  -4229869.169 2
  23341707.586     7202376.878 6   5522902.057 1
  23849717.773    -5028115.827 6  -3724769.450 1
  23123707.102    -8717041.466 6  -5531497.309 1
  24163428.805    -2261716.291 4  -1571632.020 1
 90 10 17 11 44  0.0000000  0  6 02 06 18 15 13 09
  20912549.844     -181856.181 7     78275.551 3
  21293378.711    -5564709.339 7  -4253814.526 2
  23350810.680     7250213.520 6   5560177.330 1
  23845319.523    -5051217.750 6  -3742770.919 1
  23112274.648    -8777126.997 6  -5578317.187 1
  24154042.031    -2311063.649 4  -1610084.510 1
 90 10 17 11 44 15.0000000  0  6 02 06 18 15 13 09
  20913174.484     -178573.540 7     80833.458 3
  21287540.609    -5595392.592 7  -4277723.540 2
  23359918.063     7298080.891 6   5597476.561 1
  23840945.602    -5074212.927 6  -3760689.214 1
  23100853.789    -8837151.220 6  -5625089.276 1
  24144647.883    -2360419.123 3  -1648543.286 1
 90 10 17 11 44 30.0000000  0  6 02 06 18 15 13 09
  20913808.961     -175237.859 7     83432.699 3
  21281711.125    -5626024.116 7  -4301592.250 2
  23369035.727     7345983.854 6   5634803.552 1
  23836588.594    -5097096.118 6  -3778520.273 1
  23089442.266    -8897108.664 6  -5671809.365 1
  24135251.172    -2409777.541 4  -1687004.398 1
 90 10 17 11 44 45.0000000  0  6 02 06 18 15 13 09
  20914452.813     -171851.195 7     86071.660 3
  21275892.477    -5656605.608 7  -4325421.971 3
  23378156.398     7393919.995 6   5672156.389 1
  23832255.547    -5119869.397 6  -3796265.650 1
  23078042.859    -8957001.240 6  -5718478.869 1
  24125864.703    -2459140.995 4  -1725469.443 1
 90 10 17 11 45  0.0000000  0  6 02 06 18 15 13 09
  20915106.617     -168411.774 7     88751.722 3
  21270083.438    -5687135.084 7  -4349211.165 3
  23387285.547     7441890.637 6   5709536.118 1
  23827944.820    -5142530.275 6  -3813923.444 1
  23066659.922    -9016826.600 6  -5765096.039 1
  24116471.273    -2508507.278 5  -1763936.682 1
 90 10 17 11 45 15.0000000  0  6 02 06 18 15 13 09
  20915770.469     -164920.976 7     91471.823 3
  21264282.141    -5717613.451 7  -4372960.548 2
  23396423.188     7489894.229 6   5746941.510 1
  23823650.750    -5165079.722 6  -3831494.416 1
  23055290.766    -9076585.752 6  -5811661.583 1
  24107071.336    -2557877.448 4  -1802406.945 1
 90 10 17 11 45 30.0000000  0  6 02 06 18 15 13 09
  20916445.164     -161378.986 7     94231.816 3
  21258493.953    -5748040.604 7  -4396670.027 2
  23405561.125     7537930.205 6   5784372.136 1
  23819381.344    -5187517.795 6  -3848978.617 1
  23043929.141    -9136278.561 6  -5858175.450 1
  24097672.617    -2607251.607 4  -1840880.305 1
 90 10 17 11 45 45.0000000  0  6 02 06 18 15 13 09
  20917128.875     -157786.342 7     97031.283 3
  21252713.273    -5778416.716 7  -4420339.735 3
  23414708.813     7585997.902 6   5821827.480 1
  23815132.508    -5209844.467 6  -3866376.000 1
  23032581.211    -9195904.726 6  -5904637.385 1
  24088281.297    -2656630.109 4  -1879357.038 1
 90 10 17 11 46  0.0000000  0  6 02 06 18 15 13 09
  20917823.602     -154141.108 7     99871.735 3
  21246942.258    -5808739.603 7  -4443967.958 3
  23423861.867     7634098.861 6   5859308.734 1
  23810907.969    -5232057.728 6  -3883685.021 1
  23021249.477    -9255462.120 6  -5951045.726 1
  24078884.070    -2706010.774 5  -1917835.459 1
 90 10 17 11 46 15.0000000  0  6 02 06 18 15 13 09
  20918528.195     -150444.116 7    102752.512 3
  21241181.922    -5839009.847 7  -4467555.171 2
  23433020.719     7682232.125 6   5896815.181 1
  23806698.711    -5254157.968 6  -3900905.953 1
  23009929.508    -9314951.277 6  -5997400.899 1
  24069486.461    -2755394.226 5  -1956316.054 1
 90 10 17 11 46 30.0000000  0  6 02 06 18 15 13 09
  20919239.984     -146697.948 7    105671.594 3
  21235430.883    -5869229.460 7  -4491102.902 2
  23442187.734     7730394.780 6   5934344.504 1
  23802517.711    -5276147.182 6  -3918040.383 1
  22998620.281    -9374374.136 6  -6043704.398 1
  24060091.313    -2804782.784 5  -1994800.662 1
 90 10 17 11 46 45.0000000  0  6 02 06 18 15 13 09
  20919962.961     -142901.219 7    108630.087 3
  21229690.594    -5899396.892 7  -4514609.988 2
  23451356.555     7778587.730 6   5971897.458 1
  23798353.164    -5298023.933 6  -3935087.195 1
  22987325.547    -9433728.843 6  -6089954.809 1
  24050687.742    -2854174.983 5  -2033288.062 1
 90 10 17 11 47  0.0000000  0  6 02 06 18 15 13 09
  20920694.875     -139053.009 7    111628.700 3
  21223960.078    -5929511.084 7  -4538075.592 2
  23460533.492     7826811.592 6   6009474.475 1
  23794210.648    -5319786.962 6  -3952045.373 1
  22976046.187    -9493014.309 6  -6136151.252 1
  24041292.461    -2903569.743 4  -2071777.448 1
 90 10 17 11 47 15.0000000  0  6 02 06 18 15 13 09
  20921436.797     -135153.678 7    114667.149 3
  21218239.930    -5959571.932 7  -4561499.614 2
  23469716.969     7875065.603 6   6047075.001 1
  23790091.023    -5341436.333 6  -3968914.990 1
  22964776.516    -9552230.535 6  -6182293.745 1
  24031886.758    -2952966.976 4  -2110268.793 1
 90 10 17 11 47 30.0000000  0  6 02 06 18 15 13 09
  20922189.570     -131201.205 7    117747.014 3
  21212530.102    -5989577.017 7  -4584880.192 3
  23478902.359     7923351.920 6   6084700.703 1
  23785992.156    -5362969.533 6  -3985694.082 1
  22953520.148    -9611374.879 6  -6228380.239 1
  24022491.305    -3002364.763 4  -2148760.589 1
 90 10 17 11 47 45.0000000  0  6 02 06 18 15 13 09
  20922951.484     -127199.544 7    120865.207 3
  21206829.383    -6019529.856 7  -4608220.077 3
  23488096.883     7971666.197 5   6122348.199 1
  23781918.828    -5384389.896 6  -4002385.243 1
  22942279.938    -9670450.738 6  -6274413.362 1
  24013087.281    -3051766.273 4  -2187255.239 1
 90 10 17 11 48  0.0000000  0  6 02 06 18 15 13 09
  20923722.180     -123147.501 7    124022.655 3
  21201142.258    -6049429.110 7  -4631518.220 2
  23497299.672     8020009.333 6   6160018.175 1
  23777862.805    -5405696.257 6  -4018987.582 1
  22931050.938    -9729456.818 6  -6320392.127 1
  24003687.961    -3101170.563 4  -2225752.095 1
 90 10 17 11 48 15.0000000  0  6 02 06 18 15 13 09
  20924502.344     -119044.486 7    127219.820 3
  21195459.891    -6079273.946 7  -4654773.950 2
  23506503.500     8068381.541 6   6197710.802 1
  23773834.438    -5426887.787 6  -4035500.453 1
  22919835.797    -9788391.976 6  -6366315.592 1
  23994288.820    -3150576.502 5  -2264250.213 1
 90 10 17 11 48 30.0000000  0  6 02 06 18 15 13 09
  20925292.453     -114892.914 7    130454.825 3
  21189792.398    -6109066.248 7  -4677988.736 2
  23515710.008     8116780.076 6   6235423.955 1
  23769820.609    -5447966.285 6  -4051925.233 1
  22908634.258    -9847258.148 6  -6412185.306 1
  23984885.836    -3199986.674 5  -2302751.629 1
 90 10 17 11 48 45.0000000  0  6 02 06 18 15 13 09
  20926090.484     -110692.046 7    133728.233 3
  21184132.773    -6138804.951 7  -4701161.761 2
  23524928.648     8165205.702 6   6273158.190 1
  23765831.336    -5468930.564 6  -4068261.009 1
  22897446.328    -9906054.163 6  -6458000.377 1
  23975481.922    -3249399.693 5  -2341255.285 1
 90 10 17 11 49  0.0000000  0  6 02 06 18 15 13 09
  20926900.313     -106440.287 7    137041.293 3
  21178484.438    -6168488.160 7  -4724291.537 2
  23534148.531     8213659.623 6   6310914.478 1
  23761861.797    -5489778.877 6  -4084506.428 1
  22886270.727    -9964777.986 6  -6503759.171 1
  23966078.125    -3298813.819 5  -2379759.805 1
 90 10 17 11 49 15.0000000  0  6 02 06 18 15 13 09
  20927720.719     -102139.422 7    140392.598 3
  21172845.883    -6198117.375 7  -4747379.230 3
  23543373.195     8262139.382 5   6348690.927 1
  23757920.852    -5510512.519 6  -4100662.501 1
  22875111.117   -10023431.037 6  -6549462.826 1
  23956670.383    -3348230.792 5  -2418266.503 1
 90 10 17 11 49 30.0000000  0  6 02 06 18 15 13 09
  20928547.563      -97787.000 7    143784.095 3
  21167218.984    -6227689.936 7  -4770422.776 2
  23552605.023     8310647.345 5   6386489.335 1
  23753995.461    -5531128.941 6  -4116727.214 1
  22863962.859   -10082010.273 6  -6595108.957 1
  23947269.867    -3397647.898 5  -2456773.339 1
 90 10 17 11 49 45.0000000  0  6 02 06 18 15 13 09
  20929383.883      -93384.130 7    147214.908 3
  21161601.750    -6257206.421 7  -4793422.632 2
  23561841.227     8359182.594 5   6424309.017 1
  23750092.953    -5551628.968 6  -4132701.259 1
  22852831.227   -10140516.256 6  -6640698.015 1
  23937865.664    -3447066.001 4  -2495280.932 1
 90 10 17 11 50  0.0000000  0  6 02 06 18 15 13 09
  20930232.844      -88927.618 7    150687.507 3
  21155996.516    -6286663.575 7  -4816376.251 2
  23571082.055     8407747.310 5   6462151.637 1
  23746214.805    -5572009.250 6  -4148581.969 1
  22841711.008   -10198945.723 6  -6686227.450 1
  23928461.367    -3496481.835 5  -2533786.745 1
 90 10 17 11 50 15.0000000  0  6 02 06 18 15 13 09
  20931090.508      -84421.848 7    154198.494 3
  21150400.969    -6316065.531 7  -4839286.850 3
  23580329.078     8456336.565 6   6500013.375 1
  23742361.203    -5592273.628 6  -4164372.379 1
  22830605.633   -10257302.698 6  -6731700.402 1
  23919059.641    -3545899.666 4  -2572294.141 1
 90 10 17 11 50 30.0000000  0  6 02 06 18 15 13 09
  20931957.078      -79867.319 7    157747.478 3
  21144818.336    -6345411.970 7  -4862154.211 3
  23589579.016     8504950.524 6   6537894.387 1
  23738525.805    -5612422.310 6  -4180072.623 1
  22819514.563   -10315586.998 6  -6777116.724 1
  23909654.930    -3595319.225 4  -2610802.878 1
 90 10 17 11 50 45.0000000  0  6 02 06 18 15 13 09
  20932832.836      -75263.398 7    161334.945 3
  21139244.211    -6374702.178 7  -4884977.742 3
  23598834.867     8553589.291 6   6575794.734 1
  23734712.859    -5632454.272 6  -4195681.931 1
  22808436.398   -10373797.666 6  -6822475.673 1
  23900250.352    -3644740.068 5  -2649312.605 1
 90 10 17 11 51  0.0000000  0  6 02 06 18 15 13 09
  20933717.320      -70612.964 7    164958.660 3
  21133679.484    -6403938.932 7  -4907759.610 3
  23608095.383     8602249.384 6   6613711.670 1
  23730922.984    -5652372.024 6  -4211202.237 1
  22797373.219   -10431937.295 6  -6867779.254 1
  23890842.750    -3694164.760 5  -2687825.329 1
 90 10 17 11 51 15.0000000  0  6 02 06 18 15 13 09
  20934613.695      -65914.095 7    168620.112 3
  21128126.398    -6433119.710 7  -4930497.866 3
  23617358.516     8650932.483 5   6651646.552 1
  23727153.148    -5672173.146 6  -4226631.664 1
  22786326.031   -10490003.618 6  -6913025.722 1
  23881442.070    -3743591.213 5  -2726339.458 1
 90 10 17 11 51 30.0000000  0  6 02 06 18 15 13 09
  20935514.359      -61171.033 7    172316.002 3
  21122583.609    -6462248.549 7  -4953195.669 3
  23626627.969     8699634.333 5   6689596.036 1
  23723407.281    -5691861.799 6  -4241973.454 1
  22775286.633   -10548000.022 6  -6958217.708 1
  23872031.383    -3793023.255 5  -2764857.913 1
 90 10 17 11 51 45.0000000  0  6 02 06 18 15 13 09
  20936427.047      -56378.741 7    176050.242 3
  21117051.289    -6491320.227 7  -4975848.946 3
  23635899.773     8748359.488 5   6727563.688 1
  23719685.359    -5711432.830 6  -4257223.605 1
  22764265.656   -10605921.177 6  -7003351.075 1
  23862624.367    -3842455.777 5  -2803376.722 1
 90 10 17 11 52  0.0000000  0  6 02 06 18 15 13 09
  20937349.219      -51534.271 7    179825.148 3
  21111530.133    -6520331.046 7  -4998454.779 3
  23645174.133     8797110.631 5   6765551.601 1
  23715982.773    -5730882.910 6  -4272379.487 1
  22753259.164   -10663764.052 6  -7048423.428 1
  23853221.180    -3891885.459 5  -2841893.347 1
 90 10 17 11 52 15.0000000  0  6 02 06 18 15 13 09
  20938280.234      -46639.997 7    183638.867 3
  21106022.359    -6549283.306 7  -5021014.988 3
  23654456.820     8845885.143 5   6803557.703 1
  23712304.539    -5750213.962 6  -4287442.626 1
  22742265.086   -10721530.608 6  -7093436.311 1
  23843815.758    -3941314.697 5  -2880409.626 1
 90 10 17 11 52 30.0000000  0  6 02 06 18 15 13 09
  20939221.453      -41695.213 7    187491.944 4
  21100523.898    -6578176.082 7  -5043528.846 3
  23663743.641     8894683.224 5   6841582.178 1
  23708644.883    -5769424.981 6  -4302412.244 1
  22731287.227   -10779219.433 6  -7138388.628 1
  23834408.164    -3990742.225 5  -2918924.574 1
 90 10 17 11 52 45.0000000  0  6 02 06 18 15 13 09
  20940170.711      -36703.169 7    191381.850 4
  21095035.938    -6607012.168 7  -5065998.514 2
  23673033.078     8943501.528 5   6879622.418 1
  23705015.719    -5788518.857 6  -4317290.579 1
  22720324.437   -10836833.523 6  -7183282.719 1
  23824998.813    -4040171.332 5  -2957440.725 1
 90 10 17 11 53  0.0000000  0  6 02 06 18 15 13 09
  20941129.055      -31664.342 7    195308.221 4
  21089559.797    -6635791.859 7  -5088424.244 2
  23682327.461     8992339.334 5   6917677.858 1
  23701401.836    -5807495.821 6  -4332077.807 1
  22709373.453   -10894372.712 6  -7228118.436 1
  23815593.594    -4089602.231 5  -2995958.311 1
 90 10 17 11 53 15.0000000  0  6 02 06 18 15 13 09
  20942098.430      -26576.354 7    199272.892 3
  21084093.414    -6664512.328 7  -5110803.833 3
  23691624.430     9041198.552 5   6955749.975 1
  23697817.008    -5826353.165 6  -4346771.828 1
  22698439.766   -10951834.299 6  -7272893.690 1
  23806191.375    -4139032.205 5  -3034475.172 1
 90 10 17 11 53 30.0000000  0  6 02 06 18 15 13 09
  20943076.813      -21435.918 7    203278.443 3
  21078640.461    -6693170.024 7  -5133134.505 3
  23700928.219     9090082.241 5   6993841.154 1
  23694253.672    -5845087.533 6  -4361370.014 1
  22687522.820   -11009214.750 6  -7317605.722 1
  23796783.672    -4188457.973 5  -3072988.766 1
 90 10 17 11 53 45.0000000  0  6 02 06 18 15 13 09
  20944063.344      -16245.734 7    207322.757 3
  21073198.156    -6721767.201 7  -5155418.034 3
  23710233.305     9138987.621 5   7031949.247 1
  23690708.883    -5863700.903 6  -4375873.930 1
  22676617.711   -11066516.250 6  -7362256.232 1
  23787380.461    -4237881.722 5  -3111500.768 1
 90 10 17 11 54  0.0000000  0  6 02 06 18 15 13 09
  20945060.203      -11007.207 7    211404.734 3
  21067767.602    -6750305.033 7  -5177655.320 3
  23719542.000     9187912.568 5   7070072.560 1
  23687190.492    -5882194.399 6  -4390284.440 1
  22665727.820   -11123739.958 6  -7406846.129 1
  23777971.539    -4287304.745 4  -3150012.240 1
 90 10 17 11 54 15.0000000  0  6 02 06 18 15 13 09
  20946067.398       -5720.272 7    215524.435 3
  21062348.516    -6778783.171 7  -5199846.063 3
  23728857.117     9236857.292 5   7108211.293 1
  23683692.398    -5900567.920 5  -4404601.444 1
  22654854.383   -11180885.295 6  -7451374.939 1
  23768568.445    -4336726.772 5  -3188522.912 1
 90 10 17 11 54 30.0000000  0  6 02 06 18 15 13 09
  20947083.297        -385.311 7    219681.557 4
  21056942.336    -6807201.632 7  -5221990.319 3
  23738174.219     9285821.270 5   7146365.026 1
  23680218.750    -5918821.537 6  -4418825.022 1
  22643993.672   -11237952.094 6  -7495842.573 1
  23759162.258    -4386147.991 5  -3227032.939 1
 90 10 17 11 54 45.0000000  0  6 02 06 18 15 13 09
  20948106.766        4999.067 7    223877.158 3
  21051544.641    -6835558.701 7  -5244086.750 3
  23747497.031     9334804.978 5   7184534.145 1
  23676770.055    -5936953.490 6  -4432953.806 1
  22633151.133   -11294938.688 6  -7540247.690 1
  23749760.969    -4435566.726 5  -3265541.045 1
 90 10 17 11 55  0.0000000  0  6 02 06 18 15 13 09
  20949140.313       10433.885 7    228112.072 3
  21046160.648    -6863853.145 7  -5266134.369 3
  23756821.789     9383809.426 5   7222719.421 1
  23673338.555    -5954962.371 6  -4446986.688 1
  22622321.727   -11351843.700 6  -7584589.250 1
  23740355.266    -4484981.778 5  -3304046.260 1
 90 10 17 11 55 15.0000000  0  6 02 06 18 15 13 09
  20950182.695       15918.074 7    232385.471 3
  21040788.258    -6892085.360 7  -5288133.498 3
  23766150.477     9432833.456 5   7260919.962 1
  23669937.492    -5972849.236 6  -4460924.488 1
  22611509.047   -11408667.860 6  -7628867.811 1
  23730953.875    -4534393.824 5  -3342549.132 1
 90 10 17 11 55 30.0000000  0  6 02 06 18 15 13 09
  20951237.031       21452.886 7    236698.309 3
  21035426.563    -6920254.025 7  -5310083.118 3
  23775482.656     9481877.604 5   7299136.173 1
  23666558.313    -5990612.228 6  -4474765.778 1
  22600710.453   -11465409.275 6  -7673081.875 1
  23721554.133    -4583801.620 5  -3381048.724 1
 90 10 17 11 55 45.0000000  0  6 02 06 18 15 13 09
  20952300.203       27038.607 7    241050.808 3
  21030080.469    -6948358.830 7  -5331982.972 3
  23784817.852     9530941.717 5   7337367.947 1
  23663198.859    -6008250.956 6  -4488510.222 1
  22589929.938   -11522067.496 6  -7717231.120 1
  23712151.086    -4633204.701 5  -3419544.650 1
 90 10 17 11 56  0.0000000  0  6 02 06 18 15 13 09
  20953373.438       32673.744 7    245441.829 3
  21024743.563    -6976400.479 7  -5353833.591 3
  23794159.359     9580024.568 5   7375614.325 1
  23659868.828    -6025766.268 6  -4502158.502 1
  22579162.578   -11578643.528 6  -7761316.328 1
  23702749.344    -4682604.002 5  -3458037.615 1
 90 10 17 11 56 15.0000000  0  6 02 06 18 15 13 09
  20954455.727       38356.877 7    249870.263 3
  21019419.750    -7004380.145 7  -5375635.921 3
  23803501.938     9629124.454 5   7413873.961 1
  23656557.125    -6043159.833 6  -4515711.930 1
  22568410.047   -11635138.350 6  -7805338.239 1
  23693350.531    -4732000.771 5  -3496528.612 1
 90 10 17 11 56 30.0000000  0  6 02 06 18 15 13 09
  20955544.703       44085.507 7    254334.143 3
  21014106.469    -7032300.147 7  -5397391.764 3
  23812849.078     9678238.250 5   7452144.453 1
  23653272.680    -6060433.873 6  -4529172.212 1
  22557677.984   -11691554.241 6  -7849298.655 1
  23683953.109    -4781397.346 5  -3535019.450 1
 90 10 17 11 56 45.0000000  0  6 02 06 18 15 13 09
  20956643.961       49863.415 7    258836.407 3
  21008804.773    -7060156.261 7  -5419097.821 3
  23822195.484     9727369.595 5   7490428.607 1
  23650007.992    -6077583.976 6  -4542535.926 1
  22546957.281   -11747886.902 6  -7893194.215 1
  23674550.906    -4830789.770 5  -3573507.031 1
 90 10 17 11 57  0.0000000  0  6 02 06 18 15 13 09
  20957751.750       55690.005 7    263376.607 3
  21003516.586    -7087948.920 7  -5440754.445 3
  23831549.234     9776517.556 5   7528725.729 1
  23646766.852    -6094610.471 6  -4555803.308 1
  22536253.508   -11804136.428 6  -7937025.014 1
  23665156.133    -4880178.395 5  -3611991.652 1
 90 10 17 11 57 15.0000000  0  6 02 06 18 15 13 09
  20958871.141       61566.740 7    267955.878 3
  20998239.859    -7115676.006 7  -5462359.955 3
  23840906.680     9825683.316 5   7567036.699 1
  23643551.164    -6111511.665 6  -4568973.058 1
  22525563.563   -11860300.932 6  -7980789.548 1
  23655755.633    -4929561.325 5  -3650471.849 1
 90 10 17 11 57 30.0000000  0  6 02 06 18 15 13 09
  20959998.148       67492.051 7    272573.002 3
  20992976.469    -7143338.802 7  -5483915.380 3
  23850265.391     9874865.176 5   7605360.207 1
  23640358.094    -6128288.752 6  -4582046.102 1
  22514893.961   -11916381.447 6  -8024488.648 1
  23646361.414    -4978939.930 5  -3688948.664 1
 90 10 17 11 57 45.0000000  0  6 02 06 18 15 13 09
  20961135.047       73464.373 7    277226.766 3
  20987724.656    -7170938.788 7  -5505421.864 3
  23859626.055     9924061.254 5   7643694.812 1
  23637191.992    -6144943.140 6  -4595023.531 1
  22504237.109   -11972379.080 6  -8068123.148 1
  23636966.250    -5028315.605 5  -3727423.191 1
 90 10 17 11 58  0.0000000  0  6 02 06 18 15 13 09
  20962281.930       79489.310 7    281921.518 3
  20982485.523    -7198469.931 7  -5526874.688 3
  23868991.656     9973276.908 5   7682044.666 1
  23634045.812    -6161468.851 6  -4607900.697 1
  22493598.500   -12028288.080 6  -8111688.602 1
  23627571.555    -5077682.560 5  -3765890.928 1
 90 10 17 11 58 15.0000000  0  6 02 06 18 15 13 09
  20963435.820       85559.543 7    286651.566 3
  20977257.680    -7225939.199 7  -5548279.302 3
  23878362.281    10022504.334 5   7720403.698 1
  23630923.453    -6177873.017 6  -4620683.142 1
  22482974.875   -12084115.702 6  -8155190.630 1
  23618174.398    -5127047.987 5  -3804357.469 1
 90 10 17 11 58 30.0000000  0  6 02 06 18 15 13 09
  20964600.523       91677.390 7    291418.719 3
  20972043.563    -7253344.044 7  -5569633.704 3
  23887732.164    10071745.466 5   7758773.404 1
  23627825.961    -6194153.055 6  -4633368.889 1
  22472367.594   -12139858.978 6  -8198626.940 1
  23608780.688    -5176409.282 5  -3842820.816 1
 90 10 17 11 58 45.0000000  0  6 02 06 18 15 13 09
  20965773.836       97843.679 7    296223.610 3
  20966839.766    -7280683.363 7  -5590937.057 3
  23897104.023    10121000.771 5   7797154.161 1
  23624750.391    -6210307.733 6  -4645956.935 1
  22461774.070   -12195516.764 6  -8241996.617 1
  23599389.328    -5225765.011 5  -3881279.791 1
 90 10 17 11 59  0.0000000  0  6 02 06 18 15 13 09
  20966956.828      104057.807 7    301065.787 3
  20961649.609    -7307957.356 7  -5612189.542 3
  23906479.273    10170269.454 5   7835545.330 1
  23621699.289    -6226337.743 5  -4658447.827 1
  22451200.844   -12251089.085 6  -8285299.724 1
  23589996.656    -5275115.931 5  -3919735.023 1
 90 10 17 11 59 15.0000000  0  6 02 06 18 15 13 09
  20968147.867      110319.775 7    305945.245 3
  20956472.617    -7335165.644 7  -5633390.811 3
  23915856.836    10219551.318 5   7873946.775 1
  23618671.695    -6242242.958 5  -4670841.509 1
  22440643.188   -12306575.673 7  -8328536.010 1
  23580609.609    -5324461.675 5  -3958186.219 1
 90 10 17 11 59 30.0000000  0  6 02 06 18 15 13 09
  20969349.781      116632.814 7    310864.485 3
  20951307.602    -7362304.985 7  -5654538.357 3
  23925235.492    10268849.145 5   7912360.658 1
  23615673.344    -6258019.443 6  -4683134.855 1
  22430100.883   -12361973.081 7  -8371702.799 1
  23571221.180    -5373798.997 5  -3996630.865 1
 90 10 17 11 59 45.0000000  0  6 02 06 18 15 13 09
  20970559.992      122993.989 7    315821.248 3
  20946156.047    -7389377.511 7  -5675633.842 3
  23934624.391    10318159.961 5   7950784.661 1
  23612696.313    -6273669.810 6  -4695329.928 1
  22419574.430   -12417283.557 7  -8414801.867 1
  23561830.359    -5423130.350 5  -4035070.823 1
 90 10 17 12  0  0.0000000  0  6 02 06 18 15 13 09
  20971779.906      129402.810 7    320815.126 3
  20941017.477    -7416383.537 7  -5696677.504 3
  23944009.117    10367483.150 5   7989218.317 1
  23609738.688    -6289194.458 6  -4707427.041 1
  22409066.898   -12472507.278 6  -8457833.310 1
  23552446.398    -5472455.983 5  -4073506.367 1
 90 10 17 12  0 15.0000000  0  6 02 06 18 15 13 09
  20973007.875      135857.355 7    325844.644 3
  20935892.391    -7443324.775 7  -5717670.657 3
  23953395.563    10416816.106 5   8027659.587 1
  23606807.531    -6304594.779 6  -4719427.287 1
  22398573.414   -12527645.870 6  -8500798.435 1
  23543063.547    -5521777.574 5  -4111938.754 1
 90 10 17 12  0 30.0000000  0  6 02 06 18 15 13 09
  20974245.891      142358.748 7    330910.664 3
  20930775.836    -7470199.689 7  -5738612.148 3
  23962785.422    10466159.914 5   8066109.308 1
  23603901.555    -6319869.643 6  -4731329.758 1
  22388098.453   -12582697.860 7  -8543696.082 1
  23533675.562    -5571093.753 5  -4150366.915 1
 90 10 17 12  0 45.0000000  0  6 02 06 18 15 13 09
  20975491.078      148907.853 7    336013.854 3
  20925674.336    -7497006.992 7  -5759500.966 3
  23972178.961    10515514.942 5   8104567.767 1
  23601021.336    -6335017.783 6  -4743133.497 1
  22377638.875   -12637661.711 7  -8586525.049 1
  23524290.680    -5620403.397 5  -4188790.018 1
 90 10 17 12  1  0.0000000  0  6 02 06 18 15 13 09
  20976745.539      155505.366 7    341154.768 3
  20920586.453    -7523745.849 7  -5780336.437 3
  23981573.078    10564881.702 5   8143035.381 1
  23598163.063    -6350038.270 6  -4754837.754 1
  22367194.648   -12692536.598 6  -8629284.685 1
  23514911.469    -5669705.692 5  -4227207.376 1
 90 10 17 12  1 15.0000000  0  6 02 06 18 15 13 09
  20978011.734      162148.941 7    346331.581 3
  20915509.828    -7550418.177 7  -5801120.066 3
  23990967.297    10614257.651 5   8181510.159 1
  23595325.859    -6364933.380 6  -4766444.328 1
  22356772.352   -12747324.510 6  -8671976.548 1
  23505530.477    -5719002.640 5  -4265620.567 1
 90 10 17 12  1 30.0000000  0  6 02 06 18 15 13 09
  20979284.852      168843.065 7    351547.776 3
  20910450.742    -7577019.048 7  -5821848.003 3
  24000364.898    10663646.954 5   8219995.300 1
  23592516.070    -6379698.035 6  -4777949.254 1
  22346360.367   -12802020.208 6  -8714596.551 1
  23496152.367    -5768289.459 5  -4304025.864 1
 90 10 17 12  1 45.0000000  0  6 02 06 18 15 13 09
  20980568.375      175583.139 7    356799.770 3
  20905400.305    -7603553.106 7  -5842523.867 3
  24009764.328    10713044.520 5   8258486.911 1
  23589732.609    -6394336.712 6  -4789356.000 1
  22335970.313   -12856628.356 6  -8757148.340 1
  23486773.648    -5817570.698 5  -4342426.819 1
 90 10 17 12  2  0.0000000  0  6 02 06 18 15 13 09
  20981859.344      182369.272 7    362087.663 4
  20900363.469    -7630019.713 7  -5863147.166 3
  24019167.039    10762450.042 5   8296984.714 1
  23586970.867    -6408848.937 6  -4800664.217 1
  22325595.125   -12911148.438 6  -8799631.506 1
  23477398.852    -5866845.931 5  -4380823.059 1
 90 10 17 12  2 15.0000000  0  6 02 06 18 15 13 09
  20983159.664      189204.633 7    367413.916 4
  20895341.406    -7656415.363 7  -5883715.189 3
  24028570.953    10811866.748 5   8335491.220 1
  23584232.641    -6423231.489 5  -4811871.408 1
  22315237.531   -12965576.542 7  -8842042.990 1
  23468020.859    -5916111.647 5  -4419211.914 1
 90 10 17 12  2 30.0000000  0  6 02 06 18 15 13 09
  20984469.578      196087.940 7    372777.533 4
  20890329.695    -7682740.721 7  -5904228.439 3
  24037979.195    10861292.831 5   8374005.042 1
  23581519.195    -6437485.590 6  -4822978.470 1
  22304897.328   -13019913.711 7  -8884383.643 1
  23458649.398    -5965368.827 5  -4457594.123 1
 90 10 17 12  2 45.0000000  0  6 02 06 18 15 13 09
  20985789.313      203020.768 7    378179.733 4
  20885334.961    -7708994.577 7  -5924685.980 3
  24047384.461    10910729.563 5   8412527.145 1
  23578835.195    -6451609.345 6  -4833983.996 1
  22294575.578   -13074158.078 7  -8926651.966 1
  23449280.242    -6014615.996 5  -4495968.539 1
 90 10 17 12  3  0.0000000  0  6 02 06 18 15 13 09
  20987118.922      210006.325 7    383623.022 4
  20880354.086    -7735172.920 7  -5945084.696 3
  24056794.586    10960180.212 5   8451060.127 1
  23576171.352    -6465599.221 6  -4844885.190 1
  22284271.547   -13128306.024 7  -8968845.151 1
  23439907.898    -6063849.391 5  -4534332.225 1
 90 10 17 12  3 15.0000000  0  6 02 06 18 15 13 09
  20988457.969      217040.638 7    389104.307 4
  20875386.773    -7761279.528 7  -5965427.508 3
  24066205.523    11009640.148 5   8489600.342 1
  23573532.922    -6479458.698 6  -4855684.773 1
  22273985.305   -13182361.037 7  -9010965.918 1
  23430540.266    -6113072.685 5  -4572688.024 1
 90 10 17 12  3 30.0000000  0  6 02 06 18 15 13 09
  20989805.469      224123.401 7    394623.346 4
  20870432.391    -7787314.363 7  -5985714.386 3
  24075619.320    11059108.849 5   8528147.380 1
  23570922.094    -6493188.137 6  -4866383.018 1
  22263717.844   -13236323.107 7  -9053014.278 1
  23421174.859    -6162286.235 5  -4611036.234 1
 90 10 17 12  3 45.0000000  0  6 02 06 18 15 13 09
  20991161.836      231252.555 7    400178.533 4
  20865490.898    -7813279.174 7  -6005946.697 3
  24085032.992    11108583.936 5   8566699.404 1
  23568332.352    -6506789.476 6  -4876981.444 1
  22253467.336   -13290194.074 7  -9094991.632 1
  23411813.609    -6211491.683 5  -4649378.154 1
 90 10 17 12  4  0.0000000  0  6 02 06 18 15 13 09
  20992527.359      238429.679 7    405771.101 4
  20860564.281    -7839171.943 7  -6026122.877 3
  24094449.359    11158067.072 5   8605257.661 1
  23565770.180    -6520260.596 6  -4887478.411 1
  22243232.281   -13343972.041 7  -9136896.528 1
  23402453.813    -6260687.252 5  -4687712.373 1
 90 10 17 12  4 15.0000000  0  6 02 06 18 15 13 09
  20993901.695      245652.968 7    411399.636 4
  20855649.648    -7864994.307 7  -6046244.185 3
  24103870.727    11207555.794 5   8643820.286 1
  23563228.148    -6533603.096 6  -4897875.136 1
  22233016.664   -13397658.488 7  -9178730.103 1
  23393092.570    -6309874.542 5  -4726040.129 1
 90 10 17 12  4 30.0000000  0  6 02 06 18 15 13 09
  20995285.836      252925.450 7    417066.506 4
  20850749.289    -7890743.007 7  -6066308.091 3
  24113289.547    11257052.777 5   8682389.330 1
  23560718.070    -6546813.770 6  -4908169.166 1
  22222817.234   -13451249.871 7  -9220489.614 1
  23383733.820    -6359050.081 5  -4764358.724 1
 90 10 17 12  4 45.0000000  0  6 02 06 18 15 13 09
  20996678.609      260242.928 7    422768.433 4
  20845864.164    -7916421.521 7  -6086317.316 3
  24122704.461    11306553.799 5   8720961.538 1
  23558224.125    -6559896.485 5  -4918363.490 1
  22212637.445   -13504749.792 7  -9262177.856 1
  23374376.719    -6408217.816 5  -4802671.222 1
 90 10 17 12  5  0.0000000  0  6 02 06 18 15 13 09
  20998079.234      267605.534 7    428505.539 4
  20840990.672    -7942029.488 7  -6106271.565 3
  24132124.148    11356058.556 5   8759536.675 1
  23555762.617    -6572851.157 6  -4928458.022 1
  22202472.914   -13558157.906 7  -9303794.555 1
  23365021.836    -6457377.342 5  -4840977.348 1
 90 10 17 12  5 15.0000000  0  6 02 06 18 15 13 09
  20999490.219      275017.333 7    434280.965 3
  20836132.414    -7967562.600 7  -6126167.486 3
  24141548.961    11405570.813 5   8798117.671 1
  23553320.125    -6585673.070 6  -4938449.119 1
  22192330.297   -13611469.645 7  -9345336.156 1
  23355669.750    -6506524.296 5  -4879273.655 1
 90 10 17 12  5 30.0000000  0  6 02 06 18 15 13 09
  21000908.531      282474.656 7    440091.886 3
  20831285.188    -7993024.365 7  -6146007.818 3
  24150969.727    11455086.484 5   8836701.318 1
  23550903.617    -6598365.981 6  -4948339.685 1
  22182201.578   -13664688.692 7  -9386805.523 1
  23346320.375    -6555662.360 5  -4917563.024 1
 90 10 17 12  5 45.0000000  0  6 02 06 18 15 13 09
  21002336.313      289975.268 7    445936.531 3
  20826454.883    -8018416.485 7  -6165793.885 3
  24160396.109    11504603.300 5   8875285.848 1
  23548515.180    -6610931.691 6  -4958131.134 1
  22172091.297   -13717816.541 7  -9428203.839 1
  23336970.141    -6604793.378 5  -4955846.923 1
 90 10 17 12  6  0.0000000  0  6 02 06 18 15 13 09
  21003771.883      297520.818 7    451816.175 3
  20821635.492    -8043737.324 7  -6185524.408 3
  24169820.297    11554122.282 5   8913872.081 1
  23546150.992    -6623368.476 6  -4967822.133 1
  22161998.500   -13770851.662 7  -9469529.900 1
  23327622.391    -6653915.680 5  -4994124.024 1
 90 10 17 12  6 15.0000000  0  6 02 06 18 15 13 09
  21005216.438      305114.595 7    457733.379 3
  20816833.000    -8068983.235 7  -6205196.545 3
  24179243.305    11603646.408 5   8952462.274 1
  23543805.055    -6635673.221 6  -4977410.225 1
  22151926.984   -13823790.249 7  -9510780.728 1
  23318275.828    -6703025.631 5  -5032391.482 1
 90 10 17 12  6 30.0000000  0  6 02 06 18 15 13 09
  21006669.188      312754.506 7    463686.548 3
  20812040.703    -8094155.551 7  -6224811.325 3
  24188666.734    11653173.446 5   8991054.778 1
  23541488.539    -6647847.090 6  -4986896.336 1
  22141870.781   -13876633.627 7  -9551957.375 1
  23308933.930    -6752124.830 5  -5070650.561 1
 90 10 17 12  6 45.0000000  0  6 02 06 18 15 13 09
  21008133.141      320439.397 7    469674.754 3
  20807266.516    -8119255.269 7  -6244369.547 3
  24198092.586    11702702.316 5   9029648.692 1
  23539198.203    -6659891.274 6  -4996281.430 1
  22131831.805   -13929382.811 7  -9593060.631 1
  23299591.266    -6801214.375 5  -5108902.122 1
 90 10 17 12  7  0.0000000  0  6 02 06 18 15 13 09
  21009604.133      328170.133 7    475698.699 3
  20802503.703    -8144281.363 7  -6263870.396 3
  24207516.250    11752233.368 5   9068244.316 1
  23536925.594    -6671804.660 6  -5005564.564 1
  22121811.102   -13982036.519 7  -9634089.486 1
  23290255.016    -6850293.055 5  -5147145.239 1
 90 10 17 12  7 15.0000000  0  6 02 06 18 15 13 09
  21011082.945      335945.772 7    481757.630 3
  20797755.945    -8169234.468 7  -6283314.367 3
  24216941.781    11801765.370 5   9106840.655 1
  23534692.148    -6683588.103 6  -5014746.458 1
  22111809.461   -14034595.542 7  -9675044.552 1
  23280916.109    -6899361.557 5  -5185380.425 1
 90 10 17 12  7 30.0000000  0  6 02 06 18 15 13 09
  21012572.367      343767.175 7    487852.231 3
  20793020.445    -8194113.273 7  -6302700.445 3
  24226367.211    11851298.689 5   9145438.044 1
  23532471.453    -6695240.548 6  -5023826.280 1
  22101827.984   -14087058.556 7  -9715924.811 1
  23271579.844    -6948418.744 5  -5223606.777 1
 90 10 17 12  7 45.0000000  0  6 02 06 18 15 13 09
  21014068.594      351633.919 7    493982.153 3
  20788299.594    -8218917.810 7  -6322028.644 3
  24235794.477    11900832.750 5   9184035.990 1
  23530282.984    -6706761.981 6  -5032804.023 1
  22091862.438   -14139425.604 7  -9756730.303 1
  23262247.313    -6997464.863 5  -5261824.499 1
 90 10 17 12  8  0.0000000  0  6 02 06 18 15 13 09
  21015573.805      359547.107 7    500148.271 3
  20783594.047    -8243646.987 7  -6341298.131 3
  24245221.383    11950368.165 5   9222635.010 1
  23528111.656    -6718151.244 6  -5041678.772 1
  22081915.438   -14191695.417 7  -9797460.012 1
  23252914.992    -7046498.708 5  -5300032.689 1
 90 10 17 12  8 15.0000000  0  6 02 06 18 15 13 09
  21017089.813      367505.678 7    506349.746 3
  20778903.578    -8268301.139 7  -6360509.156 3
  24254648.461    11999903.823 5   9261234.201 1
  23525966.563    -6729409.116 6  -5050451.130 1
  22071986.227   -14243868.341 7  -9838114.231 1
  23243585.125    -7095520.798 5  -5338231.715 1
 90 10 17 12  8 30.0000000  0  6 02 06 18 15 13 09
  21018612.438      375513.233 7    512589.389 3
  20774227.109    -8292876.602 7  -6379658.866 3
  24264073.695    12049442.779 5   9299835.982 1
  23523855.641    -6740531.983 6  -5059118.299 1
  22062078.188   -14295940.647 7  -9878690.057 1
  23234258.688    -7144527.462 5  -5376418.712 1
 90 10 17 12  8 45.0000000  0  6 02 06 18 15 13 09
  21020146.477      383565.131 7    518863.601 3
  20769563.578    -8317377.723 7  -6398750.644 3
  24273501.250    12098980.449 5   9338436.740 1
  23521759.188    -6751524.275 6  -5067683.712 1
  22052185.914   -14347916.538 7  -9919190.736 1
  23224935.414    -7193523.018 5  -5414597.059 1
 90 10 17 12  9  0.0000000  0  6 02 06 18 15 13 09
  21021687.156      391663.019 7    525173.645 3
  20764915.672    -8341802.299 7  -6417782.781 3
  24282926.891    12148518.110 5   9377037.493 1
  23519695.266    -6762383.665 6  -5076145.574 1
  22042316.836   -14399793.881 7  -9959614.629 1
  23215615.625    -7242505.442 5  -5452765.165 1
 90 10 17 12  9 15.0000000  0  6 02 06 18 15 13 09
  21023236.414      399806.656 7    531519.340 3
  20760282.664    -8366150.199 7  -6436755.181 3
  24292355.070    12198055.063 5   9415637.708 1
  23517653.703    -6773110.498 6  -5084504.144 1
  22032462.258   -14451572.802 7  -9999961.826 1
  23206300.773    -7291474.731 5  -5490923.038 1
 90 10 17 12  9 30.0000000  0  6 02 06 18 15 13 09
  21024794.656      407995.723 7    537900.426 3
  20755665.344    -8390421.644 7  -6455667.998 3
  24301781.664    12247590.744 5   9454236.948 1
  23515639.547    -6783704.905 6  -5092759.543 1
  22022627.984   -14503253.153 7 -10040232.230 1
  23196983.063    -7340431.104 5  -5529070.857 1
 90 10 17 12  9 45.0000000  0  6 02 06 18 15 13 09
  21026361.805      416232.454 7    544318.655 3
  20751060.469    -8414614.367 7  -6474519.467 3
  24311209.555    12297126.850 5   9492836.516 1
  23513642.445    -6794164.658 5  -5100910.001 1
  22012811.914   -14554832.591 7 -10080423.981 1
  23187670.992    -7389372.346 5  -5567206.877 1
 90 10 17 12 10  0.0000000  0  6 02 06 18 15 13 09
  21027938.852      424515.211 8    550772.761 3
  20746471.047    -8438729.488 7  -6493310.472 3
  24320634.469    12346661.431 5   9531434.890 1
  23511682.625    -6804491.205 6  -5108956.640 1
  22003015.477   -14606312.231 7 -10120537.982 1
  23178357.648    -7438299.481 5  -5605331.911 1
 90 10 17 12 10 15.0000000  0  6 02 06 18 15 13 09
  21029524.523      432844.822 8    557263.366 3
  20741897.516    -8462765.723 7  -6512039.999 3
  24330060.695    12396195.154 5   9570032.610 1
  23509741.398    -6814683.140 6  -5116898.416 1
  21993238.008   -14657690.861 7 -10160573.269 1
  23169054.422    -7487211.474 5  -5643445.155 1
 90 10 17 12 10 30.0000000  0  6 02 06 18 15 13 09
  21031118.016      441221.733 8    563790.827 4
  20737340.078    -8486722.329 7  -6530707.486 3
  24339485.906    12445728.593 5   9608630.111 1
  23507828.781    -6824740.061 5  -5124734.974 1
  21983480.359   -14708967.889 7 -10200529.375 1
  23159744.664    -7536107.488 5  -5681545.918 1
 90 10 17 12 10 45.0000000  0  6 02 06 18 15 13 09
  21032721.164      449645.859 8    570355.079 3
  20732794.453    -8510598.929 7  -6549312.621 3
  24348908.875    12495261.160 5   9647226.908 1
  23505943.211    -6834661.645 6  -5132466.072 1
  21973742.875   -14760142.601 7 -10240405.771 1
  23150447.242    -7584987.378 5  -5719634.127 1
 90 10 17 12 11  0.0000000  0  6 02 06 18 15 13 09
  21034332.344      458115.446 7    576954.764 3
  20728266.266    -8534397.083 7  -6567856.633 3
  24358335.602    12544790.494 4   9685821.177 1
  23504078.422    -6844449.680 5  -5140093.111 1
  21964023.391   -14811216.592 7 -10280203.669 1
  23141143.180    -7633852.826 5  -5757711.100 1
 90 10 17 12 11 15.0000000  0  6 02 06 18 15 13 09
  21035951.828      466630.158 7    583589.610 4
  20723753.039    -8558116.750 7  -6586339.491 3
  24367761.852    12594316.333 4   9724412.738 1
  23502240.414    -6854104.082 6  -5147616.007 1
  21954324.227   -14862189.961 7 -10319923.171 1
  23131851.602    -7682703.528 5  -5795776.562 1
 90 10 17 12 11 30.0000000  0  6 02 06 18 15 13 09
  21037581.188      475190.817 7    590260.261 4
  20719253.719    -8581757.116 7  -6604760.558 3
  24377182.969    12643839.024 4   9763001.848 1
  23500431.508    -6863624.199 6  -5155034.280 1
  21944643.828   -14913061.681 7 -10359563.452 1
  23122558.953    -7731538.865 5  -5833830.060 1
 90 10 17 12 11 45.0000000  0  6 02 06 18 15 13 09
  21039218.859      483795.855 7    596965.491 4
  20714770.031    -8605319.233 7  -6623120.646 3
  24386605.141    12693356.672 4   9801586.988 1
  23498645.531    -6873011.134 6  -5162348.767 1
  21934982.906   -14963832.826 7 -10399125.374 1
  23113267.039    -7780360.088 5  -5871872.558 1
 90 10 17 12 12  0.0000000  0  6 02 06 18 15 13 09
  21040864.609      492443.806 7    603704.144 4
  20710301.648    -8628804.145 7  -6641420.571 3
  24396029.813    12742867.506 4   9840166.833 1
  23496881.633    -6882266.294 6  -5169560.581 1
  21925339.953   -15014504.751 7 -10438609.981 1
  23103979.000    -7829168.305 5  -5909904.927 1
 90 10 17 12 12 15.0000000  0  6 02 06 18 15 13 09
  21042518.695      501139.289 7    610479.859 4
  20705848.922    -8652207.231 7  -6659656.730 3
  24405454.797    12792375.954 4   9878744.828 1
  23495142.875    -6891384.800 6  -5176665.909 1
  21915716.953   -15065072.429 7 -10478013.361 1
  23094696.711    -7877958.410 5  -5947923.187 1
 90 10 17 12 12 30.0000000  0  6 02 06 18 15 13 09
  21044181.047      509877.531 7    617288.905 4
  20701409.781    -8675532.658 7  -6677832.387 3
  24414869.977    12841876.917 4   9917316.988 1
  23493435.227    -6900371.565 6  -5183668.581 1
  21906111.203   -15115540.230 7 -10517338.912 1
  23085415.922    -7926735.299 5  -5985931.137 1
 90 10 17 12 12 45.0000000  0  6 02 06 18 15 13 09
  21045853.078      518660.432 7    624132.744 3
  20696985.516    -8698778.274 7  -6695945.846 3
  24424284.188    12891371.882 4   9955884.508 1
  23491746.391    -6909224.362 6  -5190566.857 1
  21896528.945   -15165905.598 7 -10556584.640 1
  23076132.742    -7975496.595 5  -6023926.950 1
 90 10 17 12 13  0.0000000  0  6 02 06 18 15 13 09
  21047532.703      527488.290 7    631011.605 4
  20692576.805    -8721943.352 7  -6713996.556 3
  24433707.594    12940860.988 4   9994447.435 1
  23490094.539    -6917942.687 6  -5197360.355 1
  21886963.438   -15216168.283 7 -10595750.369 1
  23066856.891    -8024241.660 5  -6061910.108 1
 90 10 17 12 13 15.0000000  0  6 02 06 18 15 13 09
  21049222.336      536364.811 7    637928.378 3
  20688186.922    -8745023.701 7  -6731981.243 3
  24443127.555    12990347.766 4
  23488458.664    -6926522.223 6  -5204045.714 1
  21877419.891   -15266323.880 7 -10634832.650 1
  23057587.508    -8072966.561 5  -6099877.539 1
 90 10 17 12 13 30.0000000  0  6 02 06 18 15 13 09
  21050919.820      545289.979 7    644883.062 3
  20683809.570    -8768019.561 7  -6749900.083 3
  24452540.570    13039831.633 4
  23486852.148    -6934963.415 6  -5210623.239 1
  21867895.875   -15316372.469 7 -10673831.532 1
  23048316.781    -8121671.097 5  -6137829.099 1
 90 10 17 12 13 45.0000000  0  6 02 06 18 15 13 09
  21052627.453      554261.193 7    651873.627 3
  20679448.750    -8790932.951 7  -6767754.652 3
  24461955.516    13089310.086 4
  23485272.836    -6943268.453 6  -5217094.685 1
  21858392.242   -15366316.034 7 -10712748.596 1
  23039048.797    -8170357.373 5  -6175766.446 1
 90 10 17 12 14  0.0000000  0  6 02 06 18 15 13 09
  21054342.938      563277.192 7    658899.098 3
  20675104.039    -8813764.676 7  -6785545.586 3
  24471370.500    13138781.056 4        -0.11011
  23483717.734    -6951438.139 6  -5223460.687 1
  21848906.984   -15416155.831 7 -10751584.789 1
  23029787.234    -8219026.894 5  -6213690.724 1
 90 10 17 12 14 15.0000000  0  6 02 06 18 15 13 09
  21056067.938      572338.906 7    665960.191 3
  20670775.445    -8836513.794 7  -6803272.158 3
  24480780.391    13188245.384 4     38543.500 1
  23482190.930    -6959471.899 6  -5229720.734 1
  21839443.438   -15465890.411 7 -10790338.988 1
  23020534.266    -8267678.182 5  -6251600.810 1
 90 10 17 12 14 30.0000000  0  6 02 06 18 15 13 09
  21057801.188      581447.104 7    673057.485 3
  20666461.961    -8859179.042 7  -6820933.377 3
  24490190.828    13237703.463 4     77082.271 1
  23480688.898    -6967368.367 6  -5235873.802 1
  21829998.672   -15515518.862 7 -10829010.494 1
  23011278.258    -8316310.091 5  -6289495.807 1
 90 10 17 12 14 45.0000000  0  6 02 06 18 15 13 09
  21059543.602      590600.486 7    680189.991 3
  20662164.078    -8881761.380 7  -6838530.002 3
  24499602.187    13287154.097 4    115615.226 1
  23479211.539    -6975128.920 6  -5241920.984 1
  21820575.789   -15565041.990 7 -10867599.939 1
  23002028.297    -8364923.785 5  -6327376.593 1
 90 10 17 12 15  0.0000000  0  6 02 06 18 15 13 09
  21061292.750      599796.337 7    687355.602 3
  20657883.508    -8904263.232 7  -6856063.923 3
  24509012.125    13336594.097 4    154139.871 1
  23477755.867    -6982755.816 6  -5247863.999 1
  21811170.688   -15614462.077 7 -10906109.101 1
  22992777.984    -8413521.637 5  -6365245.005 1
 90 10 17 12 15 15.0000000  0  6 02 06 18 15 13 09
  21063051.656      609033.918 7    694553.725 3
  20653616.922    -8926685.144 7  -6873535.547 3
  24518415.914    13386022.273 4    192655.358 1
  23476333.211    -6990249.773 6  -5253703.425 1
  21801786.828   -15663779.694 7 -10944538.411 1
  22983535.594    -8462104.448 5  -6403101.741 1
 90 10 17 12 15 30.0000000  0  6 02 06 18 15 13 09
  21064816.648      618314.940 7    701785.682 3
  20649366.422    -8949024.976 7  -6890943.206 3
  24527819.445    13435440.031 5    231162.702 1
  23474935.117    -6997609.131 6  -5259437.974 1
  21792421.055   -15712992.865 7 -10982886.325 1
  22974290.656    -8510669.734 5  -6440944.808 1
 90 10 17 12 15 45.0000000  0  6 02 06 18 15 13 09
  21066593.406      627642.564 7    709053.954 3
  20645129.133    -8971279.239 7  -6908284.187 3
  24537221.563    13484850.262 5    269664.173 1
  23473557.680    -7004830.622 6  -5265065.118 1
  21783077.422   -15762097.852 7 -11021149.946 1
  22965057.281    -8559214.186 5  -6478771.650 1
 90 10 17 12 16  0.0000000  0  6 02 06 18 15 13 09
  21068375.195      637015.738 7    716357.724 3
  20640912.969    -8993448.584 7  -6925559.002 3
  24546624.477    13534251.732 5    308158.813 1
  23472210.664    -7011915.030 6  -5270585.419 1
  21773753.367   -15811095.575 7 -11059329.977 1
  22955822.250    -8607738.690 5  -6516582.938 1
 90 10 17 12 16 15.0000000  0  6 02 06 18 15 13 09
  21070167.414      646429.490 7    723693.118 3
  20636707.648    -9015537.940 7  -6942771.484 3
  24556022.711    13583639.131 5    346642.509 1
  23470887.820    -7018866.941 6  -5276002.471 1
  21764448.570   -15859990.645 7 -11097430.031 1
  22946587.820    -8656248.110 5  -6554382.468 1
 90 10 17 12 16 30.0000000  0  6 02 06 18 15 13 09
  21071966.438      655885.423 7    731061.387 3
  20632520.539    -9037545.145 7  -6959919.941 3
  24565418.375    13633013.776 5    385116.273 1
  23469587.609    -7025684.862 6  -5281315.144 1
  21755163.500   -15908781.235 7 -11135448.659 1
  22937361.750    -8704740.305 5  -6592168.589 1
 90 10 17 12 16 45.0000000  0  6 02 06 18 15 13 09
  21073773.531      665386.064 7    738464.497 3
  20628347.852    -9059467.757 7  -6977002.489 3
  24574811.695    13682377.775 5    423581.715 1
  23468317.359    -7032366.110 6  -5286521.311 1
  21745898.836   -15957464.555 7 -11173383.693 1
  22928140.109    -8753212.710 5  -6629939.288 1
 90 10 17 12 17  0.0000000  0  6 02 06 18 15 13 09
  21075592.180      674935.758 7    745905.829 3
  20624193.375    -9081300.685 7  -6994015.154 3
  24584204.570    13731735.210 5    462042.062 1
  23467069.328    -7038906.186 6  -5291617.462 1
  21736658.344   -16006035.625 7
  22918923.625    -8801660.531 5
 90 10 17 12 17 15.0000000  0  6 02 06 18 15 13 09
  21077417.797      684529.358 7    753381.376 3
  20620056.328    -9103048.790 7  -7010961.724 3
  24593594.578    13781080.696 5    500493.085 1
  23465854.031    -7045310.033 6  -5296607.465 1
  21727433.469   -16054499.581 7
  22909704.297    -8850088.590 5
 90 10 17 12 17 30.0000000  0  6 02 06 18 15 13 09
  21079250.992      694167.970 7    760891.982 3
  20615932.906    -9124710.850 7  -7027841.252 3
  24602982.414    13830415.233 5    538935.596 1
  23464660.805    -7051576.287 6  -5301490.248 1
  21718233.219   -16102854.919 7
  22900494.359    -8898495.683 6
 90 10 17 12 17 45.0000000  0  6 02 06 18 15 13 09
  21081094.906      703852.344 7    768438.255 3
  20611827.820    -9146285.577 7  -7044652.728 3
  24612369.016    13879739.209 5    577369.840 1
  23463499.617    -7057703.970 6  -5306265.061 1
  21709052.789   -16151100.453 7 -11324268.795 1
  22891286.398    -8946880.449 5  -6780849.133 1
 90 10 17 12 18  0.0000000  0  6 02 06 18 15 13 09
  21082945.688      713583.481 7    776020.971 3
  20607739.648    -9167771.812 7  -7061395.262 3
  24621751.836    13929053.169 5    615796.312 1
  23462358.227    -7063692.108 6  -5310931.127 1
  21699892.953   -16199234.932 7 -11361776.176 1
  22882085.031    -8995241.912 5  -6818533.368 1
 90 10 17 12 18 15.0000000  0  6 02 06 18 15 13 09
  21084805.820      723361.244 7    783640.000 3
  20603667.195    -9189169.455 7  -7078068.749 3
  24631134.438    13978356.782 4    654214.673 1
  23461245.586    -7069540.674 6  -5315488.449 1
  21690753.531   -16247258.069 7 -11399196.794 1
  22872880.219    -9043579.976 5  -6856199.361 1
 90 10 17 12 18 30.0000000  0  6 02 06 18 15 13 09
  21086674.813      733181.758 7    791292.345 3
  20599611.742    -9210481.887 7  -7094675.837 3
  24640511.602    14027646.110 4    692621.948 1
  23460155.516    -7075253.472 6  -5319939.988 1
  21681636.234   -16295173.531 7 -11436533.505 1
  22863688.633    -9091898.011 5  -6893849.733 1
 90 10 17 12 18 45.0000000  0  6 02 06 18 15 13 09
  21088551.711      743047.081 7    798979.603 3
  20595573.086    -9231706.814 7  -7111214.725 3
  24649888.617    14076922.578 3    731019.187 1
  23459097.008    -7080828.303 6  -5324283.995 1
  21672539.219   -16342979.232 7 -11473784.692 1
  22854499.625    -9140193.930 5  -6931482.892 1
 90 10 17 12 19  0.0000000  0  6 02 06 18 15 13 09
  21090437.828      752955.962 7    806700.807 3
  20591549.695    -9252845.498 7  -7127686.410 3
  24659262.516    14126184.328 3    769404.952 1
  23458061.078    -7086266.492 6  -5328521.539 1
  21663463.023   -16390676.070 7 -11510951.060 1
  22845309.914    -9188468.704 5  -6969099.589 1
 90 10 17 12 19 15.0000000  0  6 02 06 18 15 13 09
  21092331.453      762908.722 7    814456.207 3
  20587544.875    -9273897.195 7  -7144090.319 3
  24668637.695    14175431.644 4    807779.476 1
  23457055.625    -7091567.415 6  -5332652.135 1
  21654407.539   -16438263.450 7 -11548032.120 1
  22836131.211    -9236721.851 5  -7006699.416 1
 90 10 17 12 19 30.0000000  0  6 02 06 18 15 13 09
  21094235.102      772911.164 7    822250.321 3
  20583555.672    -9294855.537 7  -7160421.483 3
  24678005.758    14224670.432 4    846147.336 1
  23456068.734    -7096724.796 5  -5336670.882 1
  21645372.602   -16485735.024 7 -11585022.945 1
  22826951.523    -9284946.993 5  -7044277.426 1
 90 10 17 12 19 45.0000000  0  6 02 06 18 15 13 09
  21096146.367      782956.305 7    830077.715 4
  20579585.023    -9315727.448 7  -7176685.305 3
  24687373.453    14273892.833 3    884502.429 1
  23455121.414    -7101746.003 6  -5340583.501 1
  21636360.453   -16533097.846 7 -11621929.037 1
  22817780.992    -9333151.199 6  -7081839.137 1
 90 10 17 12 20  0.0000000  0  6 02 06 18 15 13 09
  21098065.523      793043.370 7    837937.778 3
  20575629.078    -9336513.249 7  -7192882.040 3
  24696736.109    14323098.159 3    922844.231 1
  23454185.297    -7106631.399 6  -5344390.326 1
  21627367.211   -16580352.137 7 -11658750.554 1
  22808609.617    -9381334.530 6  -7119384.582 1
 90 10 17 12 20 15.0000000  0  6 02 06 18 15 13 09
  21099993.109      803175.258 7    845832.769 3
  20571690.758    -9357209.794 7  -7209009.227 3
  24706093.500    14372288.880 3    961174.664 1
  23453280.797    -7111378.309 6  -5348089.198 1
  21618396.602   -16627494.510 7 -11695484.867 1
  22799446.711    -9429494.124 5  -7156911.524 1
 90 10 17 12 20 30.0000000  0  6 02 06 18 15 13 09
  21101929.305      813348.857 7    853760.246 3
  20567768.398    -9377819.901 7  -7225069.053 3
  24715456.469    14421461.594 3    999491.049 1
  23452406.172    -7115989.392 6  -5351682.238 1
  21609446.953   -16674527.761 7 -11732134.146 1
  22790286.594    -9477632.710 6  -7194422.086 1
 90 10 17 12 20 45.0000000  0  6 02 06 18 15 13 09
  21103873.094      823563.068 7    861719.370 3
  20563862.805    -9398344.421 7  -7241062.189 3
  24724811.273    14470615.278 4   1037792.627 1
  23451552.477    -7120465.773 6  -5355170.330 1
  21600517.148   -16721452.860 7 -11768699.150 1
  22781130.422    -9525751.051 6  -7231916.879 1
 90 10 17 12 21  0.0000000  0  6 02 06 18 15 13 09
  21105826.047      833819.635 7    869711.508 3
  20559972.867    -9418781.027 7  -7256986.814 3
  24734162.414    14519751.332 3   1076080.429 1
  23450728.070    -7124805.469 6  -5358551.883 1
  21591610.125   -16768267.714 7 -11805178.248 1
  22771976.313    -9573847.255 6  -7269394.425 1
 90 10 17 12 21 15.0000000  0  6 02 06 18 15 13 09
  21107785.055      844117.581 7    877735.898 3
  20556100.930    -9439130.543 7  -7272843.584 3
  24743501.398    14568868.063 3   1114353.252 1
  23449927.727    -7129009.323 6  -5361827.615 1
  21582720.766   -16814972.939 7 -11841571.919 1
  22762826.484    -9621921.801 5  -7306855.070 1
 90 10 17 12 21 30.0000000  0  6 02 06 18 15 13 09
  21109750.109      854443.380 7    885781.979 3
  20552244.578    -9459406.289 7  -7288642.859 3
  24752845.438    14617951.738 3   1152600.252 1
  23449149.313    -7133090.540 6  -5365007.775 1
  21573852.008   -16861581.870 7 -11877890.556 1
  22753681.438    -9669987.976 5  -7344309.216 1
 90 10 17 12 21 45.0000000  0  6 02 06 18 15 13 09
  21111723.250      864811.449 7    893860.999 3
  20548400.320    -9479593.497 7  -7304373.148 3
  24762181.734    14667016.520 3   1190832.505 1
  23448404.336    -7137034.799 6  -5368081.205 1
  21565003.219   -16908079.974 7 -11914122.838 1
  22744539.484    -9718031.327 6  -7381745.585 1
 90 10 17 12 22  0.0000000  0  6 02 06 18 15 13 09
  21113705.555      875227.287 7    901977.225 3
  20544577.945    -9499686.408 7  -7320029.961 3
  24771515.625    14716067.518 4   1229054.079 1
  23447676.258    -7140836.721 6  -5371043.759 1
  21556176.398   -16954461.298 7 -11950264.120 1
  22735403.273    -9766045.904 6  -7419159.532 1
 90 10 17 12 22 15.0000000  0  6 02 06 18 15 13 09
  21115693.445      885677.322 7    910120.092 3
  20540769.359    -9519698.141 7  -7335623.505 3
  24780842.875    14765091.127 4   1267254.291 1
  23446976.789    -7144509.574 6  -5373905.724 1
  21547370.844   -17000739.127 7 -11986324.758 1
  22726265.727    -9814045.021 6  -7456561.422 1
 90 10 17 12 22 30.0000000  0  6 02 06 18 15 13 09
  21117691.180      896172.361 7    918298.029 3
  20536980.289    -9539617.836 7  -7351145.335 3
  24790169.922    14814097.768 4   1305441.275 1
  23446305.547    -7148042.272 6  -5376658.456 1
  21538587.188   -17046902.421 7 -12022296.147 1
  22717137.695    -9862017.773 6  -7493942.761 1
 90 10 17 12 22 45.0000000  0  6 02 06 18 15 13 09
  21119695.320      906702.648 7    926503.445 3
  20533203.578    -9559454.882 7  -7366602.768 3
  24799487.078    14863077.264 4   1343607.102 1
  23445658.336    -7151444.962 6  -5379309.909 1
  21529821.695   -17092960.805 7 -12058185.788 1
  22708016.898    -9909973.539 6  -7531310.870 1
 90 10 17 12 23  0.0000000  0  6 02 06 18 15 13 09
  21121704.484      917270.309 7    934737.982 3
  20529445.672    -9579206.680 7  -7381993.782 3
  24808809.039    14912031.453 4   1381753.221 1
  23445033.047    -7154714.990 5  -5381857.983 1
  21521077.789   -17138911.627 7 -12093991.619 1
  22698893.008    -9957909.489 6  -7568663.566 1
 90 10 17 12 23 15.0000000  0  5 02 06 15 13 09
  21123726.945      927886.245 7    943010.149 3
  20525704.883    -9598862.153 7  -7397309.739 3
  23444440.805    -7157841.679 5  -5384294.365 1
  21512356.906   -17184743.825 7 -12129705.013 1
  22689773.602   -10005815.051 6  -7605992.554 1
 90 10 17 12 23 30.0000000  0  5 02 06 15 13 09
  21125756.242      938556.376 7    951324.520 3
  20521984.391    -9618414.777 7  -7412545.555 3
  23443873.758    -7160818.689 5  -5386614.125 1
  21503658.633   -17230450.889 7 -12165320.904 1
  22680667.758   -10053683.529 6  -7643292.661 1
 90 10 17 12 23 45.0000000  0  5 02 06 15 13 09
  21127796.375      949273.775 7    959675.733 3
  20518282.172    -9637871.621 7  -7427706.731 3
  23443336.109    -7163652.683 5  -5388822.450 1
  21494982.477   -17276039.826 7 -12200844.739 1
  22671564.422   -10101521.759 6  -7680569.210 1
 90 10 17 12 24  0.0000000  0  5 02 06 15 13 09
  21129844.195      960037.578 7    968063.114 3
  20514597.742    -9657233.151 7  -7442793.641 3
  23442822.203    -7166344.905 6  -5390920.269 1
  21486330.297   -17321511.214 7 -12236276.983 1
  22662465.555   -10149330.408 6  -7717822.688 1
 90 10 17 12 24 15.0000000  0  5 02 06 15 13 09
  21131901.414      970845.030 7    976484.508 3
  20510930.508    -9676501.683 7  -7457808.076 3
  23442337.328    -7168897.935 6  -5392909.609 1
  21477698.773   -17366867.235 7 -12271619.327 1
  22653372.914   -10197111.907 6  -7755054.994 1
 90 10 17 12 24 30.0000000  0  5 02 06 15 13 09
  21133967.195      981697.000 7    984940.574 3
  20507280.570    -9695676.355 7  -7472749.395 3
  23441878.305    -7171310.865 6  -5394789.823 1
  21469090.148   -17412107.144 7 -12306871.206 1
  22644288.352   -10244865.296 6  -7792265.406 1
 90 10 17 12 24 45.0000000  0  5 02 06 15 13 09
  21136039.250      992596.999 7    993434.094 3
  20503652.844    -9714753.197 7  -7487614.476 3
  23441446.016    -7173579.912 6  -5396557.904 1
  21460504.125   -17457227.075 7 -12342029.583 1
  22635203.266   -10292586.508 6  -7829450.764 1
 90 10 17 12 25  0.0000000  0  5 02 06 15 13 09
  21138123.656     1003541.586 7   1001962.339 3
  20500039.883    -9733735.192 7  -7502405.626 3
  23441041.625    -7175708.604 6  -5398216.590 1
  21451942.742   -17502230.013 7 -12377096.800 1
  22626126.883   -10340278.769 6  -7866613.573 1
 90 10 17 12 25 15.0000000  0  5 02 06 15 13 09
  21140213.188     1014530.376 7   1010525.031 3
  20496445.383    -9752622.509 7  -7517123.014 3
  23440662.141    -7177696.895 6  -5399765.912 1
  21443399.305   -17547116.171 7 -12412073.014 1
  22617058.070   -10387942.220 6  -7903753.911 1
 90 10 17 12 25 30.0000000  0  5 02 06 15 13 09
  21142313.922     1025562.370 7   1019121.389 3
  20492869.602    -9771415.948 7  -7531767.258 3
  23440309.031    -7179545.840 6  -5401206.641 1
  21434880.266   -17591886.174 7 -12446958.727 1
  22607995.906   -10435577.424 6  -7940872.240 1
 90 10 17 12 25 45.0000000  0  5 02 06 15 13 09
  21144420.008     1036639.429 7   1027752.856 3
  20489311.313    -9790113.092 7  -7546336.461 3
  23439988.359    -7181253.464 6  -5402537.250 1
  21426382.414   -17636537.706 7 -12481752.117 1
  22598935.922   -10483182.284 6  -7977966.948 1
 90 10 17 12 26  0.0000000  0  5 02 06 15 13 09
  21146537.641     1047761.706 7   1036419.568 3
  20485771.977    -9808713.504 7  -7560830.279 3
  23439688.930    -7182819.657 6  -5403757.657 1
  21417908.484   -17681070.574 7 -12516453.051 1
  22589883.016   -10530756.352 6  -8015037.639 1
 90 10 17 12 26 15.0000000  0  5 02 06 15 13 09
  21148663.813     1058931.197 7   1045123.065 3
  20482250.352    -9827215.290 7  -7575247.239 3
  23439416.227    -7184242.188 6  -5404866.138 1
  21409456.539   -17725482.831 7 -12551059.992 2
  22580837.156   -10578297.504 6  -8052082.701 1
 90 10 17 12 26 30.0000000  0  5 02 06 15 13 09
  21150796.875     1070145.847 7   1053861.747 3
  20478749.055    -9845620.114 7  -7589588.667 3
  23439171.570    -7185523.276 5  -5405864.351 1
  21401026.719   -17769776.000 7 -12585574.134 1
  22571797.102   -10625807.576 6  -8089103.525 1
 90 10 17 12 26 45.0000000  0  5 02 06 15 13 09
  21152939.109     1081405.834 7   1062635.770 3
  20475265.516    -9863927.556 7  -7603854.215 3
  23438958.414    -7186662.639 6  -5406752.201 1
  21392623.688   -17813949.760 7 -12619995.237 1
  22562758.266   -10673285.913 6  -8126099.635 1
 90 10 17 12 27  0.0000000  0  5 02 06 15 13 09
  21155090.953     1092709.712 7   1071443.974 3
  20471799.117    -9882138.375 7  -7618044.464 2
  23438763.367    -7187661.353 5  -5407530.439 1
  21384239.125   -17858005.026 7 -12654324.020 1
  22553731.594   -10720733.618 6  -8163071.859 1
 90 10 17 12 27 15.0000000  0  5 02 06 15 13 09
  21157249.188     1104054.330 7   1080283.934 3
  20468352.547    -9900255.780 7  -7632161.924 3
  23438601.016    -7188522.667 6  -5408201.588 1
  21375876.484   -17901944.850 7 -12688562.834 1
  22544706.594   -10768153.765 6  -8200022.618 1
 90 10 17 12 27 30.0000000  0  5 02 06 15 13 09
  21159418.180     1115445.070 7   1089159.827 3
  20464922.867    -9918274.202 7  -7646202.257 3
  23438466.500    -7189241.191 6  -5408761.505 1
  21367538.086   -17945763.728 7 -12722707.403 1
  22535691.797   -10815540.469 6  -8236947.296 1
 90 10 17 12 27 45.0000000  0  5 02 06 15 13 09
  21161592.477     1126879.035 7   1098069.403 3
  20461513.016    -9936195.740 7  -7660167.090 3
  23438353.055    -7189819.590 6  -5409212.223 1
  21359223.422   -17989463.981 7 -12756759.542 2
  22526676.938   -10862896.419 6  -8273848.006 1
 90 10 17 12 28  0.0000000  0  5 02 06 15 13 09
  21163777.531     1138354.757 7   1107011.522 3
  20458120.891    -9954021.960 7  -7674057.638 3
  23438271.344    -7190259.564 6  -5409555.043 1
  21350928.156   -18033047.043 7 -12790720.357 2
  22517673.727   -10910222.760 6  -8310725.643 1
 90 10 17 12 28 15.0000000  0  5 02 06 15 13 09
  21165968.547     1149871.958 7   1115985.965 3
  20454747.570    -9971752.784 7  -7687873.862 3
  23438214.563    -7190561.138 6  -5409790.036 1
  21342658.055   -18076512.738 7 -12824589.723 1
  22508670.930   -10957519.565 6  -8347580.256 1
 90 10 17 12 28 29.9990000  0  5 02 06 15 13 09
  21168167.315     1161428.639 7   1124991.172 3
  20451390.628    -9989387.872 7  -7701615.482 3
  23438182.214    -7190725.448 6
  21334409.683   -18119859.204 7 -12858366.186 2
  22499679.808   -11004784.569 6  -8384410.120 1
 90 10 17 12 28 44.9990000  0  5 02 06 15 13 09
  21170373.378     1173029.215 7   1134030.572 3
  20448053.948   -10006926.569 7  -7715281.999 3
  23438178.792    -7190749.651 6
  21326184.870   -18163089.183 7 -12892051.885 1
  22490689.394   -11052020.889 6  -8421217.627 1
 90 10 17 12 28 59.9990000  0  5 02 06 15 13 09
  21172591.894     1184677.029 7   1143106.787 3
  20444735.604   -10024363.387 7  -7728869.125 3
  23438200.933    -7190629.580 6
  21317980.097   -18206195.700 7 -12925641.376 1
  22481708.354   -11099221.142 6  -8457997.032 1
 90 10 17 12 29 14.9990000  0  5 02 06 15 13 09
  21174817.222     1196371.178 7   1152219.095 3
  20441436.409   -10041698.688 7  -7742377.162 3
  23438250.339    -7190365.905 6
  21309800.979   -18249179.225 7 -12959135.020 1
  22472734.862   -11146385.863 6  -8494748.755 1
 90 10 17 12 29 29.9990000  0  5 02 06 15 13 09
  21177050.292     1208107.914 7   1161364.590 3
  20438156.495   -10058936.128 7  -7755808.948 3
  23438327.753    -7189962.632 6        -0.18911
  21301644.144   -18292043.074 7 -12992535.418 1
  22463763.659   -11193518.550 6  -8531475.492 1
 90 10 17 12 29 44.9990000  0  5 02 06 15 13 09
  21179293.175     1219887.471 7   1170543.475 3
  20434895.175   -10076075.180 7  -7769164.044 3
  23438433.597    -7189419.413 6       423.109 1
  21293510.409   -18334786.862 7 -13025842.262 1
  22454797.784   -11240618.403 6  -8568176.664 1
 90 10 17 12 29 59.9990000  0  5 02 06 15 13 09
  21181541.425     1231710.634 7   1179756.316 3
  20431652.347   -10093114.787 7  -7782441.654 3
  23438564.136    -7188735.405 6       956.086 1
  21285399.144   -18377409.607 7 -13059054.794 1
  22445842.097   -11287684.702 6  -8604851.688 1
 90 10 17 12 30 14.9990000  0  5 02 06 15 13 09
  21183799.628     1243574.498 7   1189000.885 3
  20428429.159   -10110057.437 7  -7795643.724 3
  23438715.628    -7187913.331 6      1596.672 1
  21277311.526   -18419914.047 7 -13092175.127 1
  22436893.519   -11334719.905 6  -8641502.502 1
 90 10 17 12 30 29.9990000  0  5 02 06 15 13 09
  21186064.917     1255476.796 7   1198275.398 3
  20425221.636   -10126905.304 7  -7808771.944 3
  23438902.526    -7186955.926 6      2342.723 1
  21269244.925   -18462302.345 7 -13125204.963 1
  22427947.386   -11381726.184 6  -8678130.762 1
 90 10 17 12 30 44.9990000  0  5 02 06 15 13 09
  21188338.050     1267422.210 7   1207583.514 3
  20422036.784   -10143653.351 7  -7821822.367 3
  23439107.456    -7185857.850 6      3198.363 1
  21261202.769   -18504569.376 7 -13158140.303 1
  22419010.769   -11428698.380 6  -8714732.453 1
 90 10 17 12 30 59.9990000  0  5 02 06 15 13 09
  21190617.620     1279413.032 7   1216926.999 3
  20418867.448   -10160298.835 7  -7834792.871 3
  23439345.175    -7184616.674 6      4165.493 2
  21253183.339   -18546712.321 7 -13190978.963 1
  22410077.550   -11475633.656 6  -8751305.384 1
 90 10 17 12 31 14.9990000  0  5 02 06 15 13 09
  21192909.167     1291445.297 7   1226302.794 3
  20415717.214   -10176845.458 7  -7847686.327 3
  23439609.214    -7183236.423 6      5241.024 1
  21245185.448   -18588735.072 7 -13223723.957 1
  22401153.651   -11522535.816 6  -8787852.511 1
 90 10 17 12 31 29.9990000  0  5 02 06 15 13 09
  21195207.542     1303524.004 7   1235714.763 3
  20412588.901   -10193288.039 7  -7860498.731 3
  23439899.745    -7181711.973 6      6428.873 1
  21237213.284   -18630632.620 7 -13256371.388 2
  22392236.620   -11569399.774 6  -8824369.891 1
 90 10 17 12 31 44.9990000  0  5 02 06 15 13 09
  21197513.730     1315644.095 7   1245158.982 3
  20409480.722   -10209631.382 7  -7873233.810 3
  23440211.972    -7180048.419 5      7725.177 1
  21229262.159   -18672409.879 7 -13288925.094 2
  22383324.495   -11616230.198 6  -8860861.134 1
 90 10 17 12 31 59.9990000  0  5 02 06 15 13 09
  21199827.347     1327808.847 7   1254638.009 3
  20406388.636   -10225871.986 7  -7885888.827 3
  23440558.308    -7178242.869 5      9132.113 1
  21221336.987   -18714063.220 7 -13321382.235 2
  22374419.386   -11663023.412 6  -8897323.374 1
 90 10 17 12 32 14.9990000  0  5 02 06 15 13 09
  21202152.362     1340017.951 7   1264151.599 3
  20403319.190   -10242009.746 7  -7898463.702 3
  23440931.659    -7176295.103 6     10649.856 1
  21213432.815   -18755592.471 7 -13353742.678 2
  22365523.058   -11709779.403 6  -8933756.590 1
 90 10 17 12 32 29.9990000  0  5 02 06 15 13 09
  21204482.690     1352268.934 7   1273697.825 3
  20400266.065   -10258047.026 7  -7910960.278 3
  23441325.315    -7174207.951 6     12276.194 1
  21205555.612   -18796999.912 7 -13386008.207 2
  22356630.487   -11756500.762 6  -8970162.826 1
 90 10 17 12 32 44.9990000  0  5 02 06 15 13 09
  21206823.378     1364564.872 7   1283279.091 3
  20397234.667   -10273980.580 7  -7923376.027 3
  23441748.104    -7171978.473 5     14013.449 1
  21197697.034   -18838282.588 7 -13418176.518 2
  22347748.151   -11803183.939 6  -9006539.307 1
 90 10 17 12 32 59.9990000  0  5 02 06 15 13 09
  21209170.479     1376906.132 7   1292895.669 3
  20394222.839   -10289809.529 7  -7935710.264 3
  23442205.800    -7169605.849 6     15862.245 1
  21189866.722   -18879439.624 7 -13450246.930 2
  22338869.925   -11849828.220 6  -9042885.472 1
 90 10 17 12 33 14.9990000  0  5 02 06 15 13 09
  21211528.112     1389290.440 7   1302545.778 3
  20391229.792   -10305535.917 7  -7947964.588 3
  23442681.776    -7167092.310 6     17820.830 1
  21182057.339   -18920473.095 7 -13482221.054 1
  22330002.151   -11896435.486 6  -9079202.822 1
 90 10 17 12 33 29.9990000  0  5 02 06 15 13 09
  21213892.870     1401718.962 7   1312230.338 3
  20388257.128   -10321158.324 7  -7960137.878 3
  23443184.159    -7164436.923 6     19889.985 1
  21174273.995   -18961381.637 7 -13514097.840 1
  22321139.862   -11943004.314 6  -9115490.217 1
 90 10 17 12 33 44.9990000  0  5 02 06 15 13 09
  21216267.167     1414189.955 7   1321947.996 3
  20385302.870   -10336678.001 7  -7972231.124 3
  23443717.636    -7161640.958 6     22068.677 1
  21166513.245   -19002166.600 7 -13545878.323 2
  22312285.979   -11989536.081 6  -9151748.737 1
 90 10 17 12 33 59.9990000  0  5 02 06 15 13 09
  21218647.542     1426699.766 7   1331695.892 3
  20382369.386   -10352098.440 7  -7984247.060 3
  23444278.558    -7158708.217 6     24353.922 1
  21158773.667   -19042831.483 7 -13577565.234 2
  22303436.940   -12036034.044 6  -9187980.919 1
 90 10 17 12 34 14.9990000  0  5 02 06 15 13 09
  21221036.878     1439251.484 7   1341476.456 3
  20379455.089   -10367416.445 7  -7996183.179 3
  23444857.058    -7155635.661 6     26748.142 1
  21151057.886   -19083373.174 7 -13609156.162 2
  22294598.269   -12082494.973 6  -9224184.241 1
 90 10 17 12 34 29.9990000  0  5 02 06 15 13 09
  21223431.409     1451841.915 7   1351287.186 3
  20376557.972   -10382634.914 7  -8008041.739 3
  23445472.081    -7152426.570 6     29248.735 1
  21143366.792   -19123794.763 7 -13640653.496 1
  22285763.354   -12128922.024 6  -9260361.162 1
 90 10 17 12 34 44.9990000  0  5 02 06 15 13 09
  21225833.714     1464469.405 7   1361126.791 3
  20373681.956   -10397755.373 7  -8019823.921 3
  23446109.073    -7149082.725 6     31854.341 1
  21135697.589   -19164097.880 7 -13672058.517 2
  22276934.753   -12175316.442 6  -9296512.665 1
 90 10 17 12 34 59.9990000  0  5 02 06 15 13 09
  21228247.050     1477141.510 7   1371001.156 3
  20370822.745   -10412769.975 7  -8031523.610 3
  23446771.503    -7145596.752 6     34570.654 1
  21128051.651   -19204274.468 7 -13703364.934 2
  22268111.565   -12221670.343 6  -9332632.586 1
 90 10 17 12 35 14.9990000  0  5 02 06 15 13 09
  21230664.792     1489854.865 7   1380907.665 3
  20367986.776   -10427681.616 7  -8043143.071 3
  23447459.089    -7141971.348 6     37395.658 1
  21120429.862   -19244327.519 7 -13734575.095 2
  22259299.917   -12267986.480 6  -9368723.067 1
 90 10 17 12 35 29.9990000  0  5 02 06 15 13 09
  21233093.487     1502612.373 7   1390848.568 3
  20365167.347   -10442487.348 7  -8054679.991 3
  23448176.761    -7138203.911 6     40331.332 1
  21112833.229   -19284254.165 7 -13765686.760 2
  22250494.300   -12314262.196 6  -9404782.079 1
 90 10 17 12 35 44.9990000  0  5 02 06 15 13 09
  21235528.081     1515413.727 7   1400823.650 3
  20362371.933   -10457186.927 7  -8066134.201 3
  23448921.604    -7134294.820 6     43377.373 1
  21105258.370   -19324054.520 7 -13796700.020 2
  22241694.222   -12360497.041 6  -9440809.239 1
 90 10 17 12 35 59.9990000  0  5 02 06 15 13 09
  21237972.237     1528258.137 7   1410832.275 3
  20359594.261   -10471780.699 7  -8077505.983 3
  23449693.550    -7130244.720 6     46533.285 1
  21097706.917   -19363728.814 7 -13827615.051 2
  22232904.480   -12406691.343 6  -9476804.787 1
 90 10 17 12 36 14.9990000  0  5 02 06 15 13 09
  21240425.237     1541148.798 7   1420876.943 3
  20356837.831   -10486265.604 7  -8088792.925 3
  23450491.659    -7126050.229 6     49801.730 1
  21090183.456   -19403273.833 7 -13858429.341 2
  22224122.440   -12452841.984 6  -9512766.311 1
 90 10 17 12 36 29.9990000  0  5 02 06 15 13 09
  21242887.378     1554083.311 7   1430955.779 3
  20354102.011   -10500643.695 7  -8099996.653 3
  23451316.761    -7121714.080 6     53180.527 1
  21082684.589   -19442691.663 7 -13889144.536 2
  22215347.237   -12498950.961 6  -9548695.379 1
 90 10 17 12 36 44.9990000  0  5 02 06 15 13 09
  21245357.339     1567060.951 7   1441068.224 3
  20351386.698   -10514915.511 7  -8111117.555 3
  23452167.542    -7117236.845 6     56669.261 1
  21075206.433   -19481982.891 7 -13919761.066 2
  22206578.956   -12545018.681 6  -9584592.289 1
 90 10 17 12 36 59.9990000  0  5 02 06 15 13 09
  21247833.987     1580082.276 7   1451214.712 3
  20348690.472   -10529080.063 7  -8122154.875 3
  23453047.042    -7112618.102 6     60268.294 1
  21067753.503   -19521146.592 7 -13950278.218 2
  22197824.354   -12591044.611 6  -9620456.629 1
 90 10 17 12 37 14.9990000  0  5 02 06 15 13 09
  21250320.972     1593145.784 7   1461394.075 3
  20346015.815   -10543138.579 7  -8133109.554 3
  23453954.808    -7107858.755 6     63976.899 1
  21060326.464   -19560184.151 7 -13980697.094 2
  22189072.058   -12637029.388 6  -9656288.919 1
 90 10 17 12 37 29.9990000  0  5 02 06 15 13 09
  21252815.698     1606254.218 7   1471608.432 3
  20343361.917   -10557088.044 7  -8143979.263 3
  23454886.237    -7102956.614 6     67796.748 1
  21052920.097   -19599092.775 7 -14011015.498 2
  22180330.620   -12682970.237 6  -9692087.000 1
 90 10 17 12 37 44.9990000  0  5 02 06 15 13 09
  21255316.229     1619403.827 7   1481854.883 3
  20340725.456   -10570931.920 7  -8154766.682 3
  23455843.886    -7097915.375 6     71725.001 1
  21045540.081   -19637875.991 7 -14041236.181 2
  22171594.792   -12728870.502 6  -9727853.463 1
 90 10 17 12 37 59.9990000  0  5 02 06 15 13 09
  21257828.690     1632596.869 7   1492135.171 3
  20338112.909   -10584667.813 7  -8165469.962 3
  23456832.901    -7092732.828 6     75763.353 1
  21038185.573   -19676531.526 7 -14071357.373 2
  22162868.456   -12774727.743 6  -9763586.362 1
 90 10 17 12 38 14.9990000  0  5 02 06 15 13 09
  21260345.690     1645834.534 7   1502450.220 3
  20335519.542   -10598294.472 7  -8176088.118 3
  23457843.472    -7087408.132 6     79912.451 1
  21030853.651   -19715058.289 7 -14101378.219 2
  22154150.394   -12820540.680 6  -9799284.739 1
 90 10 17 12 38 29.9990000  0  5 02 06 15 13 09
  21262874.480     1659114.299 7   1512798.078 3
  20332946.972   -10611813.976 7  -8186622.770 3
  23458881.112    -7081943.260 6     84170.795 1
  21023545.269   -19753457.984 7 -14131300.059 2
  22145441.144   -12866311.230 6  -9834950.082 1
 90 10 17 12 38 44.9990000  0  5 02 06 15 13 09
  21265410.222     1672437.714 7   1523179.952 3
  20330395.362   -10625224.407 7  -8197072.459 3
  23459951.003    -7076336.771 6     88539.469 1
  21016262.519   -19791728.935 7 -14161121.576 2
  22136739.269   -12912037.467 6  -9870580.916 1
 90 10 17 12 38 59.9990000  0  5 02 06 15 13 09
  21267952.159     1685805.741 7   1533596.595 3
  20327864.206   -10638524.604 7  -8207436.247 3
  23461046.003    -7070587.821 6     93019.162 1
  21009005.753   -19829869.979 7 -14190841.859 2
  22128047.706   -12957718.240 6  -9906176.323 1
 90 10 17 12 39 14.9990000  0  5 02 06 15 13 09
  21270506.464     1699218.927 7   1544048.425 3
  20325353.183   -10651713.854 7  -8217713.572 3
  23462164.894    -7064696.044 6     97610.158 1
  21001773.698   -19867880.518 7 -14220460.462 2
  22119362.612   -13003352.881 6  -9941735.783 1
 90 10 17 12 39 29.9990000  0  5 02 06 15 13 09
  21273067.714     1712675.668 7   1554534.179 3
  20322866.495   -10664793.401 7  -8227905.418 3
  23463311.206    -7058663.052 6    102311.208 1
  20994562.550   -19905762.176 7 -14249978.634 2
  22110687.769   -13048942.615 6  -9977260.229 1
 90 10 17 12 39 44.9990000  0  5 02 06 15 13 09
  21275635.597     1726175.869 7   1565053.816 3
  20320397.183   -10677763.240 7  -8238011.781 3
  23464490.792    -7052488.576 6    107122.472 1
  20987377.972   -19943514.447 7 -14279395.981 2
  22102020.081   -13094487.011 6 -10012749.346 1
 90 10 17 12 39 59.9990000  0  5 02 06 15 13 09
  21278213.315     1739719.057 7   1575606.948 3
  20317950.026   -10690623.376 7  -8248032.654 3
  23465690.933    -7046173.248 6    112043.504 1
  20980220.105   -19981137.819 7 -14308712.876 2
  22093363.854   -13139986.434 6 -10048203.427 1
 90 10 17 12 40 14.9990000  0  5 02 06 15 13 09
  21280797.417     1753304.591 7   1586193.073 3
  20315523.573   -10703374.369 7  -8257968.482 3
  23466918.073    -7039717.965 6    117073.614 1
  20973084.183   -20018632.937 7 -14337929.843 2
  22084712.769   -13185441.182 6 -10083622.696 1
 90 10 17 12 40 29.9990000  0  5 02 06 15 13 09
  21283390.831     1766933.809 7   1596813.260 3
  20313119.378   -10716014.730 7  -8267818.097 3
  23468174.698    -7033121.278 6    122213.898 1
  20965973.769   -20055998.163 7 -14367045.598 2
  22076072.753   -13230849.685 6 -10119005.911 1
 90 10 17 12 40 44.9990000  0  5 02 06 15 13 09
  21285993.620     1780607.259 7   1607467.896 3
  20310733.284   -10728543.431 7  -8277580.709 3
  23469457.511    -7026382.780 6    127464.658 1
  20958888.706   -20093232.541 7 -14396059.386 2
  22067440.050   -13276210.794 6 -10154352.219 1
 90 10 17 12 40 59.9990000  0  5 02 06 15 13 09
  21288603.933     1794324.568 7   1618156.712 3
  20308371.042   -10740960.591 7  -8287256.405 3
  23470764.886    -7019502.578 6    132825.860 1
  20951827.683   -20130336.438 7 -14424971.509 2
  22058818.792   -13321524.908 6 -10189661.900 1
 90 10 17 12 41 14.9990000  0  5 02 06 15 13 09
  21291221.269     1808084.410 7   1628878.677 3
  20306028.979   -10753267.722 7  -8296846.370 3
  23472102.323    -7012482.444 6    138296.103 1
  20944792.683   -20167311.199 7 -14453783.007 2
  22050203.808   -13366793.105 6 -10224935.801 1
 90 10 17 12 41 29.9990000  0  5 02 06 15 13 09
  21293849.370     1821885.627 7   1639632.877 3
  20303708.378   -10765465.364 7  -8306351.031 3
  23473465.433    -7005323.313 6    143874.621 1
  20937779.753   -20204157.633 7 -14482494.505 2
  22041598.956   -13412016.177 6 -10260174.563 1
 90 10 17 12 41 44.9990000  0  5 02 06 15 13 09
  21296482.448     1835729.006 7   1650419.917 3
  20301407.651   -10777552.563 7  -8315769.627 3
  23474853.026    -6998024.540 6    149561.994 1
  20930792.722   -20240874.861 7 -14511105.318 2
  22033000.511   -13457192.907 6 -10295377.196 1
 90 10 17 12 41 59.9990000  0  5 02 06 15 13 09
  21299125.464     1849615.071 7   1661240.233 3
  20299129.136   -10789528.587 7  -8325101.593 3
  23476272.495    -6990585.516 6    155358.629 1
  20923832.261   -20277462.210 7 -14539614.939 2
  22024412.604   -13502322.420 6 -10330543.024 1
 90 10 17 12 42 14.9990000  0  5 02 06 15 13 09
  21301774.948     1863544.189 7   1672094.097 3
  20296871.597   -10801392.708 7  -8334346.363 3
  23477710.269    -6983006.164 6    161264.610 1
  20916892.870   -20313919.153 7 -14568022.938 2
  22015833.050   -13547404.364 6 -10365671.801 1
 90 10 17 12 42 29.9990000  0  5 02 06 15 13 09
  21304434.440     1877514.384 7   1682979.961 3
  20294633.995   -10813146.756 7  -8343505.355 3
  23479180.511    -6975288.260 6    167278.540 1
  20909980.308   -20350247.383 7 -14596330.640 2
  22007265.237   -13592440.095 6 -10400764.567 1
 90 10 17 12 42 44.9990000  0  5 02 06 15 13 09
  21307099.581     1891527.815 7   1693899.538 3
  20292418.464   -10824788.377 7  -8352576.751 3
  23480671.503    -6967429.670 5    173402.127 1
  20903093.183   -20386444.351 7 -14624536.070 2
  21998702.245   -13637427.042 6 -10435819.326 1
 90 10 17 12 42 59.9990000  0  5 02 06 15 13 09
  21309775.159     1905583.508 7   1704852.026 3
  20290226.214   -10836318.121 7  -8361560.964 3
  23482198.511    -6959431.634 6    179634.365 1
  20896230.190   -20422511.051 7 -14652639.993 2
  21990149.753   -13682366.159 6 -10470836.811 1
 90 10 17 12 43 14.9990000  0  5 02 06 15 13 09
  21312457.769     1919681.326 7   1715837.332 3
  20288051.433   -10847736.043 7  -8370458.038 3
  23483745.690    -6951294.202 6    185975.204 1
  20889390.198   -20458447.573 7 -14680642.465 2
  21981610.284   -13727257.261 6 -10505816.887 1
 90 10 17 12 43 29.9990000  0  5 02 06 15 13 09
  21315150.347     1933822.366 7   1726856.314 3
  20285901.401   -10859040.698 7  -8379266.854 3
  23485321.769    -6943016.076 5    192425.679 1
  20882576.401   -20494252.721 7 -14708542.568 2
  21973073.979   -13772098.849 6 -10540758.377 1
 90 10 17 12 43 44.9990000  0  5 02 06 15 13 09
  21317850.034     1948007.741 7   1737909.847 3
  20283772.628   -10870230.673 7  -8387986.314 3
  23486920.722    -6934596.565 6    198986.352 1
  20875788.011   -20529925.123 7 -14736339.245 2
  21964550.894   -13816889.258 6 -10575659.971 1
 90 10 17 12 43 59.9990000  0  5 02 06 15 13 09
  21320556.417     1962237.367 7   1748997.864 3
  20281664.620   -10881305.836 7  -8396616.311 3
  23488550.690    -6926035.676 6    205657.136 1
  20869025.878   -20565464.501 7 -14764032.260 2
  21956038.737   -13861628.654 6 -10610521.822 1
 90 10 17 12 44 14.9990000  0  5 02 06 15 13 09
  21323272.081     1976510.227 7   1760119.572 3
  20279578.214   -10892267.053 7  -8405157.523 3
  23490208.315    -6917334.450 6    212437.295 1
  20862287.729   -20600871.912 7 -14791622.435 2
  21947534.659   -13906317.383 6 -10645344.198 1
 90 10 17 12 44 29.9990000  0  5 02 06 15 13 09
  21325997.214     1990825.260 7   1771274.138 3
  20277513.729   -10903115.341 7  -8413610.746 3
  23491887.995    -6908494.205 6    219325.785 1
  20855574.839   -20636148.420 7 -14819110.617 2
  21939039.675   -13950956.474 6 -10680127.880 1
 90 10 17 12 44 44.9990000  0  5 02 06 15 13 09
  21328729.933     2005182.976 7   1782461.966 3
  20275471.690   -10913849.551 7  -8421975.066 3
  23493601.206    -6899514.244 6    226323.152 1
  20848888.472   -20671293.486 7 -14846496.376 2
  21930557.284   -13995545.052 6 -10714872.206 1
 90 10 17 12 44 59.9990000  0  5 02 06 15 13 09
  21331468.300     2019585.415 7   1793684.628 3
  20273450.409   -10924467.826 7  -8430249.045 3
  23495331.058    -6890392.547 6    233430.951 1
  20842225.722   -20706304.659 7 -14873777.797 2
  21922078.636   -14040080.825 6 -10749575.384 1
 90 10 17 12 45 14.9990000  0  5 02 06 15 13 09
  21334219.183     2034029.839 7   1804940.014 3
  20271451.792   -10934972.503 7  -8438434.525 3
  23497097.808    -6881132.245 6    240646.752 1
  20835587.456   -20741184.561 7 -14900956.936 2
  21913615.159   -14084566.086 6 -10784239.214 1
 90 10 17 12 45 29.9990000  0  5 02 06 15 13 09
  21336974.308     2048516.150 7   1816228.038 3
  20269474.175   -10945363.324 7  -8446531.268 3
  23498887.370    -6871733.156 6    247970.720 1
  20828974.737   -20775933.012 7 -14928033.647 2
  21905158.706   -14129000.734 6 -10818863.587 1
 90 10 17 12 45 44.9990000  0  5 02 06 15 13 09
  21339739.581     2063042.378 7   1827547.178 3
  20267518.237   -10955642.055 7  -8454540.673 3
  23500700.933    -6862197.280 6    255401.253 1
  20822387.401   -20810551.761 7 -14955009.289 2
  21896713.925   -14173386.274 6 -10853449.698 1
 90 10 17 12 45 59.9990000  0  5 02 06 15 13 09
  21342513.769     2077612.612 7   1838900.599 3
  20265583.933   -10965804.466 7  -8462459.442 3
  23502540.245    -6852520.734 6    262941.427 1
  20815825.331   -20845036.599 7 -14981880.583 2
  21888276.636   -14217718.321 6 -10887994.150 1
 90 10 17 12 46 14.9990000  0  5 02 06 15 13 09
  21345293.175     2092224.647 7   1850286.584 3
  20263673.190   -10975852.257 7  -8470288.894 3
  23504407.948    -6842705.648 6    270589.524 1
  20809287.269   -20879389.681 7 -15008649.214 2
  21879850.761   -14261998.824 6 -10922498.422 1
 90 10 17 12 46 29.9990000  0  5 02 06 15 13 09
  21348081.183     2106878.787 7   1861705.379 3
  20261782.854   -10985785.171 7  -8478028.828 3
  23506302.042    -6832752.074 6    278345.550 1
  20802775.800   -20913610.584 7 -15035314.845 2
  21871433.933   -14306226.994 6 -10956961.925 1
 90 10 17 12 46 44.9990000  0  5 02 06 15 13 09
  21350877.581     2121575.049 7   1873157.005 3
  20259914.519   -10995602.833 7  -8485678.951 3
  23508223.144    -6822659.920 6    286209.548 1
  20796289.550   -20947699.286 7 -15061877.461 2
  21863028.237   -14350402.646 6 -10991384.502 1
 90 10 17 12 46 59.9990000  0  5 02 06 15 13 09
  21353681.862     2136309.417 7   1884638.332 3
  20258066.862   -11005309.341 7  -8493242.451 3
  23510168.378    -6812433.403 6    294178.273 1
  20789826.909   -20981659.806 7 -15088340.195 2
  21854631.394   -14394529.868 6 -11025769.330 1
 90 10 17 12 47 14.9990000  0  5 02 06 15 13 09
  21356494.667     2151090.526 7   1896156.071 3
  20256244.190   -11014895.809 7  -8500712.410 3
  23512144.769    -6802064.271 6    302258.091 1
  20783391.550   -21015483.272 7 -15114696.139 2
  21846244.659   -14438599.387 6 -11060109.196 1
 90 10 17 12 47 29.9990000  0  5 02 06 15 13 09
  21359315.120     2165918.261 7   1907710.146 3
  20254441.933   -11024361.794 7  -8508088.508 3
  23514141.651    -6791552.094 5    310449.378 1
  20776979.862   -21049169.471 7 -15140945.113 2
  21837870.229   -14482611.010 6 -11094403.949 1
 90 10 17 12 47 44.9990000  0  5 02 06 15 13 09
  21362145.901     2180790.060 7   1919298.554 3
  20252662.933   -11033709.955 7  -8515372.794 3
  23516173.386    -6780899.805 5    318749.841 1
  20770595.386   -21082721.020 7 -15167089.171 2
  21829505.245   -14526567.097 6 -11128655.429 1
 90 10 17 12 47 59.9990000  0  5 02 06 15 13 09
  21364984.589     2195707.074 7   1930922.194 3
  20250906.276   -11042938.900 7  -8522564.180 2
  23518225.261    -6770106.321 6    327160.334 1
  20764236.487   -21116136.473 7 -15193127.178 2
  21821152.144   -14570465.994 6 -11162862.369 1
 90 10 17 12 48 14.9990000  0  5 02 06 15 13 09
  21367830.167     2210666.293 7   1942578.725 3
  20249173.089   -11052051.017 7  -8529664.543 3
  23520303.722    -6759174.340 5    335678.751 1
  20757905.128   -21149418.381 7 -15219061.121 2
  21812805.714   -14614310.275 6 -11197026.730 1
 90 10 17 12 48 29.9990000  0  5 02 06 15 13 09
  21370685.722     2225668.413 7   1954268.680 3
  20247461.901   -11061045.462 7  -8536673.205 2
  23522413.003    -6748103.730 6    344305.210 1
  20751596.284   -21182566.239 7 -15244890.621 2
  21804475.589   -14658099.071 6 -11231147.843 1
 90 10 17 12 48 44.9990000  0  5 02 06 15 13 09
  21373550.198     2240717.083 7   1965994.909 3
  20245772.112   -11069918.733 7  -8543587.444 2
  23524545.144    -6736890.887 5    353042.486 1
  20745314.120   -21215576.539 7 -15270612.922 2
  21796153.604   -14701828.604 6 -11265222.780 1
 90 10 17 12 48 59.9990000  0  5 02 06 15 13 09
  21376421.784     2255808.322 7   1977754.300 3
  20244105.440   -11078674.610 7  -8550410.216 2
  23526704.425    -6725539.895 5    361887.405 1
  20739057.901   -21248453.160 7 -15296231.064 2
  21787840.503   -14745502.521 6 -11299254.398 1
 90 10 17 12 49 14.9990000  0  5 02 06 15 13 09
  21379300.925     2270941.522 7   1989546.409 3
  20242461.511   -11087313.137 7  -8557141.542 2
  23528890.979    -6714051.204 5    370839.611 1
  20732826.784   -21281196.258 7 -15321745.152 2
  21779541.870   -14789120.965 6 -11333242.788 1
 90 10 17 12 49 29.9990000  0  5 02 06 15 13 09
  21382188.792     2286116.825 7   2001371.318 3
  20240840.245   -11095834.174 7  -8563781.312 2
  23531102.269    -6702424.898 5    379899.064 1
  20726621.784   -21313805.652 7 -15347155.068 2
  21771253.792   -14832683.563 6 -11367187.661 1
 90 10 17 12 49 44.9990000  0  5 02 06 15 13 09
  21385085.347     2301334.551 7   2013229.286 3
  20239242.815   -11104237.318 7  -8570329.223 2
  23533341.261    -6690660.807 5    389065.882 1
  20720441.526   -21346281.048 7 -15372460.560 2
  21762973.519   -14876189.859 6 -11401088.647 1
 90 10 17 12 49 59.9990000  0  5 02 06 15 13 09
  21387988.878     2316596.600 7   2025121.778 3
  20237666.526   -11112520.146 7  -8576783.381 2
  23535613.003    -6678756.885 5    398341.668 1
  20714287.292   -21378620.031 7 -15397659.760 2
  21754707.144   -14919637.155 6 -11434943.671 1
 90 10 17 12 50 14.9990000  0  5 02 06 15 13 09
  21390901.222     2331899.142 7   2037045.832 3
  20236112.198   -11120686.347 7  -8583146.657 2
  23537902.753    -6666717.458 5    407723.051 1
  20708158.659   -21410826.662 7 -15422755.824 2
  21746447.894   -14963029.253 6 -11468755.691 1
 90 10 17 12 50 29.9990000  0  5 02 06 15 13 09
  21393820.862     2347244.924 7   2049003.588 3
  20234579.034   -11128732.919 7  -8589416.722 3
  23540216.417    -6654539.660 5    417212.213 1
  20702055.151   -21442898.165 7 -15447746.596 2
  21738201.620   -15006363.073 6 -11502522.307 1
 90 10 17 12 50 44.9990000  0  5 02 06 15 13 09
  21396749.987     2362632.006 7   2060993.522 3
  20233071.229   -11136661.767 7  -8595595.036 2
  23542561.401    -6642225.406 5    426807.701 1
  20695978.097   -21474836.019 7 -15472633.234 2
  21729967.401   -15049640.440 6 -11536244.921 1
 90 10 17 12 50 59.9990000  0  5 02 06 15 13 09
  21399684.456     2378057.537 7   2073013.409 3
  20231584.769   -11144475.405 7  -8601683.577 3
  23544930.573    -6629777.957 5    436507.007 1
  20689925.925   -21506643.118 7 -15497417.976 2
  21721741.597   -15092863.491 6 -11569925.221 1
 90 10 17 12 51 14.9990000  0  5 02 06 15 13 09
  21402628.464     2393527.288 7   2085067.759 2
  20230120.909   -11152167.791 7  -8607677.643 3
  23547325.659    -6617191.363 5    446314.704 1
  20683898.878   -21538313.680 7 -15522096.327 2
  21713528.050   -15136026.215 6 -11603558.505 1
 90 10 17 12 51 29.9990000  0  5 02 06 15 13 09
  21405580.831     2409040.770 7   2097156.184 2
  20228680.581   -11159739.514 7  -8613577.681 3
  23549740.104    -6604466.335 5    456230.312 1
  20677899.097   -21569848.074 7 -15546668.584 2
  21705326.683   -15179129.173 6 -11637145.218 2
 90 10 17 12 51 44.9990000  0  5 02 06 15 13 09
  21408540.706     2424597.110 7   2109278.009 3
  20227262.667   -11167191.192 7  -8619384.184 2
  23552192.198    -6591603.955 5    466252.933 1
  20671923.206   -21601247.201 7 -15571135.427 2
  21697136.245   -15222172.662 6 -11670685.593 2
 90 10 17 12 51 59.9990000  0  5 02 06 15 13 09
  21411509.823     2440195.167 7   2121432.339 3
  20225866.347   -11174523.523 7  -8625097.688 3
  23554667.464    -6578605.159 5    476381.828 1
  20665973.019   -21632511.924 7 -15595497.538 2
  21688955.886   -15265157.344 6 -11704180.138 1
 90 10 17 12 52 14.9990000  0  5 02 06 15 13 09
  21414485.855     2455835.709 7   2133619.774 3
  20224493.151   -11181735.670 7  -8630717.544 2
  23557164.284    -6565469.705 5    486617.230 1
  20660051.089   -21663641.425 7 -15619754.287 2
  21680788.636   -15308082.489 6 -11737628.299 1
 90 10 17 12 52 29.9990000  0  5 02 06 15 13 09
  21417470.651     2471517.448 7   2145839.314 3
  20223144.487   -11188828.708 7  -8636244.592 2
  23559690.745    -6552198.845 5    496958.145 1
  20654150.925   -21694636.817 7 -15643906.529 2
  21672630.784   -15350948.892 6 -11771030.692 1
 90 10 17 12 52 44.9990000  0  5 02 06 15 13 09
  21420461.417     2487240.111 7   2158090.742 3
  20221818.042   -11195802.662 7  -8641678.852 2
  23562242.581    -6538792.941 5    507404.297 1
  20648279.058   -21725498.311 7 -15667954.441 2
  21664482.698   -15393756.532 6 -11804387.290 1
 90 10 17 12 52 59.9990000  0  5 02 06 15 13 09
  21423462.026     2503005.425 7   2170375.391 3
  20220514.003   -11202655.553 7  -8647018.771 2
  23564820.245    -6525250.392 5    517956.925 1
  20642431.980   -21756224.045 7 -15691896.562 2
  21656349.206   -15436503.073 6 -11837696.278 2
 90 10 17 12 53 14.9990000  0  5 02 06 15 13 09
  21426470.628     2518815.532 7   2182694.961 3
  20219232.729   -11209385.196 7  -8652262.650 2
  23567419.237    -6511569.241 5    528617.531 1
  20636611.503   -21786811.951 7 -15715731.288 2
  21648226.550   -15479186.362 6 -11870955.970 2
 90 10 17 12 53 29.9990000  0  5 02 06 15 13 09
  21429486.933     2534667.022 7   2195046.781 2
  20217974.448   -11215994.654 7  -8657412.878 3
  23570053.331    -6497752.910 5    539383.510 1
  20630816.776   -21817265.160 7 -15739461.052 2
  21640115.292   -15521809.376 6 -11904168.695 1
 90 10 17 12 53 44.9990000  0  5 02 06 15 13 09
  21432509.222     2550556.452 7   2207428.160 2
  20216738.823   -11222487.199 7  -8662472.005 2
  23572708.534    -6483804.949 6    550252.015 1
  20625046.909   -21847586.738 7 -15763088.248 2
  21632015.581   -15564375.492 6 -11937337.094 1
 90 10 17 12 53 59.9990000  0  5 02 06 15 13 09
  21435542.214     2566488.294 7   2219842.579 2
  20215526.511   -11228858.185 7  -8667436.410 3
  23575385.753    -6469720.654 5    561226.777 1
  20619302.058   -21877772.445 7 -15786609.571 2
  21623928.698   -15606879.600 6 -11970457.168 1
 90 10 17 12 54 14.9990000  0  5 02 06 15 13 09
  21438582.050     2582463.201 7   2232290.550 3
  20214338.472   -11235106.754 7  -8672305.425 3
  23578090.604    -6455499.608 5    572308.104 1
  20613583.972   -21907821.427 7 -15810024.352 2
  21615851.917   -15649320.547 6 -12003528.016 2
 90 10 17 12 54 29.9990000  0  5 02 06 15 13 09
  21441629.948     2598482.797 7   2244773.348 2
  20213172.308   -11241231.133 7  -8677077.678 2
  23580823.761    -6441140.710 5    583496.837 1
  20607891.581   -21937732.263 7 -15833331.494 2
  21607785.995   -15691696.982 6 -12036548.597 2
 90 10 17 12 54 44.9990000  0  5 02 06 15 13 09
  21444687.979     2614545.325 7   2257289.594 3
  20212031.128   -11247233.115 7  -8681754.551 2
  23583583.300    -6426645.811 5    594791.518 1
  20602226.464   -21967506.386 7 -15856532.100 2
  21599735.214   -15734010.140 6 -12069519.878 2
 90 10 17 12 54 59.9990000  0  5 02 06 15 13 09
  21447751.511     2630649.922 7   2269838.627 2
  20210911.026   -11253112.945 7  -8686336.238 2
  23586366.901    -6412015.743 6    606191.563 1
  20596585.698   -21997144.674 7 -15879626.860 2
  21591695.698   -15776260.360 6 -12102442.123 2
 90 10 17 12 55 14.9990000  0  5 02 06 15 13 09
  21450824.909     2646798.923 7   2282422.252 3
  20209817.026   -11258868.457 7  -8690821.045 2
  23589178.448    -6397248.676 6    617698.353 1
  20590972.729   -22026644.890 7 -15902614.037 2
  21583668.448   -15818445.404 6 -12135313.575 2
 90 10 17 12 55 29.9990000  0  5 02 06 15 13 09
  21453905.315     2662987.694 7   2295036.871 3
  20208744.339   -11264504.077 7  -8695212.430 2
  23592013.573    -6382349.176 5    629308.347 1
  20585382.440   -22056011.662 7 -15925497.228 2
  21575653.534   -15860569.427 7 -12168137.471 2
 90 10 17 12 55 44.9990000  0  5 02 06 15 13 09
  21456993.589     2679218.974 7   2307684.621 3
  20207694.683   -11270016.682 7  -8699507.969 3
  23594872.690    -6367314.484 5    641023.665 1
  20579821.589   -22085242.080 7 -15948274.167 2
  21567648.823   -15902629.187 6 -12200911.296 2
 90 10 17 12 55 59.9990000  0  5 02 06 15 13 09
  21460092.128     2695496.009 7   2320368.015 3
  20206670.269   -11275402.967 7  -8703705.076 3
  23597761.761    -6352141.411 5    652846.813 1
  20574285.386   -22114332.856 7 -15970942.293 2
  21559656.190   -15944621.158 6 -12233632.299 2
 90 10 17 12 56 14.9990000  0  5 02 06 15 13 09
  21463197.659     2711816.844 7   2333085.538 3
  20205669.792   -11280664.584 7  -8707805.039 3
  23600671.261    -6336832.115 5    664776.130 1
  20568776.128   -22143285.554 7 -15993502.833 2
  21551679.269   -15986547.068 6 -12266301.823 2
 90 10 17 12 56 29.9990000  0  5 02 06 15 13 09
  21466310.948     2728180.914 7   2345836.752 3
  20204691.729   -11285801.791 7  -8711808.047 3
  23603613.659    -6321387.341 5    676810.982 1
  20563292.331   -22172100.607 7 -16015956.113 2
  21543713.776   -16028406.895 6 -12298919.866 2
 90 10 17 12 56 44.9990000  0  5 02 06 15 13 09
  21469432.690     2744587.796 7   2358621.328 3
  20203738.401   -11290814.993 7  -8715714.448 3
  23606577.776    -6305807.868 5    688950.801 1
  20557835.651   -22200778.620 7 -16038302.605 2
  21535760.964   -16070200.992 6 -12331486.693 2
 90 10 17 12 56 59.9990000  0  5 02 06 15 13 09
  21472563.394     2761039.384 7   2371440.731 2
  20202806.839   -11295702.174 7  -8719522.638 2
  23609569.495    -6290091.593 5    701197.233 1
  20552406.089   -22229317.511 7 -16060540.695 2
  21527821.003   -16111927.059 6 -12364000.509 2
 90 10 17 12 57 14.9990000  0  5 02 06 15 13 09
  21475702.550     2777534.029 7   2384293.690 3
  20201900.714   -11300464.848 7  -8723233.817 2
  23612583.901    -6274240.308 5    713548.854 1
  20547000.120   -22257718.855 7 -16082671.603 2
  21519891.776   -16153586.534 6 -12396462.427 2
 90 10 17 12 57 29.9990000  0  5 02 06 15 13 09
  21478850.190     2794073.033 7   2397181.214 2
  20201017.854   -11305101.332 7  -8726846.660 2
  23615625.581    -6258252.871 5    726006.576 1
  20541620.956   -22285981.450 7 -16104694.398 2
  21511979.206   -16195177.618 7 -12428871.061 2
 90 10 17 12 57 44.9990000  0  5 02 06 15 13 09
  21482004.464     2810655.669 7   2410102.748 2
  20200159.698   -11309612.475 7  -8730361.830 3
  23618698.003    -6242130.428 6    738569.499 1
  20536270.917   -22314105.856 7 -16126609.512 2
  21504077.550   -16236701.027 7 -12461226.946 2
 90 10 17 12 57 59.9990000  0  5 02 06 15 13 09
  21485169.409     2827279.491 7   2423056.369 2
  20199324.745   -11314000.476 7  -8733781.043 3
  23621788.870    -6225875.474 6    751235.685 1
  20530944.565   -22342094.578 7 -16148418.899 2
  21496188.526   -16278158.793 7 -12493531.682 2
 90 10 17 12 58 14.9990000  0  5 02 06 15 13 09
  21488340.956     2843947.291 7   2436044.250 2
  20198514.417   -11318262.069 7  -8737101.762 3
  23624907.159    -6209485.416 5    764007.128 1
  20525642.823   -22369944.655 7 -16170120.251 2
  21488311.979   -16319547.573 7 -12525782.665 2
 90 10 17 12 58 29.9990000  0  5 02 06 15 13 09
  21491522.425     2860658.787 7   2449066.188 2
  20197727.386   -11322397.630 7  -8740324.286 3
  23628048.987    -6192960.465 5    776883.707 1
  20520370.362   -22397656.274 7 -16191713.710 2
  21480447.972   -16360867.591 6 -12557980.083 2
 90 10 17 12 58 44.9990000  0  5 02 06 15 13 09
  21494708.854     2877415.634 7
  20196965.417   -11326405.131 7  -8743447.023 3
  23631221.222    -6176298.984 5
  20515124.487   -22425227.712 7 -16213197.939 2
  21472597.597   -16402116.597 6 -12590122.152 2
 90 10 17 12 58 59.9990000  0  5 02 06 15 13 09
  21497905.792     2894211.969 7
  20196224.917   -11330290.482 7  -8746474.568 3
  23634418.401    -6159507.470 6
  20509902.995   -22452664.850 7 -16234577.521 2
  21464762.081   -16443300.275 6 -12622213.317 2
 90 10 17 12 59 14.9990000  0  5 02 06 15 13 09
  21501104.870     2911021.455 7   2488309.793 2
  20195505.276   -11334079.522 7  -8749427.073 3
  23637637.214    -6142612.234 6    816116.036 1
  20504701.448   -22479993.729 7 -16255872.740 2
  21456933.495   -16484444.524 7 -12654273.770 2
 90 10 17 12 59 29.9990000  0  5 02 06 15 13 09
  21504306.839     2927844.603 7   2501418.731 2
  20194801.612   -11337771.758 7  -8752304.136 3
  23640868.104    -6125612.722 6    829362.401 1
  20499523.253   -22507214.184 7 -16277083.472 2
  21449111.472   -16525548.624 7 -12686302.940 2
 90 10 17 12 59 44.9990000  0  5 02 06 15 13 09
  21507516.011     2944709.958 7   2514560.560 2
  20194122.940   -11341338.567 7  -8755083.472 3
  23644123.284    -6108480.807 5    842711.954 1
  20494370.144   -22534297.402 7 -16298187.271 2
  21441302.222   -16566583.926 6 -12718278.501 2
 90 10 17 12 59 59.9990000  0  5 02 06 15 13 09
  21510731.425     2961616.976 7   2527734.850 2
  20193468.464   -11344780.429 7  -8757765.446 3
  23647415.847    -6091217.128 5    856164.164 1
  20489240.800   -22561243.804 7 -16319184.458 2
  21433506.847   -16607550.340 6 -12750200.377 2
 90 10 17 13  0 14.9990000  0  5 02 06 15 13 09
  21513958.222     2978565.012 7   2540941.103 2
  20192836.940   -11348097.652 7  -8760350.285 3
  23650727.300    -6073822.243 6    869718.572 1
  20484138.800   -22588054.019 7 -16340075.529 2
  21425723.276   -16648448.284 7 -12782068.905 2
 90 10 17 13  0 29.9990000  0  5 02 06 15 13 09
  21517191.425     2995559.905 7   2554183.867 2
  20192231.104   -11351284.153 7  -8762833.276 3
  23654057.964    -6056290.821 5    883379.422 1
  20479064.597   -22614722.270 7 -16360855.972 2
  21417955.956   -16689271.732 7 -12813879.386 2
 90 10 17 13  0 44.9990000  0  5 02 06 15 13 09
  21520434.261     3012602.101 7   2567463.487 2
  20191648.206   -11354339.446 7  -8765214.022 3
  23657423.659    -6038622.416 6    897146.988 1
  20474016.995   -22641248.086 7 -16381525.438 2
  21410201.058   -16730019.688 7 -12845631.030 2
 90 10 17 13  0 59.9990000  0  5 02 06 15 13 09
  21523687.722     3029691.349 7   2580779.767 2
  20191092.995   -11357263.793 7  -8767492.728 3
  23660809.276    -6020817.685 6    911020.803 1
  20468995.417   -22667631.732 7 -16402084.117 2
  21402461.354   -16770692.282 7 -12877323.959 2
 90 10 17 13  1 14.9990000  0  5 02 06 15 13 09
  21526948.526     3046832.097 7   2594136.168 2
  20190562.675   -11360052.339 7  -8769665.626 2
  23664227.370    -6002872.311 6    925004.162 1
  20464003.394   -22693868.655 7 -16422528.465 2
  21394737.839   -16811284.757 7 -12908954.464 2
 90 10 17 13  1 29.9990000  0  5 02 06 15 13 09
  21530219.565     3064020.862 7   2607529.997 2
  20190056.167   -11362708.259 7  -8771735.180 3
  23667664.948    -5984789.543 6    939094.598 1
  20459038.347   -22719962.049 7 -16442860.973 2
  21387026.362   -16851799.856 6 -12940524.675 2
 90 10 17 13  1 44.9990000  0  5 02 06 15 13 09
  21533498.206     3081253.795 7   2620958.255 2
  20189575.737   -11365235.623 7  -8773704.555 2
  23671132.706    -5966573.791 6    953288.659 1
  20454099.659   -22745916.274 7 -16463085.035 2
  21379330.737   -16892241.694 7 -12972037.785 2
 90 10 17 13  1 59.9990000  0  5 02 06 15 13 09
  21536784.854     3098529.418 7   2634419.764 2
  20189117.878   -11367635.683 7  -8775574.737 3
  23674624.925    -5948226.693 6    967585.085 1
  20449186.136   -22771732.429 7 -16483201.511 2
  21371649.300   -16932611.286 7 -13003494.623 2
 90 10 17 13  2 14.9990000  0  5 02 06 15 13 09
  21540081.229     3115851.447 7   2647917.435 2
  20188688.159   -11369904.374 7  -8777342.554 3
  23678139.761    -5929744.332 6    981986.942 1
  20444299.894   -22797406.543 7 -16503207.300 2
  21363981.323   -16972904.268 7 -13034891.748 2
 90 10 17 13  2 29.9990000  0  5 02 06 15 13 09
  21543387.542     3133216.260 7   2661448.444 2
  20188280.050   -11372045.103 7  -8779010.658 3
  23681683.159    -5911130.582 6    996491.186 1
  20439442.440   -22822942.521 7 -16523105.460 2
  21356328.683   -17013124.076 7 -13066231.851 2
 90 10 17 13  2 44.9990000  0  5 02 06 15 13 09
  21546700.917     3150621.554 7   2675010.996 2
  20187896.394   -11374060.263 7  -8780580.914 3
  23685250.394    -5892388.399 6   1011095.459 1
  20434608.425   -22848342.427 7 -16542897.581 2
  21348688.206   -17053272.872 7 -13097516.618 2
 90 10 17 13  2 59.9990000  0  5 02 06 15 13 09
  21550017.690     3168068.134 7   2688605.716 2
  20187538.698   -11375948.830 7  -8782052.523 3
  23688841.331    -5873517.109 6   1025800.307 1
  20429799.948   -22873605.637 7 -16562583.199 2
  21341061.370   -17093349.453 7 -13128745.116 2
 90 10 17 13  3 14.9990000  0  5 02 06 15 13 09
  21553347.339     3185557.585 7   2702233.848 2
  20187202.604   -11377709.140 7  -8783424.193 3
  23692456.050    -5854515.045 6   1040607.084 1
  20425019.769   -22898730.563 7 -16582161.053 2
  21333449.128   -17133351.860 7 -13159915.813 2
 90 10 17 13  3 29.9990000  0  5 02 06 15 13 09
  21556684.300     3203091.634 7   2715896.724 2
  20186892.354   -11379338.993 7  -8784694.212 3
  23696099.808    -5835380.419 6   1055517.159 1
  20420265.128   -22923715.238 7 -16601629.626 2
  21325851.714   -17173277.885 7 -13191027.003 2
 90 10 17 13  3 44.9990000  0  5 02 06 15 13 09
  21560027.823     3220669.626 7   2729593.852 2
  20186606.456   -11380839.273 7  -8785863.266 3
  23699766.456    -5816114.378 6   1070529.641 1
  20415537.612   -22948560.481 7 -16620989.552 2
  21318269.573   -17213128.305 7 -13222079.276 2
 90 10 17 13  3 59.9990000  0  5 02 06 15 13 09
  21563383.058     3238295.337 7   2743328.156 2
  20186346.120   -11382205.807 7  -8786928.092 3
  23703454.651    -5796713.478 6   1085647.197 1
  20410834.940   -22973262.089 7 -16640237.552 2
  21310701.276   -17252898.773 7 -13253069.249 2
 90 10 17 13  4 14.9990000  0  5 02 06 15 13 09
  21566746.417     3255966.423 7   2757097.823 2
  20186111.331   -11383440.871 7  -8787890.483 3
  23707169.823    -5777179.692 5   1100868.300 1
  20406161.925   -22997822.618 7 -16659375.622 2
  21303148.097   -17292591.099 7 -13283998.332 2
 90 10 17 13  4 29.9990000  0  5 02 06 15 13 09
  21570115.987     3273681.078 7   2770901.433 2
  20185900.909   -11384546.313 7  -8788751.867 2
  23710916.089    -5757515.536 5   1116191.026 1
  20401515.394   -23022244.123 7 -16678405.362 2
  21295609.112   -17332207.075 7 -13314867.918 2
 90 10 17 13  4 44.9990000  0  5 02 06 15 13 09
  21573496.315     3291442.415 7   2784741.429 2
  20185716.354   -11385518.753 7  -8789509.613 3
  23714685.347    -5737717.886 6   1131617.776 1
  20396896.175   -23046523.543 7 -16697324.384 2
  21288084.284   -17371743.258 7 -13345675.322 2
 90 10 17 13  4 59.9990000  0  5 02 06 15 13 09
  21576884.769     3309249.839 7   2798617.331 2
  20185554.198   -11386358.559 7  -8790164.009 2
  23718475.105    -5717787.346 6   1147148.036 1
  20392302.823   -23070661.120 7 -16716132.879 2
  21280575.401   -17411199.724 7 -13376420.620 2
 90 10 17 13  5 14.9990000  0  5 02 06 15 13 09
  21580282.003     3327103.262 7   2812529.081 2
  20185422.722   -11387065.650 7  -8790714.999 3
  23722290.839    -5697724.363 5   1162781.507 1
  20387736.472   -23094657.052 7 -16734830.998 2
  21273084.995   -17450576.290 7 -13407103.658 2
 90 10 17 13  5 29.9990000  0  5 02 06 15 13 09
  21583689.573     3345000.650 7   2826475.080 2
  20185312.839   -11387642.093 7  -8791164.174 3
  23726135.269    -5677531.314 5   1178516.363 1
  20383197.425   -23118513.173 7 -16753420.179 2
  21265605.370   -17489874.672 7 -13437725.762 2
 90 10 17 13  5 44.9990000  0  5 02 06 15 13 09
  21587103.722     3362943.447 7   2840456.459 2
  20185226.440   -11388086.200 7  -8791510.244 3
  23730007.636    -5657207.049 5   1194353.425 1
  20378681.987   -23142228.005 7 -16771899.261 2
  21258142.542   -17529093.187 7 -13468285.652 2
 90 10 17 13  5 59.9990000  0  5 02 06 15 13 09
  21590525.878     3380928.664 7   2854470.911 2
  20185168.183   -11388400.837 7  -8791755.405 2
  23733895.073    -5636754.615 5   1210290.324 1
  20374196.081   -23165804.705 7 -16790270.707 2
  21250695.354   -17568234.517 7 -13498785.380 2
 90 10 17 13  6 14.9990000  0  5 02 06 15 13 09
  21593957.597     3398958.691 7   2868520.259 2
  20185134.331   -11388583.430 7
  23737810.729    -5616171.811 5   1226328.846 1
  20369736.042   -23189241.018 7 -16808532.762 2
  21243261.956   -17607295.982 7 -13529222.888 2
 90 10 17 13  6 29.9990000  0  5 02 06 15 13 09
  21597394.433     3417035.615 7   2882606.161 2
  20185124.894   -11388631.876 7
  23741753.597    -5595456.540 5   1242470.584 1
  20365304.933   -23212534.927 7 -16826683.852 2
  21235843.956   -17646274.952 7 -13559596.109 2
 90 10 17 13  6 44.9990000  0  5 02 06 15 13 09
  21600844.292     3435158.006 7   2896727.491 2
  20185137.792   -11388547.420 7
  23745721.628    -5574610.461 5   1258714.235 1
  20360898.253   -23235687.534 7 -16844724.838 2
  21228441.409   -17685172.503 7 -13589905.886 2
 90 10 17 13  6 59.9990000  0  5 02 06 15 13 09
  21604301.261     3453324.030 7   2910882.816 2
  20185177.901   -11388331.853 7
  23749711.878    -5553635.987 5   1275057.930 1
  20356519.183   -23258700.865 7 -16862657.288 2
  21221055.136   -17723990.682 7 -13620153.813 2
 90 10 17 13  7 14.9990000  0  5 02 06 15 13 09
  21607767.026     3471535.319 7   2925073.415 2
  20185246.722   -11387983.242 7
  23753725.933    -5532531.513 5   1291502.915 1
  20352166.714   -23281573.165 7 -16880479.851 2
  21213684.440   -17762727.032 7 -13650337.981 2
 90 10 17 13  7 29.9990000  0  5 02 06 15 13 09
  21611241.097     3489789.663 7   2939297.563 2
  20185338.925   -11387503.645 7        -0.31813
  23757769.065    -5511299.429 5   1308047.346 1
  20347840.644   -23304306.567 7 -16898194.174 2
  21206327.073   -17801383.485 7 -13680459.894 2
 90 10 17 13  7 44.9990000  0  5 02 06 15 13 09
  21614722.979     3508088.074 7   2953556.047 2
  20185455.487   -11386892.069 7       476.234 3
  23761833.909    -5489938.758 5   1324691.987 1
  20343541.534   -23326900.263 7 -16915799.647 2
  21198986.526   -17839958.782 7 -13710518.564 2
 90 10 17 13  7 59.9990000  0  5 02 06 15 13 09
  21618213.269     3526430.513 7   2967848.841 2
  20185596.472   -11386148.484 7      1055.643 3
  23765921.433    -5468449.947 5   1341436.483 1
  20339267.558   -23349354.294 7 -16933296.280 2
  21191661.792   -17878452.742 7 -13740513.853 2
 90 10 17 13  8 14.9990000  0  5 02 06 15 13 09
  21621713.175     3544816.492 7   2982175.564 2
  20185761.659   -11385273.114 7      1737.742 2
  23770033.698    -5446833.602 5   1358280.360 1
  20335022.917   -23371668.972 7 -16950684.343 2
  21184352.729   -17916865.489 7 -13770445.852 2
 90 10 17 13  8 29.9990000  0  5 02 06 15 13 09
  21625217.948     3563243.878 7   2996534.549 2
  20185953.144   -11384267.949 7      2520.979 3
  23774174.026    -5425091.911 5   1375221.898 1
  20330801.519   -23393846.601 7 -16967965.597 2
  21177056.972   -17955198.778 7 -13800315.954 2
 90 10 17 13  8 44.9990000  0  5 02 06 15 13 09
  21628734.183     3581717.397 7   3010929.477 2
  20186168.792   -11383128.241 7      3409.058 3
  23778340.378    -5403220.746 5   1392264.362 1
  20326608.519   -23415882.348 7 -16985136.304 2
  21169777.409   -17993447.473 7 -13830120.130 2
 90 10 17 13  8 59.9990000  0  5 02 06 15 13 09
  21632258.073     3600235.260 7   3025358.962 2
  20186412.308   -11381855.710 7      4400.637 2
  23782522.526    -5381221.824 5   1409406.363 1
  20322441.722   -23437777.995 7 -17002197.845 2
  21162517.534   -18031613.151 7 -13859859.616 2
 90 10 17 13  9 14.9990000  0  5 02 06 15 13 09
  21635790.855     3618798.498 7   3039823.803 2
  20186680.526   -11380448.980 7      5496.787 2
  23786730.980    -5359094.545 5   1426648.371 1
  20318302.636   -23459532.616 7 -17019149.492 2
  21155271.354   -18069694.471 7 -13889533.354 2
 90 10 17 13  9 29.9990000  0  5 02 06 15 13 09
  21639330.730     3637407.074 7   3054323.973 2
  20186973.284   -11378908.158 7      6697.427 2
  23790968.058    -5336839.074 5   1443990.267 1
  20314189.276   -23481146.385 7 -17035991.383 2
  21148039.206   -18107691.077 7 -13919141.080 2
 90 10 17 13  9 44.9990000  0  5 02 06 15 13 09
  21642881.292     3656058.058 7   3068857.187 2
  20187291.479   -11377235.825 7      8000.539 2
  23795226.050    -5314458.092 5   1461429.942 1
  20310101.683   -23502621.930 7 -17052725.561 2
  21140824.198   -18145605.451 7 -13948684.753 2
 90 10 17 13  9 59.9990000  0  5 02 06 15 13 09
  21646438.315     3674754.729 7   3083426.000 2
  20187636.237   -11375428.934 7      9408.501 3
  23799508.815    -5291949.009 5   1478969.456 1
  20306042.683   -23523956.009 7 -17069349.513 2
  21133625.597   -18183434.231 7 -13978161.727 2
 90 10 17 13 10 14.9990000  0  5 02 06 15 13 09
  21650006.144     3693497.840 7   3098031.006 2
  20188005.847   -11373486.374 7     10922.183 3
  23803811.854    -5269311.316 5   1496609.198 1
  20302009.878   -23545148.234 7 -17085862.923 2
  21126442.261   -18221176.453 7 -14007571.251 2
 90 10 17 13 10 29.9990000  0  5 02 06 15 13 09
  21653579.956     3712285.745 7   3112670.912 2
  20188400.026   -11371409.839 7     12540.258 3
  23808152.948    -5246546.783 5   1514347.747 1
  20298004.667   -23566200.130 7 -17102266.995 2
  21119277.870   -18258833.256 7 -14036914.203 2
 90 10 17 13 10 44.9990000  0  5 02 06 15 13 09
  21657164.870     3731116.400 7   3127344.131 2
  20188821.214   -11369201.144 7     14261.315 2
  23812506.323    -5223657.583 5   1532183.475 1
  20294024.128   -23587113.554 7 -17118563.159 2
  21112128.104   -18296406.338 7 -14066191.927 2
 90 10 17 13 10 59.9990000  0  5 02 06 15 13 09
  21660756.440     3749995.865 7   3142055.379 2
  20189265.878   -11366854.336 7     16089.994 3
  23816889.253    -5200637.934 5   1550120.792 1
  20290071.112   -23607882.954 7 -17134747.102 2
  21104997.034   -18333889.509 7 -14095399.592 2
 90 10 17 13 11 14.9990000  0  5 02 06 15 13 09
  21664357.558     3768921.740 7   3156802.788 2
  20189739.839   -11364371.538 7     18024.635 2
  23821290.526    -5177490.688 5   1568157.570 1
  20286146.714   -23628510.625 7 -17150820.606 2
  21097879.167   -18371284.750 7 -14124538.737 2
 90 10 17 13 11 29.9990000  0  5 02 06 15 13 09
  21667968.183     3787890.945 7   3171583.971 2
  20190238.386   -11361755.680 7     20062.959 2
  23825718.792    -5154219.118 5   1586291.220 1
  20282247.659   -23648999.464 7 -17166785.922 2
  21090778.745   -18408594.813 7 -14153611.514 2
 90 10 17 13 11 44.9990000  0  5 02 06 15 13 09
  21671585.050     3806902.578 7   3186398.197 2
  20190761.394   -11359007.641 7     22204.273 2
  23830173.261    -5130824.139 5   1604521.013 1
  20278375.534   -23669350.406 7 -17182643.789 2
  21083695.628   -18445820.110 7 -14182618.238 2
 90 10 17 13 11 59.9990000  0  5 02 06 15 13 09
  21675212.190     3825958.055 7   3201246.602 2
  20191309.323   -11356125.942 7     24449.747 2
  23834645.487    -5107304.554 5   1622847.934 1
  20274528.362   -23689561.976 7 -17198393.052 2
  21076628.722   -18482959.061 7 -14211557.685 2
 90 10 17 13 12 14.9990000  0  6 02 06 12 15 13 09
  21678849.011     3845059.354 7   3216130.713 2
  20191883.183   -11353108.472 7     26801.007 3
  24590951.050          -0.78614
  23839142.104    -5083658.942 5   1641273.049 1
  20270709.956   -23709632.518 7 -17214032.421 2
  21069578.339   -18520009.520 7 -14240428.182 2
 90 10 17 13 12 29.9990000  0  6 02 06 12 15 13 09
  21682490.487     3864205.704 7   3231049.912 2
  20192482.698   -11349955.817 7     29257.611 2
  24580897.347      -52813.083 4
  23843665.448    -5059888.123 5   1659795.726 1
  20266917.354   -23729562.575 7 -17229562.336 2
  21062542.206   -18556971.716 7 -14269229.898 2
 90 10 17 13 12 44.9990000  0  6 02 06 12 15 13 09
  21686141.925     3883397.354 7   3246004.428 2
  20193109.269   -11346667.622 7     31819.829 2
  24570849.690     -105630.532 4
  23848218.636    -5035991.839 5   1678416.161 1
  20263150.355   -23749352.108 7 -17244982.739 2
  21055528.042   -18593844.941 7 -14297962.287 2
 90 10 17 13 12 59.9990000  0  6 02 06 12 15 13 09
  21689802.167     3902632.730 7   3260993.005 2
  20193759.948   -11343245.398 7     34486.486 2
  24560798.409     -158454.618 4
  23852792.651    -5011972.221 5   1697132.697 1
  20259411.745   -23769002.658 7 -17260294.846 2
  21048526.706   -18630630.768 7 -14326626.568 2
 90 10 17 13 13 14.9990000  0  6 02 06 12 15 13 09
  21693473.323     3921914.129 7   3276017.450 2
  20194437.847   -11339686.785 7     37259.432 3
  24550747.206     -211283.052 4
  23857379.940    -4987826.980 5   1715947.136 1
  20255698.675   -23788511.799 7 -17275496.772 2
  21041544.730   -18667326.498 7 -14355220.645 2
 90 10 17 13 13 29.9990000  0  6 02 06 12 15 13 09
  21697146.792     3941235.589 7   3291073.112 2
  20195139.448   -11335997.667 7     40134.057 3
  24540691.628     -264121.434 4        -0.14311
  23861999.042    -4963562.643 5   1734854.373 1
  20252011.948   -23807885.719 7 -17290593.325 2
  21034576.386   -18703937.699 7 -14383748.844 2
 90 10 17 13 13 44.9990000  0  6 02 06 12 15 13 09
  21700833.644     3960598.793 7   3306161.300 2
  20195866.558   -11332176.143 7     43111.859 2
  24530634.464     -316967.766 4
  23866641.698    -4939177.297 5   1753855.879 1
  20248351.909   -23827122.619 7 -17305583.117 2
  21027625.995   -18740462.103 7 -14412209.413 2
 90 10 17 13 13 59.9990000  0  6 02 06 12 15 13 09
  21704526.511     3980003.830 7   3321282.078 2
  20196619.667   -11328222.029 7     46192.976 2
  24520576.573     -369821.859 3
  23871305.167    -4914671.366 5   1772951.361 1
  20244717.237   -23846222.534 7 -17320466.161 2
  21020693.862   -18776899.741 7 -14440602.378 2
 90 10 17 13 14 14.9990000  0  6 02 06 12 15 13 09
  21708226.698     3999452.857 7   3336437.144 2
  20197397.495   -11324133.017 7     49379.220 3
  24510519.440     -422681.368 3
  23875990.308    -4890042.843 5   1792142.400 1
  20241108.776   -23865183.376 7 -17335240.834 2
  21013775.972   -18813247.996 7 -14468925.698 2
 90 10 17 13 14 29.9990000  0  6 02 06 12 15 13 09
  21711935.839     4018946.286 7   3351626.806 2
  20198202.605   -11319908.955 7     52670.681 2
  24500461.769     -475545.802 3
  23880699.690    -4865291.809 5   1811428.894 1
  20237526.550   -23884004.930 7 -17349906.973 2
  21006874.847   -18849506.145 7 -14497178.799 2
 90 10 17 13 14 44.9990000  0  6 02 06 12 15 13 09
  21715654.839     4038489.281 7   3366855.085 2
  20199032.136   -11315544.547 7     56071.514 2
  24490401.690     -528409.675 3
  23885434.784    -4840413.101 5   1830814.863 1
  20233973.776   -23902682.057 7 -17364460.574 2
  20999994.878   -18885668.562 7 -14525357.307 2
 90 10 17 13 14 59.9990000  0  6 02 06 12 15 13 09
  21719382.972     4058075.361 7   3382116.939 2
  20199887.729   -11311045.868 7     59576.980 3
  24480338.847     -581279.201 2        -0.09111
  23890194.019    -4815413.309 5   1850295.164 1
  20230445.011   -23921221.062 7 -17378906.550 2
  20993130.534   -18921741.569 7 -14553466.143 2
 90 10 17 13 15 14.9990000  0  6 02 06 12 15 13 09
  21723118.175     4077701.230 7   3397409.797 2
  20200767.769   -11306416.233 7     63184.483 3
  24470269.698     -634157.502 2    -41203.973 1
  23894973.112    -4790296.045 5   1869867.006 1
  20226943.097   -23939625.455 7 -17393247.630 2
  20986281.222   -18957728.142 7 -14581507.630 2
 90 10 17 13 15 29.9990000  0  6 02 06 12 15 13 09
  21726859.901     4097369.093 7   3412735.366 2
  20201674.269   -11301653.466 7     66895.722 3
  24460210.104     -687042.263 3    -82412.877 1
  23899775.292    -4765059.666 5   1889531.693 1
  20223466.909   -23957892.983 7 -17407482.063 2
  20979451.120   -18993625.632 7 -14609479.705 2
 90 10 17 13 15 44.9990000  0  6 02 06 12 15 13 09
  21730612.011     4117085.474 7   3428098.760 2
  20202607.878   -11296750.971 7     70715.841 3
  24450147.190     -739926.586 3   -123621.448 1
  23904601.011    -4739697.777 5   1909294.163 1
  20220018.894   -23976017.031 7 -17421604.698 2
  20972638.394   -19029427.215 7 -14637377.050 2
 90 10 17 13 15 59.9990000  0  6 02 06 12 15 13 09
  21734374.097     4136847.772 7   3443497.931 2
  20203566.378   -11291711.176 7     74642.947 3
  24440088.292     -792812.981 4   -164831.630 1
  23909450.464    -4714213.019 5   1929152.397 1
  20216596.120   -23994000.578 7 -17435617.853 2
  20965845.112   -19065135.493 7 -14665201.686 2
 90 10 17 13 16 14.9990000  0  6 02 06 12 15 13 09
  21738140.581     4156654.572 7   3458931.771 2
  20204551.831   -11286535.461 7     78675.959 3
  24430021.909     -845702.705 4   -206044.392 1
  23914325.612    -4688607.257 5   1949104.865 1
  20213200.847   -24011845.310 7 -17449522.838 2
  20959065.612   -19100751.231 7 -14692954.201 2
 90 10 17 13 16 29.9990000  0  6 02 06 12 15 13 09
  21741919.800     4176507.871 7   3474401.846 2
  20205562.089   -11281221.797 7     82816.476 2
  24419957.198     -898593.549 4   -247258.016 1
  23919221.058    -4662878.469 5   1969153.230 1
  20209830.581   -24029548.766 7 -17463317.733 2
  20952307.675   -19136272.220 7 -14720632.901 2
 90 10 17 13 16 44.9990000  0  6 02 06 12 15 13 09
  21745707.394     4196403.682 7   3489905.045 2
  20206599.104   -11275773.979 7     87061.520 3
  24409886.276     -951489.133 4   -288475.316 1
  23924135.565    -4637031.225 5   1989293.900 1
  20206488.792   -24047115.050 7 -17477005.748 2
  20945564.339   -19171702.030 7 -14748240.542 2
 90 10 17 13 16 59.9990000  0  6 02 06 12 15 13 09
  21749499.519     4216342.831 7   3505442.005 2
  20207661.917   -11270191.185 7     91411.743 3
  24399824.479    -1004388.544 5   -329695.639 1
  23929078.003    -4611064.955 5   2009527.328 1
  20203172.800   -24064543.646 7 -17490586.463 2
  20938839.948   -19207039.482 7 -14775776.219 2
 90 10 17 13 17 14.9990000  0  6 02 06 12 15 13 09
  21753303.792     4236325.384 7   3521012.801 2
  20208750.815   -11264473.229 7     95867.280 2
  24389755.409    -1057291.484 5   -370918.731 1
  23934046.925    -4584979.694 5   2029853.448 1
  20199881.347   -24081834.461 7 -17504059.823 2
  20932133.183   -19242284.387 7 -14803239.783 2
 90 10 17 13 17 29.9990000  0  6 02 06 12 15 13 09
  21757114.026     4256355.131 7   3536620.360 2
  20209862.644   -11258616.353 7    100431.072 2
  24379688.323    -1110194.051 5   -412141.534 1
  23939031.440    -4558771.893 5   2050275.051 1
  20196618.417   -24098983.758 7 -17517422.914 2
  20925444.448   -19277432.489 7 -14830627.925 2
 90 10 17 13 17 44.9990000  0  6 02 06 12 15 13 09
  21760933.854     4276430.245 7   3552263.272 2
  20211005.644   -11252622.467 7    105101.621 2
  24369621.065    -1163097.875 4   -453365.299 1
  23944038.394    -4532443.694 5   2070790.469 1
  20193382.019   -24115993.445 7 -17530677.208 2
  20918775.073   -19312485.535 7 -14857941.987 2
 90 10 17 13 17 59.9990000  0  6 02 06 12 15 13 09
  21764763.808     4296550.170 7   3567941.100 2
  20212170.769   -11246491.912 7    109878.663 3
  24359552.214    -1216003.277 4   -494590.277 1
  23949072.979    -4505995.963 5   2091399.035 1
  20190171.948   -24132864.292 7 -17543823.310 2
  20912122.050   -19347443.771 7 -14885182.159 2
 90 10 17 13 18 14.9990000  0  6 02 06 12 15 13 09
  21768600.815     4316716.632 6   3583655.184 2
  20213365.542   -11240222.766 7    114763.689 3
  24349485.519    -1268908.064 4   -535814.813 1
  23954127.456    -4479427.039 5   2112102.055 1
  20186987.198   -24149594.516 7 -17556859.859 2
  20905489.995   -19382304.831 7 -14912346.624 2
 90 10 17 13 18 29.9990000  0  6 02 06 12 15 13 09
  21772445.761     4336928.127 7   3599404.355 2
  20214583.370   -11233816.522 7    119755.559 3
  24339418.089    -1321813.611 4   -577039.921 1
  23959206.401    -4452739.145 5   2132897.739 1
  20183830.276   -24166185.867 7 -17569788.187 2
  20898871.870   -19417070.108 7 -14939436.463 2
 90 10 17 13 18 44.9990000  0  6 02 06 12 15 13 09
  21776300.987     4357183.733 7   3615187.912 2
  20215829.206   -11227273.996 7    124853.613 3
  24329348.948    -1374720.686 4   -618266.213 1
  23964311.995    -4425933.024 5   2153785.561 1
  20180699.245   -24182639.131 7 -17582608.907 2
  20892276.612   -19451740.217 7 -14966452.133 2
 90 10 17 13 18 59.9990000  0  6 02 06 12 15 13 09
  21780165.472     4377485.837 7   3631007.693 2
  20217100.511   -11220592.517 7    130059.961 3
  24319280.089    -1427626.411 3   -659491.460 1
  23969432.214    -4399006.200 5   2174767.435 1
  20177595.503   -24198951.678 7 -17595319.985 2
  20885695.808   -19486312.156 7 -14993391.298 2
 90 10 17 13 19 14.9990000  0  6 02 06 12 15 13 09
  21784036.479     4397831.187 7   3646861.168 2
  20218397.886   -11213775.310 7    135372.054 3
  24309208.433    -1480533.908 3   -700718.061 1
  23974578.620    -4371962.345 5   2195840.502 1
  20174517.995   -24215127.028 7 -17607924.147 2
  20879136.190   -19520788.737 7 -15020256.172 2
 90 10 17 13 19 29.9990000  0  6 02 06 12 15 13 09
  21787918.292     4418223.329 7   3662751.115 2
  20219720.854   -11206819.339 7    140792.285 2
  24299146.183    -1533439.812 4   -741943.423 1
  23979749.370    -4344798.864 5   2217006.807 1
  20171465.995   -24231161.782 7 -17620418.760 2
  20872594.558   -19555166.750 7 -15047044.233 2
 90 10 17 13 19 44.9990000  0  6 02 06 12 15 13 09
  21791805.089     4438654.687 7   3678671.613 2
  20221069.847   -11199731.927 7    146314.917 3
  24289078.753    -1586351.488 4   -783173.287 1
  23984940.550    -4317523.484 6   2238260.306 1
  20168439.729   -24247063.755 7 -17632809.897 2
  20866068.659   -19589453.167 7 -15073760.921 2
 90 10 17 13 19 59.9990000  0  6 02 06 12 15 13 09
  21795698.761     4459129.320 6   3694625.835 2
  20222444.761   -11192508.718 7    151943.378 3
  24279007.808    -1639264.495 4   -824404.196 1
  23990149.698    -4290132.134 5   2259604.159 1
  20165440.183   -24262828.907 7 -17645094.431 2
  20859561.722   -19623643.771 7 -15100402.954 2
 90 10 17 13 20 14.9990000  0  6 02 06 12 15 13 09
  21799607.909     4479655.228 7   3710620.014 2
  20223846.315   -11185141.643 7    157683.943 3
  24268941.487    -1692170.420 4   -865629.600 1
  23995383.925    -4262616.783 5   2281044.621 1
  20162467.065   -24278449.248 7 -17657266.122 2
  20853077.222   -19657729.996 7 -15126963.655 2
 90 10 17 13 20 29.9990000  0  6 02 06 12 15 13 09
  21803519.972     4500227.109 6   3726650.011 2
  20225275.323   -11177636.048 7    163532.433 3
  24258874.558    -1745074.495 4   -906853.537 1
  24000644.886    -4234983.298 5   2302577.148 1
  20159521.354   -24293930.161 7 -17669329.172 2
  20846608.979   -19691716.771 7 -15153446.864 2
 90 10 17 13 20 44.9990000  0  6 02 06 12 15 13 09
  21807446.105     4520843.919 7   3742715.028 2
  20226729.729   -11169992.795 7    169488.213 3
  24248805.565    -1797977.486 3   -948076.629 1
  24005928.604    -4207232.904 6   2324200.746 1
  20156601.620   -24309272.911 7 -17681284.559 2
  20840160.597   -19725604.884 7 -15179853.194 2
 90 10 17 13 20 59.9990000  0  6 02 06 12 15 13 09
  21811376.644     4541505.258 7   3758814.727 2
  20228211.144   -11162212.494 7    175550.773 3
  24238735.558    -1850879.689 3   -989299.121 1
  24011231.214    -4179366.622 6   2345914.655 1
  20153708.526   -24324478.028 7 -17693132.700 2
  20833729.198   -19759394.712 7 -15206182.935 2
 90 10 17 13 21 14.9990000  0  6 02 06 12 15 13 09
  21815317.683     4562210.593 7   3774948.718 2
  20229716.620   -11154295.506 7    181719.844 3
  24228670.620    -1903781.412 4  -1030521.198 1
  24016552.651    -4151384.922 5   2367718.532 1
  20150842.261   -24339546.050 7 -17704874.012 2
  20827318.550   -19793086.111 7 -15232435.968 2
 90 10 17 13 21 29.9990000  0  6 02 06 12 15 13 09
  21819264.901     4582960.755 7   3791117.630 2
  20231249.128   -11146240.946 7    187996.113 3
  24218606.370    -1956681.515 4  -1071742.074 1
  24021901.573    -4123287.252 5   2389612.768 1
  20148000.644   -24354476.307 7 -17716507.979 2
  20820925.495   -19826678.088 7 -15258611.547 2
 90 10 17 13 21 44.9990000  0  6 02 06 12 15 13 09
  21823222.581     4603758.098 7   3807323.315 2
  20232808.292   -11138046.314 7    194381.524 3
  24208541.722    -2009577.437 4  -1112959.657 1
  24027269.784    -4095071.584 5   2411598.952 1
  20145185.948   -24369266.488 7 -17728032.795 2
  20814553.940   -19860167.774 7 -15284707.412 2
 90 10 17 13 21 59.9990000  0  6 02 06 12 15 13 09
  21827191.058     4624601.963 7   3823565.243 2
  20234394.339   -11129712.312 7    200875.542 3
  24198475.651    -2062469.656 4  -1154174.352 1
  24032661.839    -4066738.810 5   2433676.356 1
  20142398.019   -24383917.003 7 -17739448.776 2
  20808200.714   -19893556.079 7 -15310724.274 2
 90 10 17 13 22 14.9990000  0  6 02 06 12 15 13 09
  21831164.683     4645491.184 6   3839842.523 2
  20236007.136   -11121239.951 7    207477.366 3
  24188415.034    -2115359.014 4  -1195386.794 1
  24038075.128    -4038290.162 5   2455844.055 1
  20139635.425   -24398429.440 7 -17750757.164 2
  20801865.894   -19926843.151 7 -15336662.256 2
 90 10 17 13 22 29.9990000  0  6 02 06 12 15 13 09
  21835149.354     4666427.402 6   3856156.422 2
  20237645.729   -11112627.837 7    214188.084 3
  24178347.487    -2168243.848 4  -1236595.786 1
  24043511.870    -4009724.947 5   2478102.609 1
  20136900.729   -24412802.157 7 -17761956.681 2
  20795551.823   -19960027.414 7 -15362520.127 2
 90 10 17 13 22 44.9990000  0  6 02 06 12 15 13 09
  21839141.862     4687411.143 6   3872507.353 2
  20239311.058   -11103875.425 7    221008.127 3
  24168283.722    -2221123.362 4  -1277800.603 1
  24048969.284    -3981042.875 5   2500452.240 1
  20134192.417   -24427034.970 7 -17773047.175 2
  20789255.034   -19993108.384 7 -15388297.512 2
 90 10 17 13 22 59.9990000  0  6 02 06 12 15 13 09
  21843144.175     4708439.219 6   3888892.835 2
  20241002.378   -11094985.744 7    227935.137 3
  24158219.597    -2274000.556 4  -1319003.613 1
  24054451.019    -3952247.106 5   2522890.473 1
  20131509.097   -24441130.982 7 -17784031.079 2
  20782980.339   -20026088.638 7 -15413996.420 2
 90 10 17 13 23 14.9990000  0  6 02 06 12 15 13 09
  21847153.612     4729509.556 6   3905311.243 2
  20242720.433   -11085960.900 7    234967.472 3
  24148162.714    -2326877.293 4  -1360206.254 1
  24059952.440    -3923340.211 5   2545415.223 1
  20128853.175   -24455092.399 7 -17794910.099 2
  20776724.558   -20058970.035 7 -15439618.286 2
 90 10 17 13 23 29.9990000  0  6 02 06 12 15 13 09
  21851171.526     4750627.643 6   3921766.861 2
  20244464.355   -11076795.145 7    242109.607 3
  24138099.206    -2379747.697 4  -1401403.959 1
  24065471.479    -3894316.398 5   2568031.109 1
  20126222.589   -24468913.796 7 -17805680.014 2
  20770485.519   -20091746.445 7 -15465158.346 2
 90 10 17 13 23 44.9990000  0  6 02 06 12 15 13 09
  21855200.073     4771792.921 7   3938259.245 2
  20246234.683   -11067488.983 7    249361.144 3
  24128036.730    -2432611.858 4  -1442596.807 1
  24071015.761    -3865177.062 5   2590737.010 1
  20123619.597   -24482595.538 7 -17816341.113 2
  20764269.425   -20124418.083 7 -15490616.768 2
 90 10 17 13 23 59.9990000  0  6 02 06 12 15 13 09
  21859235.511     4793005.780 6   3954788.711 2
  20248032.628   -11058041.980 7    256722.428 3
  24117982.612    -2485469.199 4  -1483784.289 1
  24076585.909    -3835921.444 5   2613533.512 1
  20121041.667   -24496137.419 7 -17826893.232 2
  20758072.206   -20156984.177 7 -15515992.940 2
 90 10 17 13 24 14.9990000  0  6 02 06 12 15 13 09
  21863281.308     4814265.421 6   3971354.625 2
  20249857.097   -11048454.971 7    264192.807 3
  24107925.901    -2538320.598 5  -1524967.181 1
  24082177.675    -3806550.948 5   2636419.541 1
  20118492.354   -24509540.624 7 -17837337.289 2
  20751893.487   -20189445.614 7 -15541287.561 2
 90 10 17 13 24 29.9990000  0  6 02 06 12 15 13 09
  21867336.573     4835571.508 6   3987956.730 2
  20251709.019   -11038728.376 7    271771.950 3
  24097867.964    -2591166.263 4  -1566145.600 1
  24087785.308    -3777066.419 5   2659394.416 1
  20115968.284   -24522805.519 7 -17847673.577 2
  20745736.167   -20221802.405 7 -15566500.647 2
 90 10 17 13 24 44.9990000  0  6 02 06 12 15 13 09
  21871399.339     4856923.823 6   4004594.858 2
  20253584.854   -11028862.352 7    279459.748 3
  24087810.948    -2644006.110 4  -1607319.486 1
  24093420.886    -3747468.133 5   2682457.918 1
  20113469.433   -24535932.541 7 -17857902.427 2
  20739599.104   -20254054.169 7 -15591631.897 2
 90 10 17 13 24 59.9990000  0  6 02 06 12 15 13 09
  21875470.870     4878322.815 6   4021269.356 2
  20255489.667   -11018856.276 7    287256.677 3
  24077759.823    -2696839.406 4  -1648488.245 1
  24099069.526    -3717756.123 5   2705610.064 1
  20110999.573   -24548921.167 7 -17868023.435 2
  20733482.261   -20286200.563 7 -15616681.042 2
 90 10 17 13 25 14.9990000  0  6 02 06 12 15 13 09
  21879551.659     4899770.795 6   4037982.032 2
  20257421.331   -11008708.131 7    295164.308 3
  24067706.300    -2749663.413 4  -1689649.796 1
  24104743.792    -3687928.184 5   2728852.575 1
  20108553.479   -24561769.363 7 -17878035.018 2
  20727387.690   -20318238.521 7 -15641645.687 2
 90 10 17 13 25 29.9990000  0  6 02 06 12 15 13 09
  21883642.800     4921264.248 6   4054730.133 2
  20259379.362   -10998420.982 7    303180.251 3
  24057652.511    -2802481.452 4  -1730806.705 1
  24110447.315    -3657988.329 5   2752182.281 1
  20106134.729   -24574480.801 7 -17887940.038 2
  20721309.245   -20350171.301 7 -15666528.374 2
 90 10 17 13 25 44.9990000  0  6 02 06 12 15 13 09
  21887741.237     4942800.263 6   4071511.403 2
  20261362.323   -10987997.889 7    311302.130 3
  24047605.464    -2855296.424 4  -1771961.209 1
  24116167.401    -3627939.613 5   2775596.781 1
  20103740.347   -24587058.498 7 -17897740.841 2
  20715252.534   -20382001.747 7 -15691331.322 2
 90 10 17 13 25 59.9990000  0  6 02 06 12 15 13 09
  21891848.440     4964385.087 6   4088330.708 2
  20263373.120   -10977432.734 7    319534.697 3
  24037559.808    -2908101.744 4  -1813108.228 1
  24121904.386    -3597775.971 5   2799100.821 1
  20101374.409   -24599496.204 7 -17907432.562 2
  20709215.229   -20413723.040 7 -15716049.219 2
 90 10 17 13 26 14.9990000  0  6 02 06 12 15 13 09
  21895963.159     4986016.522 6   4105186.331 2
  20265408.909   -10966727.437 7    327876.461 3
  24027511.315    -2960899.367 5  -1854249.208 1
  24127663.073    -3567500.068 4   2822692.334 1
  20099033.370   -24611796.395 7 -17917017.127 2
  20703200.284   -20445337.355 7 -15740683.756 2
 90 10 17 13 26 29.9990000  0  6 02 06 12 15 13 09
  21900091.089     5007696.743 7   4122079.965 2
  20267474.339   -10955879.866 7    336329.104 3
  24017466.737    -3013686.636 5  -1895382.130 1
  24133439.550    -3537109.886 4   2846372.898 1
  20096718.862   -24623956.735 7 -17926492.715 2
  20697205.362   -20476841.926 7 -15765232.780 2
 90 10 17 13 26 44.9990000  0  6 02 06 12 15 13 09
  21904225.323     5029423.909 6   4139010.191 2
  20269565.206   -10944892.005 7    344891.052 3
  24007424.190    -3066465.507 5  -1936508.502 1
  24139252.745    -3506607.790 5   2870140.738 1
  20094430.487   -24635979.158 7 -17935860.841 2
  20691229.065   -20508238.583 7 -15789697.722 2
 90 10 17 13 26 59.9990000  0  6 02 06 12 15 13 09
  21908367.940     5051195.289 6   4155974.853 2
  20271682.612   -10933766.519 7    353560.240 3
  23997377.526    -3119238.325 5  -1977630.155 1
  24145081.894    -3475996.527 5   2893993.581 1
  20092169.683   -24647866.733 7 -17945123.886 2
  20685276.292   -20539529.557 7 -15814080.303 2
 90 10 17 13 27 14.9990000  0  6 02 06 12 15 13 09
  21912520.776     5073014.005 6   4172976.416 2
  20273826.479   -10922499.991 7    362339.339 3
  23987339.706    -3172001.487 5  -2018744.280 1
  24150924.550    -3445273.308 5   2917933.669 1
  20089933.995   -24659616.176 7 -17954279.303 2
  20679340.425   -20570711.063 7 -15838377.584 2
 90 10 17 13 27 29.9990000  0  6 02 06 12 15 13 09
  21916681.511     5094879.989 6   4190014.805 2
  20275996.394   -10911092.849 7    371228.009 3
  23977297.940    -3224755.311 5  -2059851.161 1
  24156786.565    -3414438.849 4   2941960.399 1
  20087723.519   -24671228.000 7 -17963327.475 2
  20673428.987   -20601783.576 7 -15862589.940 2
 90 10 17 13 27 44.9990000  0  6 02 06 12 15 13 09
  21920851.737     5116794.338 6   4207090.880 2
  20278194.675   -10899543.873 7    380227.195 3
  23967265.722    -3277498.254 5  -2100949.547 1
  24162677.440    -3383491.900 4   2966074.798 1
  20085541.433   -24682701.074 7 -17972267.537 2
  20667537.558   -20632745.312 7 -15886715.969 2
 90 10 17 13 27 59.9990000  0  6 02 06 12 15 13 09
  21925031.206     5138760.859 6   4224207.593 2
  20280417.761   -10887849.428 7    389339.724 3
  23957231.604    -3330226.543 5  -2142036.521 1
  24168590.698    -3352429.306 5   2990279.323 1
  20083384.151   -24694031.890 7 -17981096.752 2
  20661666.433   -20663592.360 7 -15910752.638 2
 90 10 17 13 28 14.9990000  0  6 02 06 12 15 13 09
  21929220.011     5160771.820 6   4241358.950 2
  20282672.011   -10876017.003 7    398559.778 3
  23947194.698    -3382947.330 5  -2183117.648 1
  24174527.690    -3321259.172 5   3014567.659 1
  20081253.698   -24705228.173 7 -17989821.140 2
  20655818.315   -20694332.081 7 -15934705.672 2
 90 10 17 13 28 29.9990000  0  6 02 06 12 15 13 09
  21933416.925     5182829.463 6   4258546.677 2
  20284948.808   -10864044.412 7    407889.048 3
  23937163.206    -3435658.233 4  -2224191.078 1
  24180477.854    -3289979.133 5   3038941.639 1
  20079148.948   -24716287.889 7 -17998439.107 2
  20649989.815   -20724961.881 7 -15958573.054 2
 90 10 17 13 28 44.9990000  0  6 02 06 12 15 13 09
  21937624.222     5204936.182 6   4275772.645 2
  20287254.206   -10851929.135 7    417329.503 3
  23927137.565    -3488356.533 4  -2265254.673 1
  24186448.722    -3258587.007 4   3063402.923 1
  20077071.901   -24727208.617 7 -18006948.775 2
  20644181.644   -20755478.901 7 -15982352.554 2
 90 10 17 13 28 59.9990000  0  6 02 06 12 15 13 09
  21941840.980     5227089.863 6   4293035.209 2
  20289586.909   -10839673.305 7    426879.482 3
  23917112.058    -3541044.109 4  -2306309.903 1
  24192442.565    -3227085.640 4   3087949.292 1
  20075018.581   -24737992.652 7 -18015351.923 2
  20638395.597   -20785885.128 7 -16006045.723 2
 90 10 17 13 29 14.9990000  0  6 02 06 12 15 13 09
  21946066.308     5249291.745 6   4310335.327 2
  20291947.167   -10827275.628 7    436539.987 3
  23907084.565    -3593719.296 4  -2347355.482 1
  24198455.847    -3195473.713 5   3112581.867 1
  20072993.511   -24748638.805 7 -18023647.635 2
  20632631.050   -20816178.975 7 -16029651.328 2
 90 10 17 13 29 29.9990000  0  6 02 06 12 15 13 09
  21950299.479     5271547.614 6   4327677.518 2
  20294334.440   -10814730.620 7    446315.293 3
  23897068.089    -3646376.391 5  -2388386.982 1
  24204497.261    -3163746.097 5   3137304.618 1
  20070994.628   -24759141.857 7 -18031831.831 2
  20626890.198   -20846354.301 7 -16053164.582 2
 90 10 17 13 29 44.9990000  0  6 02 06 12 15 13 09
  21954543.667     5293851.408 6   4345057.047 2
  20296748.003   -10802044.160 7    456200.815 3
  23887052.605    -3699021.144 5  -2429408.820 1
  24210560.487    -3131909.316 5   3162112.435 1
  20069021.729   -24769507.857 7 -18039909.239 2
  20621168.620   -20876417.236 7 -16076590.247 2
 90 10 17 13 29 59.9990000  0  6 02 06 12 15 13 09
  21958797.417     5316203.344 6   4362474.089 2
  20299189.722   -10789216.378 7    466196.464 3
  23877037.808    -3751653.234 5  -2470420.840 1
  24216635.167    -3099963.175 5   3187005.433 1
  20067075.651   -24779736.685 7 -18047879.761 2
  20615467.120   -20906366.932 7 -16099927.681 2
 90 10 17 13 30 14.9990000  0  6 02 06 12 15 13 09
  21963061.636     5338601.068 6   4379926.806 2
  20301655.972   -10776249.067 7    476300.831 3
  23867021.284    -3804274.558 5  -2511424.476 1
  24222731.917    -3067910.251 4   3211981.649 1
  20065154.558   -24789830.673 7 -18055745.207 2
  20609791.292   -20936205.420 7 -16123178.466 2
 90 10 17 13 30 29.9990000  0  6 02 06 12 15 13 09
  21967331.386     5361046.687 6   4397416.852 2
  20304151.339   -10763140.176 7    486515.526 3
  23857008.862    -3856882.665 5  -2552417.790 1
  24228852.050    -3035748.875 5   3237042.384 1
  20063259.565   -24799787.833 7 -18063504.035 2
  20604135.136   -20965930.211 7 -16146340.650 2
 90 10 17 13 30 44.9990000  0  6 02 06 12 15 13 09
  21971612.222     5383537.784 6   4414942.325 2
  20306672.112   -10749892.308 7    496838.518 3
  23846997.276    -3909479.733 5  -2593402.532 1
  24234996.495    -3003481.692 5   3262185.562 1
  20061391.347   -24809610.618 7 -18071158.156 2
  20598499.706   -20995543.600 7 -16169416.029 2
 90 10 17 13 30 59.9990000  0  6 02 06 12 15 13 09
  21975900.823     5406076.544 6   4432504.944 2
  20309219.815   -10736503.250 7    507271.521 3
  23836994.331    -3962063.337 5  -2634376.776 1
  24241157.917    -2971106.929 5   3287412.569 1
  20059547.323   -24819297.166 7 -18078706.120 2
  20592886.526   -21025042.958 7 -16192402.550 2
 90 10 17 13 31 14.9990000  0  6 02 06 12 15 13 09
  21980198.940     5428664.932 6   4450106.232 2
  20311794.261   -10722970.962 7    517816.135 3
  23826992.237    -4014631.285 5  -2675338.812 1
  24247336.870    -2938622.550 5   3312724.951 1
  20057729.612   -24828845.545 7 -18086146.416 2
  20587293.909   -21054425.804 7 -16215298.294 2
 90 10 17 13 31 29.9990000  0  6 02 06 12 15 13 09
  21984506.925     5451300.448 6   4467744.257 2
  20314397.542   -10709297.977 7    528470.380 3
  23816992.917    -4067186.028 5  -2716290.545 1
  24253538.753    -2906031.263 5   3338120.621 1
  20055939.886   -24838258.688 7 -18093481.330 2
  20581724.151   -21083694.764 7 -16238105.285 2
 90 10 17 13 31 44.9990000  0  6 02 06 12 15 13 09
  21988822.378     5473985.507 6   4485420.874 2
  20317026.198   -10695482.033 7    539236.017 3
  23806992.456    -4119724.805 5  -2757229.873 1
  24259760.886    -2873331.589 5   3363600.811 1
  20054174.776   -24847534.079 7 -18100708.914 2
  20576176.409   -21112847.222 7 -16260821.493 2
 90 10 17 13 31 59.9990000  0  6 02 06 12 15 13 09
  21993149.073     5496718.390 6   4503134.761 2
  20319682.308   -10681524.947 7    550111.638 3
  23796998.675    -4172249.139 5  -2798157.916 1
  24266006.323    -2840525.658 5   3389163.773 1
  20052435.261   -24856673.668 7 -18107830.674 2
  20570650.433   -21141884.179 7 -16283447.698 2
 90 10 17 13 32 14.9990000  0  6 02 06 12 15 13 09
  21997485.542     5519499.598 6   4520886.294 2
  20322364.190   -10667425.956 7    561097.839 3
  23787010.050    -4224758.183 5  -2839074.086 1
  24272270.151    -2807612.729 5   3414810.110 1
  20050720.605   -24865677.241 7 -18114846.457 2
  20565147.651   -21170805.131 7 -16305983.514 2
 90 10 17 13 32 29.9990000  0  6 02 06 12 15 13 09
  22001828.854     5542327.433 6   4538674.168 1
  20325075.729   -10653186.809 7    572193.247 3
  23777017.612    -4277253.360 5  -2879979.422 1
  24278554.753    -2774595.060 5   3440538.078 1
  20049034.472   -24874546.461 7 -18121757.548 2
  20559664.737   -21199611.367 7 -16328429.937 2
 90 10 17 13 32 44.9990000  0  6 02 06 12 15 13 09
  22006181.901     5565205.254 6   4556500.980 2
  20327811.776   -10638804.390 7    583400.301 3
  23767031.823    -4329731.256 5  -2920871.278 1
  24284853.479    -2741469.698 5   3466349.937 1
  20047372.050   -24883278.396 7 -18128561.658 2
  20554208.050   -21228299.405 7 -16350784.261 2
 90 10 17 13 32 59.9990000  0  6 02 06 12 15 13 09
  22010542.979     5588129.852 6   4574364.250 1
  20330574.831   -10624281.709 7    594716.643 3
  23757047.284    -4382194.688 5  -2961751.892 1
  24291175.120    -2708240.084 5   3492243.019 1
  20045736.901   -24891876.069 7 -18135261.159 2
  20548769.925   -21256871.894 7 -16373048.542 2
 90 10 17 13 33 14.9990000  0  6 02 06 12 15 13 09
  22014915.792     5611104.249 6   4592266.316 1
  20333367.308   -10609615.905 7    606144.508 3
  23747067.729    -4434640.239 5  -3002618.564 1
  24297520.956    -2674903.276 5   3518219.654 1
  20044124.917   -24900336.590 7 -18141853.782 2
  20543355.995   -21285325.490 7 -16395220.182 2
 90 10 17 13 33 29.9990000  0  6 02 06 12 15 13 09
  22019298.073     5634126.500 6   4610205.683 1
  20336183.183   -10594808.841 7    617682.458 3
  23737087.433    -4487069.698 5  -3043472.668 1
  24303883.800    -2641461.601 5   3544278.020 1
  20042541.808   -24908662.106 7 -18148341.211 2
  20537963.104   -21313661.883 7 -16417300.498 2
 90 10 17 13 33 44.9990000  0  6 02 06 12 15 13 09
  22023685.690     5657197.790 6   4628183.254 2
  20339029.440   -10579859.520 7    629331.257 3
  23727112.448    -4539481.922 5  -3084313.386 1
  24310271.175    -2607914.531 5   3570418.507 1
  20040983.651   -24916852.031 7 -18154722.973 2
  20532593.815   -21341880.090 7 -16439288.726 2
 90 10 17 13 33 59.9990000  0  6 02 06 12 15 13 09
  22028087.206     5680318.672 6   4646199.477 1
  20341900.862   -10564767.210 7    641091.476 3
  23717144.675    -4591875.717 5  -3125139.716 1
  24316672.245    -2574261.497 5   3596641.563 1
  20039451.480   -24924905.352 7 -18160998.295 2
  20527247.683   -21369978.761 7 -16461183.796 2
 90 10 17 13 34 14.9990000  0  6 02 06 12 15 13 09
  22032497.315     5703487.669 6   4664253.181 1
  20344798.175   -10549533.499 7    652961.874 3
  23707179.667    -4644252.365 5  -3165952.706 1
  24323095.519    -2540504.603 5   3622945.544 1
  20037943.558   -24932823.910 7 -18167168.606 2
  20521922.972   -21397958.918 7 -16482986.526 2
 90 10 17 13 34 29.9990000  0  6 02 06 12 15 13 09
  22036915.948     5726705.953 6   4682345.294 2
  20347725.011   -10534157.182 7    664943.398 3
  23697216.714    -4696610.433 5  -3206751.181 1
  24329539.979    -2506642.505 5   3649331.495 1
  20036463.183   -24940606.891 7 -18173233.280 2
  20516621.144   -21425819.392 7 -16504695.994 2
 90 10 17 13 34 44.9990000  0  6 02 06 12 15 13 09
  22041344.097     5749976.031 6   4700477.759 2
  20350678.433   -10518636.011 7    677037.789 3
  23687253.003    -4748947.220 5  -3247533.109 1
  24336003.425    -2472673.426 5   3675800.846 1
  20035008.800   -24948251.888 7 -18179190.424 2
  20511341.683   -21453557.630 7 -16526310.215 2
 90 10 17 13 34 59.9990000  0  6 02 06 12 15 13 09
  22045781.448     5773294.780 6   4718648.157 1
  20353658.956   -10502972.880 7    689242.794 3
  23677297.479    -4801265.483 5  -3288300.566 1
  24342491.854    -2438600.699 5   3702350.896 1
  20033579.315   -24955762.189 7 -18185042.612 2
  20506086.144   -21481176.097 7 -16547831.106 2
 90 10 17 13 35 14.9990000  0  6 02 06 12 15 13 09
  22050228.956     5796663.295 6   4736857.334 1
  20356667.933   -10487166.805 7    701559.185 3
  23667348.847    -4853563.920 5  -3329052.586 1
  24348995.808    -2404423.586 5   3728982.333 1
  20032175.378   -24963136.725 7 -18190789.010 2
  20500853.854   -21508673.422 7 -16569257.600 2
 90 10 17 13 35 29.9990000  0  5 02 06 12 13 09
  22054683.448     5820080.195 6   4755104.214 1
  20359702.026   -10471219.126 7    713985.911 3
  23657399.855    -4905843.793 5  -3369790.143 1
  20030798.917   -24970377.068 7 -18196430.846 2
  20495643.495   -21536050.747 7 -16590590.592 2
 90 10 17 13 35 44.9990000  0  5 02 06 12 13 09
  22059147.612     5843549.039 6   4773391.567 1
  20362764.854   -10455126.621 7    726525.495 3
  23647455.792    -4958101.374 5  -3410510.301 1
  20029446.167   -24977479.952 7 -18201965.565 2
  20490458.917   -21563304.302 7 -16611827.134 2
 90 10 17 13 35 59.9990000  0  5 02 06 12 13 09
  22063626.714     5867069.079 6   4791718.813 1
  20365854.519   -10438889.943 7    739177.425 3
  23637516.823    -5010337.054 5  -3451213.421 1
  20028120.604   -24984446.409 7 -18207393.976 2
  20485294.417   -21590434.635 7 -16632967.665 2
 90 10 17 13 36 14.9990000  0  5 02 06 12 13 09
  22068112.792     5890635.517 6   4810082.216 1
  20368971.011   -10422514.026 7    751937.848 3
  23627580.534    -5062555.353 5  -3491903.004 1
  20026818.237   -24991281.299 7 -18212719.869 2
  20480155.339   -21617446.337 7 -16654015.765 2
 90 10 17 13 36 29.9990000  0  5 02 06 12 13 09
  22072602.628     5914251.602 6   4828484.303 2
  20372116.245   -10405995.219 7    764809.601 3
  23617647.894    -5114752.557 5  -3532576.150 1
  20025544.753   -24997981.411 7 -18217940.740 2
  20475039.120   -21644335.205 7 -16674968.135 2
 90 10 17 13 36 44.9990000  0  5 02 06 12 13 09
  22077107.089     5937915.853 6   4846923.924 1
  20375283.831   -10389335.403 7    777791.251 3
  23607718.237    -5166929.987 5  -3573233.874 1
  20024294.190   -25004548.361 7 -18223057.856 2
  20469945.198   -21671103.010 7 -16695826.175 2
 90 10 17 13 36 59.9990000  0  5 02 06 12 13 09
  22081618.448     5961628.680 6   4865401.389 2
  20378481.784   -10372533.907 7    790883.294 3
  23597791.511    -5219086.975 5  -3613875.680 1
  20023070.769   -25010981.596 7 -18228070.771 2
  20464873.956   -21697748.861 7 -16716589.195 2
 90 10 17 13 37 14.9990000  0  5 02 06 12 13 09
  22086142.745     5985392.292 6   4883918.428 1
  20381706.058   -10355588.599 7    804087.409 3
  23587869.831    -5271220.916 5  -3654499.520 1
  20021871.933   -25017279.570 7 -18232978.293 2
  20459827.112   -21724270.230 7 -16737255.199 2
 90 10 17 13 37 29.9990000  0  5 02 06 12 13 09
  22090673.636     6009204.636 6   4902473.443 2
  20384958.987   -10338502.111 7    817401.519 3
  23577953.472    -5323333.979 5  -3695107.094 1
  20020699.487   -25023444.747 7 -18237782.336 2
  20454801.933   -21750669.092 7 -16757825.745 2
 90 10 17 13 37 44.9990000  0  5 02 06 12 13 09
  22095213.026     6033071.053 6   4921070.580 1
  20388237.347   -10321268.566 7    830830.223 3
  23568040.034    -5375420.303 5  -3735693.848 1
  20019553.394   -25029471.593 7 -18242478.584 2
  20449803.878   -21776939.533 7 -16778296.220 2
 90 10 17 13 37 59.9990000  0  5 02 06 12 13 09
  22099765.503     6056988.129 6   4939707.204 2
  20391542.604   -10303891.551 7    844370.727 3
  23558133.644    -5427482.872 5  -3776262.093 1
  20018431.440   -25035363.776 7 -18247069.902 2
  20444829.409   -21803084.688 7 -16798669.073 2
 90 10 17 13 38 14.9990000  0  5 02 06 12 13 09
  22104326.628     6080952.464 6   4958380.647 1
  20394876.769   -10286374.601 7    858020.261 3
  23548232.636    -5479525.081 5  -3816814.471 1
  20017335.229   -25041124.820 7 -18251559.037 2
  20439877.495   -21829107.939 7 -16818946.943 2
 90 10 17 13 38 29.9990000  0  5 02 06 12 13 09
  22108896.362     6104966.922 6   4977093.148 1
  20398238.206   -10268714.985 7    871780.971 3
  23538332.472    -5531543.767 5  -3857348.523 1
  20016264.292   -25046752.079 7 -18255943.924 2
  20434949.073   -21855006.048 7 -16839127.297 2
 90 10 17 13 38 44.9990000  0  5 02 06 12 13 09
  22113475.565     6129031.704 6   4995844.859 1
  20401625.136   -10250912.452 7    885653.039 3
  23528438.159    -5583538.365 5  -3897863.799 1
  20015218.714   -25052245.572 7 -18260224.577 2
  20430045.081   -21880778.483 7 -16859209.732 2
 90 10 17 13 38 59.9990000  0  5 02 06 12 13 09
  22118066.558     6153144.467 6   5014633.963 1
  20405040.511   -10232969.389 7    899634.616 3
  23518547.440    -5635511.009 5  -3938361.950 1
  20014198.433   -25057607.710 7 -18264402.878 2
  20425163.925   -21906427.404 7 -16879195.911 2
 90 10 17 13 39 14.9990000  0  5 02 06 12 13 09
  22122664.472     6177307.800 6   5033462.473 2
  20408482.128   -10214883.341 7    913727.595 3
  23508663.987    -5687458.892 5  -3978840.819 1
  20013203.542   -25062836.045 7 -18268476.914 2
  20420306.847   -21931949.825 7 -16899083.518 2
 90 10 17 13 39 29.9990000  0  5 02 06 12 13 09
  22127271.011     6201518.586 6   5052327.954 1
  20411950.222   -10196657.577 7    927929.450 3
  23498781.589    -5739384.933 5  -4019302.650 1
  20012232.901   -25067934.067 7 -18272449.408 2
  20415474.073   -21957348.705 7 -16918874.859 2
 90 10 17 13 39 44.9990000  0  5 02 06 12 13 09
  22131886.230     6225776.693 6   5071230.315 1
  20415444.050   -10178292.113 7    942240.161 3
  23488905.378    -5791288.995 5  -4059747.380 1
  20011287.722   -25072902.031 7 -18276320.560 1
  20410664.300   -21982623.864 7 -16938569.801 2
 90 10 17 13 39 59.9990000  0  5 02 06 12 13 09
  22136510.620     6250083.014 6   5090170.242 1
  20418965.511   -10159785.991 7    956660.481 3
  23479031.628    -5843169.599 5  -4100173.810 1
  20010367.065   -25077738.997 7 -18280089.635 2
  20405876.448   -22007773.943 7 -16958167.277 2
 90 10 17 13 40 14.9990000  0  5 02 06 12 13 09
  22141145.417     6274440.098 6   5109149.726 1
  20422514.948   -10141136.882 7    971192.221 3
  23469162.894    -5895024.116 5  -4140579.926 1
  20009472.987   -25082442.857 7 -18283754.990 2
  20401117.144   -22032796.117 7 -16977665.095 2
 90 10 17 13 40 29.9990000  0  5 02 06 12 13 09
  22145790.448     6298844.565 6   5128166.128 1
  20426090.769   -10122348.324 7    985832.628 3
  23459301.198    -5946855.789 5  -4180968.260 1
  20008602.128   -25087017.082 7 -18287319.335 2
  20396378.573   -22057693.701 7 -16997065.824 2
 90 10 17 13 40 44.9990000  0  5 02 06 12 13 09
  22150442.979     6323298.809 6   5147221.309 1
  20429693.644   -10103417.989 7   1000583.496 3
  23449443.839    -5998662.074 5  -4221336.798 1
  20007756.761   -25091459.815 7 -18290781.213 2
  20391663.300   -22082464.209 7 -17016367.541 2
 90 10 17 13 40 59.9990000  0  5 02 06 12 13 09
  22155106.378     6347800.402 6   5166313.395 1
  20433321.581   -10084348.202 7   1015443.025 3
  23439587.581    -6050444.800 5  -4261686.997 1
  20006935.972   -25095773.441 7 -18294142.496 2
  20386975.136   -22107109.563 7 -17035571.725 2
 90 10 17 13 41 14.9990000  0  5 02 06 12 13 09
  22159777.315     6372353.333 6   5185445.492 1
  20436978.628   -10065134.928 7   1030414.375 3
  23429738.651    -6102199.543 5  -4302015.388 1
  20006140.151   -25099953.830 7 -18297399.960 2
  20382310.604   -22131625.030 7 -17054674.692 2
 90 10 17 13 41 29.9990000  0  5 02 06 12 13 09
  22164462.112     6396958.608 6   5204618.357 1
  20440661.722   -10045777.495 7   1045498.052 3
  23419896.909    -6153925.262 5  -4342321.161 1
  20005370.417   -25104000.367 7 -18300553.118 2
  20377668.636   -22156009.853 7 -17073675.862 2
 90 10 17 13 41 44.9990000  0  5 02 06 12 13 09
  22169152.542     6421612.174 6   5223828.863 1
  20444373.245   -10026279.930 7   1060690.921 3
  23410058.355    -6205625.700 5  -4382607.211 1
  20004625.003   -25107917.379 7 -18303605.350 2
  20373054.870   -22180267.688 7 -17092578.082 2
 90 10 17 13 41 59.9990000  0  5 02 06 12 13 09
  22173850.933     6446313.366 6   5243076.477 1
  20448109.433   -10006642.941 7   1075992.436 3
  23400223.104    -6257301.215 5  -4422873.875 1
  20003904.526   -25111705.601 7 -18306557.222 2
  20368461.714   -22204398.923 7 -17111381.650 2
 90 10 17 13 42 14.9990000  0  5 02 06 12 13 09
  22178563.214     6471065.058 6   5262363.438 1
  20451872.573    -9986863.815 7   1091404.703 3
  23390397.604    -6308948.743 5  -4463118.730 1
  20003208.300   -25115362.508 7 -18309406.774 2
  20363895.011   -22228400.527 7 -17130084.220 2
 90 10 17 13 42 29.9990000  0  5 02 06 12 13 09
  22183285.987     6495869.781 6   5281691.725 1
  20455664.979    -9966940.002 7   1106929.714 3
  23380576.159    -6360565.300 5  -4503339.448 1
  20002537.651   -25118885.852 7 -18312152.258 2
  20359352.245   -22252269.618 7 -17148683.524 2
 90 10 17 13 42 44.9990000  0  5 02 06 12 13 09
  22188013.128     6520723.245 6   5301057.992 1
  20459481.245    -9946876.062 7   1122563.915 3
  23370758.253    -6412155.155 5  -4543539.331 1
  20001891.659   -25122280.222 7 -18314797.235 2
  20354834.698   -22276010.286 7 -17167182.760 2
 90 10 17 13 42 59.9990000  0  5 02 06 12 13 09
  22192752.339     6545625.539 6   5320462.314 1
  20463326.714    -9926671.726 7   1138307.513 3
  23360943.245    -6463717.773 5  -4583718.003 1
  20001270.917   -25125545.697 7 -18317341.774 2
  20350341.550   -22299621.954 7 -17185581.475 2
 90 10 17 13 43 14.9990000  0  5 02 06 12 13 09
  22197499.972     6570577.452 6   5339905.291 1
  20467199.526    -9906326.523 7   1154160.885 3
  23351139.683    -6515252.172 5  -4623874.689 1
  20000673.714   -25128681.624 7 -18319785.372 2
  20345873.128   -22323103.758 7 -17203879.000 2
 90 10 17 13 43 29.9990000  0  5 02 06 12 13 09
  22202260.589     6595579.640 6   5359387.451 1
  20471096.558    -9885839.699 7   1170124.597 3
  23341339.386    -6566757.399 5  -4664008.627 1
  20000101.940   -25131687.362 7 -18322127.520 1
  20341429.761   -22346454.755 7 -17222074.601 2
 90 10 17 13 43 44.9990000  0  5 02 06 12 13 09
  22207026.894     6620634.272 6   5378910.476 1
  20475022.753    -9865209.301 7   1186200.201 3
  23331542.253    -6618231.103 5  -4704118.013 1
  19999553.909   -25134561.156 7 -18324366.860 1
  20337011.409   -22369672.538 7 -17240166.394 2
 90 10 17 13 43 59.9990000  0  5 02 06 12 13 09
  22211802.183     6645740.206 6   5398473.463 1
  20478975.058    -9844436.277 7   1202386.936 3
  23321751.620    -6669673.950 5  -4744203.394 1
  19999033.128   -25137304.185 7 -18326504.298 1
  20332619.269   -22392757.800 7 -17258154.936 2
 90 10 17 13 44 14.9990000  0  5 02 06 12 13 09
  22216589.120     6670894.723 6   5418074.316 1
  20482956.136    -9823523.740 7   1218682.383 3
  23311969.620    -6721088.436 5  -4784266.658 1
  19998535.144   -25139919.477 7 -18328542.208 1
  20328250.479   -22415713.240 7 -17276042.311 2
 90 10 17 13 44 29.9990000  0  5 02 06 12 13 09
  22221385.315     6696098.212 6   5437713.316 2
  20486961.854    -9802471.268 7   1235086.873 3
  23302191.519    -6772473.908 5  -4824307.308 1
  19998061.620   -25142406.674 7 -18330480.298 1
  20323907.065   -22438537.978 7 -17293827.832 2
 90 10 17 13 44 44.9990000  0  5 02 06 12 13 09
  22226192.573     6721351.757 6   5457391.333 1
  20490994.440    -9781277.839 7   1251601.199 3
  23292418.354    -6823828.975 5  -4864324.277 1
  19997613.409   -25144765.160 7 -18332318.101 1
  20319589.948   -22461230.692 7 -17311510.473 2
 90 10 17 13 44 59.9990000  0  5 02 06 12 13 09
  22231004.683     6746654.090 6   5477107.371 1
  20495055.151    -9759944.776 7   1268224.322 3
  23282651.636    -6875154.671 5  -4904318.344 1
  19997191.104   -25146996.363 7 -18334056.713 1
  20315294.839   -22483792.499 7 -17329091.117 2
 90 10 17 13 45 14.9990000  0  5 02 06 12 13 09
  22235832.448     6772005.029 6   5496861.272 1
  20499140.073    -9738472.451 7   1284955.971 3
  23272890.956    -6926450.861 5  -4944289.425 1
  19996788.964   -25149100.663 7 -18335696.442 1
  20311026.925   -22506223.362 7 -17346569.729 2
 90 10 17 13 45 29.9990000  0  5 02 06 12 13 09
  22240663.151     6797407.155 6   5516655.053 1
  20503254.878    -9716858.335 7   1301798.099 3
  23263136.659    -6977714.613 5  -4984235.212 1
  19996412.776   -25151075.581 7 -18337235.368 1
  20306784.151   -22528520.199 7 -17363943.903 2
 90 10 17 13 45 44.9990000  0  5 02 06 12 13 09
  22245510.347     6822861.043 6   5536489.176 1
  20507393.597    -9695102.032 7   1318751.023 3
  23253386.659    -7028945.220 5  -5024155.172 1
  19996062.104   -25152920.786 7 -18338673.201 2
  20302566.956   -22550682.391 7 -17381213.151 2
 90 10 17 13 45 59.9990000  0  5 02 06 12 13 09
  22250362.034     6848367.464 6   5556364.237 1
  20511560.136    -9673202.728 7   1335815.379 3
  23243645.511    -7080141.374 6  -5064048.298 1
  19995735.167   -25154635.584 7 -18340009.423 1
  20298375.183   -22572708.777 7 -17398376.581 2
 90 10 17 13 46 14.9990000  0  5 02 06 12 13 09
  22255223.800     6873921.818 6   5576276.641 1
  20515755.034    -9651164.908 7   1352987.672 3
  23233909.120    -7131307.307 5  -5103917.877 1
  19995432.612   -25156224.688 7 -18341247.700 1
  20294207.839   -22594603.457 7 -17415437.381 2
 90 10 17 13 46 29.9990000  0  5 02 06 12 13 09
  22260096.823     6899528.707 6   5596229.997 1
  20519976.042    -9628984.304 7   1370271.220 3
  23224177.034    -7182438.408 5  -5143760.311 1
  19995155.659   -25157683.889 7 -18342384.754 2
  20290067.769   -22616361.849 7 -17432391.992 2
 90 10 17 13 46 44.9990000  0  5 02 06 12 13 09
  22264979.089     6925185.192 6   5616221.984 1
  20524222.331    -9606663.908 7   1387663.704 3
  23214454.081    -7233537.190 5  -5183577.558 1
  19994902.886   -25159016.368 7 -18343423.070 2
  20285953.815   -22637986.623 7 -17449242.475 2
 90 10 17 13 46 59.9990000  0  5 02 06 12 13 09
  22269873.511     6950893.376 6   5636254.258 1
  20528495.995    -9584201.688 7   1405166.694 3
  23204735.456    -7284601.437 5  -5223367.894 1
  19994672.503   -25160220.468 7 -18344361.349 1
  20281864.034   -22659475.559 7 -17465987.106 2
 90 10 17 13 47 14.9990000  0  5 02 06 12 13 09
  22274775.323     6976651.823 6   5656325.711 1
  20532797.956    -9561599.483 7   1422778.763 3
  23195022.894    -7335632.192 5  -5263132.130 1
  19994467.933   -25161297.595 7 -18345200.686 1
  20277801.933   -22680829.681 7 -17482626.700 2
 90 10 17 13 47 29.9990000  0  5 02 06 12 13 09
  22279687.370     7002459.937 6   5676435.853 1
  20537125.698    -9538857.846 7   1440499.477 3
  23185319.847    -7386629.725 5  -5302870.510 1
  19994286.519   -25162248.522 7 -18345941.684 2
  20273762.831   -22702049.275 7 -17499161.461 2
 90 10 17 13 47 44.9990000  0  5 02 06 12 13 09
  22284608.261     7028318.751 6   5696585.494 1
  20541480.394    -9515975.848 7   1458329.570 3
  23175624.104    -7437592.792 5  -5342582.026 1
  19994130.753   -25163072.590 7 -18346583.836 2
  20269751.472   -22723133.392 7 -17515590.660 2
 90 10 17 13 47 59.9990000  0  5 02 06 12 13 09
  22289535.870     7054226.392 6   5716773.192 1
  20545860.675    -9492955.374 7   1476267.557 3
  23165933.620    -7488523.001 5  -5382267.929 1
  19993996.261   -25163771.871 7 -18347128.746 2
  20265763.386   -22744083.379 7 -17531915.341 2
 90 10 17 13 48 14.9990000  0  5 02 06 12 13 09
  22294475.198     7080184.198 6   5736999.987 1
  20550269.519    -9469795.208 7   1494314.395 3
  23156250.815    -7539418.654 5  -5421926.888 1
  19993887.151   -25164345.275 7 -18347575.577 2
  20261803.401   -22764897.704 7 -17548134.315 2
 90 10 17 13 48 29.9990000  0  5 02 06 12 13 09
  22299424.269     7106191.092 6   5757265.001 1
  20554702.581    -9446496.346 7   1512469.320 3
  23146568.206    -7590280.433 5  -5461559.464 1
  19993805.136   -25164793.957 7 -18347925.216 2
  20257867.261   -22785576.947 7 -17564248.027 2
 90 10 17 13 48 44.9990000  0  5 02 06 12 13 09
  22304387.276     7132249.769 6   5777570.392 1
  20559161.378    -9423056.378 7   1530734.189 3
  23136894.136    -7641105.331 5  -5501163.319 1
  19993740.026   -25165115.407 7 -18348175.716 2
  20253959.511   -22806118.241 7 -17580254.245 2
 90 10 17 13 48 59.9990000  0  5 02 06 12 13 09
  22309351.183     7158361.253 6   5797916.921 1
  20563649.190    -9399474.393 7   1549109.720 3
  23127229.737    -7691892.105 5  -5540737.453 1
  19993703.620   -25165308.879 7
  20250076.589   -22826520.323 7 -17596151.980 2
 90 10 17 13 49 14.9990000  0  5 02 06 12 13 09
  22314329.065     7184524.471 6   5818303.757 1
  20568164.284    -9375751.510 7   1567595.043 3
  23117574.730    -7742641.556 5  -5580282.501 1
  19993692.776   -25165375.721 7
  20246220.503   -22846784.256 7 -17611942.082 2
 90 10 17 13 49 29.9990000  0  5 02 06 12 13 09
  22319321.019     7210738.847 6   5838730.464 1
  20572706.073    -9351888.517 7   1586189.546 3
  23107925.636    -7793353.987 6  -5619798.705 1
  19993701.284   -25165316.783 7
  20242391.058   -22866910.164 7 -17627624.624 2
 90 10 17 13 49 44.9990000  0  5 02 06 12 13 09
  22324316.690     7237006.332 6   5859198.559 1
  20577273.729    -9327883.543 7   1604894.679 3
  23098282.792    -7844027.069 6  -5659284.255 1
  19993736.511   -25165130.190 7
  20238588.019   -22886895.874 7 -17643197.927 2
 90 10 17 13 49 59.9990000  0  5 02 06 12 13 09
  22329324.769     7263325.013 6   5879706.533 1
  20581869.386    -9303738.641 7   1623708.844 3
  23088647.198    -7894662.588 6  -5698740.533 1
  19993798.175   -25164818.306 7
  20234809.433   -22906743.062 7 -17658663.289 2
 90 10 17 13 50 14.9990000  0  5 02 06 12 13 09
  22334347.151     7289696.405 6   5900255.596 1
  20586489.667    -9279452.431 7   1642633.120 3
  23079015.917    -7945258.594 5  -5738166.007 1
  19993881.698   -25164379.686 7        -0.03212
  20231060.323   -22926450.037 7 -17674019.395 2
 90 10 17 13 50 29.9990000  0  5 02 06 12 13 09
  22339372.761     7316120.439 6   5920845.667 1
  20591138.776    -9255024.912 7   1661667.511 3
  23069396.026    -7995814.984 6  -5777560.624 1
  19993989.995   -25163814.685 7       440.208 2
  20227336.948   -22946016.595 7 -17689266.082 2
 90 10 17 13 50 44.9990000  0  5 02 06 12 13 09
  22344410.065     7342597.036 6   5941476.711 1
  20595814.347    -9230456.525 7   1680811.661 3
  23059784.729    -8046331.364 6  -5816924.051 1
  19994119.683   -25163123.640 7       978.654 1
  20223639.808   -22965442.293 7 -17704403.010 2
 90 10 17 13 50 59.9990000  0  5 02 06 12 13 09
  22349461.097     7369127.839 6   5962149.979 1
  20600514.534    -9205745.667 7   1700066.831 3
  23050180.956    -8096805.878 6  -5856254.849 1
  19994276.370   -25162305.159 7      1616.411 2
  20219970.003   -22984725.725 7 -17719429.080 2
 90 10 17 13 51 14.9990000  0  5 02 06 12 13 09
  22354521.394     7395712.643 6   5982865.332 1
  20605244.706    -9180892.636 7   1719432.790 3
  23040584.659    -8147238.372 6  -5895552.916 1
  19994456.550   -25161359.382 7      2353.358 1
  20216328.034   -23003866.470 7 -17734343.966 2
 90 10 17 13 51 29.9990000  0  5 02 06 12 13 09
  22359589.354     7422350.545 6   6003622.064 1
  20610001.487    -9155898.378 7   1738908.790 3
  23030994.386    -8197629.479 6  -5934818.743 1
  19994659.425   -25160287.502 7      3188.570 2
  20212713.276   -23022865.329 7 -17749148.292 2
 90 10 17 13 51 44.9990000  0  5 02 06 12 13 09
  22364669.011     7449041.310 6   6024419.981 1
  20614783.847    -9130763.331 7   1758494.491 3
  23021411.511    -8247979.131 6  -5974052.256 1
  19994887.612   -25159090.066 7      4121.615 2
  20209124.347   -23041722.280 7 -17763842.036 2
 90 10 17 13 51 59.9990000  0  5 02 06 12 13 09
  22369759.729     7475784.069 6   6045258.414 1
  20619593.769    -9105488.636 7   1778189.020 3
  23011840.136    -8298287.924 6  -6013253.930 1
  19995139.050   -25157768.451 7      5151.425 2
  20205563.511   -23060437.917 7 -17778425.675 2
 90 10 17 13 52 14.9990000  0  5 02 06 12 13 09
  22374857.448     7502580.129 6   6066138.384 1
  20624429.745    -9080072.919 7   1797993.422 3
  23002274.292    -8348554.226 6  -6052422.500 1
  19995415.440   -25156321.497 7      6278.900 2
  20202029.769   -23079010.986 7 -17792898.222 2
 90 10 17 13 52 29.9990000  0  5 02 06 12 13 09
  22379964.229     7529428.228 6   6087058.894 1
  20629292.550    -9054517.596 7   1817906.614 3
  22992714.628    -8398778.904 6  -6091558.631 1
  19995713.448   -25154750.402 7      7503.118 2
  20198522.550   -23097442.238 7 -17807260.260 2
 90 10 17 13 52 44.9990000  0  5 02 06 12 13 09
  22385081.792     7556331.566 6   6108022.449 1
  20634184.550    -9028819.653 7   1837930.939 3
  22983167.378    -8448958.545 6  -6130659.665 1
  19996036.558   -25153052.395 7      8826.227 2
  20195042.862   -23115728.291 7 -17821509.152 2
 90 10 17 13 52 59.9990000  0  5 02 06 12 13 09
  22390214.011     7583289.791 6   6129028.768 1
  20639100.690    -9002979.541 7   1858066.046 3
  22973627.526    -8499093.181 6  -6169725.627 1
  19996384.440   -25151228.131 7     10247.709 2
  20191590.073   -23133869.079 7 -17835644.852 2
 90 10 17 13 53 14.9990000  0  5 02 06 12 13 09
  22395354.581     7610298.978 6   6150074.801 1
  20644044.050    -8977001.411 7   1878308.690 3
  22964098.354    -8549186.425 6  -6208759.346 1
  19996753.901   -25149281.889 7     11764.242 2
  20188164.558   -23151868.476 7 -17849670.376 2
 90 10 17 13 53 29.9990000  0  5 02 06 12 13 09
  22400502.183     7637355.180 6   6171157.484 1
  20649014.222    -8950889.012 7   1898655.970 3
  22954571.636    -8599241.779 6  -6247763.533 1
  19997147.808   -25147217.697 7     13372.673 2
  20184764.620   -23169730.106 7 -17863588.545 2
 90 10 17 13 53 44.9990000  0  5 02 06 12 13 09
  22405662.370     7664454.524 6   6192273.765 1
  20654006.472    -8924646.648 7   1919104.516 3
  22945050.620    -8649263.016 6  -6286741.145 1
  19997561.347   -25145039.407 7     15070.023 2
  20181391.269   -23187457.583 7 -17877402.184 2
 90 10 17 13 53 59.9990000  0  5 02 06 12 13 09
  22410823.526     7691601.637 6   6213427.276 1
  20659028.284    -8898269.856 7   1939657.818 3
  22935537.698    -8699245.124 6  -6325688.285 1
  19997999.230   -25142742.738 7     16859.616 2
  20178045.886   -23205046.052 7 -17891107.511 2
 90 10 17 13 54 14.9990000  0  5 02 06 12 13 09
  22416002.956     7718791.552 6   6234614.140 1
  20664069.112    -8871763.417 7   1960312.137 3
  22926032.526    -8749192.652 6  -6364608.475 1
  19998457.769   -25140332.913 7     18737.384 2
  20174724.370   -23222500.214 7 -17904708.180 2
 90 10 17 13 54 29.9990000  0  5 02 06 12 13 09
  22421179.464     7746025.133 6   6255835.035 1
  20669140.026    -8845126.887 7   1981067.832 3
  22916535.659    -8799104.421 6  -6403500.802 1
  19998937.784   -25137809.333 7     20703.793 2
  20171427.940   -23239819.181 7 -17918203.508 2
 90 10 17 13 54 44.9990000  0  5 02 06 12 13 09
  22426372.933     7773300.740 6   6277088.673 1
  20674234.120    -8818362.012 7   2001923.526 3
  22907048.253    -8848981.970 6  -6442366.470 1
  19999438.237   -25135173.748 7     22757.475 1
  20168159.245   -23257004.176 7 -17931594.442 2
 90 10 17 13 54 59.9990000  0  5 02 06 12 13 09
  22431573.136     7800620.716 6   6298376.885 1
  20679349.690    -8791466.438 7   2022881.065 3
  22897560.573    -8898822.580 6  -6481203.349 1
  19999962.714   -25132424.236 7     24899.937 1
  20164913.628   -23274052.596 7 -17944878.952 2
 90 10 17 13 55 14.9990000  0  5 02 06 12 13 09
  22436779.214     7827985.139 6   6319699.725 1
  20684493.659    -8764440.346 7   2043940.312 3
  22888084.690    -8948625.732 6  -6520011.028 1
  20000506.394   -25129561.045 7     27130.969 2
  20161696.097   -23290964.313 7 -17958056.939 2
 90 10 17 13 55 29.9990000  0  5 02 06 12 13 09
  22441994.448     7855393.463 6   6341056.780 1
  20689662.019    -8737284.397 7   2065100.743 3
  22878614.081    -8998391.738 6  -6558789.754 1
  20001073.464   -25126584.909 7     29450.005 2
  20158502.136   -23307739.374 7 -17971128.438 2
 90 10 17 13 55 44.9990000  0  5 02 06 12 13 09
  22447216.940     7882848.250 6   6362450.032 1
  20694854.206    -8709996.278 7   2086364.167 3
  22869152.659    -9048117.861 6  -6597537.401 1
  20001662.104   -25123493.539 7     31858.833 2
  20155337.675   -23324375.265 7 -17984091.498 2
 90 10 17 13 55 59.9990000  0  5 02 06 12 13 09
  22452449.995     7910348.750 6
  20700072.534    -8682576.659 7
  22859698.511    -9097804.351 6  -6636254.169 1
  20002271.839   -25120287.815 7     34356.766 2
  20152199.331   -23340872.472 7 -17996946.494 2
 90 10 17 13 56 14.9990000  0  5 02 06 12 13 09
  22457695.589     7937896.989 6
  20705316.433    -8655024.012 7
  22850251.183    -9147448.897 6  -6674938.267 1
  20002904.519   -25116965.918 7     36945.234 2
  20149087.519   -23357228.698 7 -18009691.626 2
 90 10 17 13 56 29.9990000  0  5 02 06 12 13 09
  22462946.558     7965492.189 6   6426847.662 1
  20710583.581    -8627338.923 7   2150772.354 3
  22840810.081    -9197052.016 6  -6713590.081 1
  20003557.581   -25113528.874 7     39623.423 2
  20146001.081   -23373444.347 7 -18022327.227 2
 90 10 17 13 56 44.9990000  0  5 02 06 12 13 09
  22468206.894     7993136.068 6   6448388.259 1
  20715876.987    -8599520.097 7   2172449.315 3
  22831380.370    -9246611.812 6  -6752208.129 1
  20004234.690   -25109975.507 7     42392.259 1
  20142941.698   -23389517.803 7 -18034852.020 2
 90 10 17 13 56 59.9990000  0  5 02 06 12 13 09
  22473479.542     8020827.918 6   6469966.232 1
  20721196.026    -8571568.226 7   2194229.955 3
  22821957.323    -9296128.300 6  -6790792.433 1
  20004932.284   -25106306.346 7     45251.320 2
  20139911.769   -23405449.187 7 -18047266.112 2
 90 10 17 13 57 14.9990000  0  5 02 06 12 13 09
  22478756.542     8048569.727 6   6491583.146 1
  20726541.183    -8543481.751 7   2216115.468 3
  22812542.933    -9345599.577 6  -6829341.498 1
  20005652.073   -25102520.285 7     48201.475 2
  20136906.964   -23421236.648 7 -18059568.057 2
 90 10 17 13 57 29.9990000  0  5 02 06 12 13 09
  22484042.854     8076358.560 6   6513236.680 1
  20731911.581    -8515263.443 7   2238103.716 3
  22803139.815    -9395028.188 6  -6867857.313 1
  20006395.776   -25098620.300 7     51240.391 1
  20133929.073   -23436883.023 7 -18071760.060 2
 90 10 17 13 57 44.9990000  0  5 02 06 12 13 09
  22489343.034     8104198.497 6   6534930.050 1
  20737306.612    -8486909.654 7   2260197.522 3
  22793742.136    -9444409.561 6  -6906336.328 1
  20007160.401   -25094602.439 7     54371.171 2
  20130978.378   -23452383.688 7 -18083838.521 2
 90 10 17 13 57 59.9990000  0  5 02 06 12 13 09
  22494651.425     8132087.764 6   6556661.877 1
  20742726.894    -8458422.027 7   2282395.627 3
  22784352.558    -9493745.126 6  -6944779.654 1
  20007945.565   -25090468.636 7     57592.280 2
  20128057.315   -23467740.182 7 -18095804.645 2
 90 10 17 13 58 14.9990000  0  5 02 06 12 13 09
  22499965.409     8160026.194 6   6578431.981 1
  20748174.183    -8429800.888 7   2304697.765 3
  22774972.605    -9543034.748 6  -6983187.184 1
  20008755.370   -25086219.318 7     60903.407 2
  20125161.245   -23482952.445 7 -18107658.383 2
 90 10 17 13 58 29.9990000  0  5 02 06 12 13 09
  22505292.589     8188013.959 6   6600240.532 1
  20753645.440    -8401046.343 7   2327103.852 3
  22765602.229    -9592277.897 6  -7021558.502 1
  20009585.120   -25081854.383 7     64304.625 2
  20122295.542   -23498020.140 7 -18119399.474 2
 90 10 17 13 58 44.9990000  0  5 02 06 12 13 09
  22510627.776     8216054.386 6   6622090.137 1
  20759144.636    -8372154.934 7   2349616.584 3
  22756241.511    -9641470.929 6  -7059890.753 1
  20010439.667   -25077370.791 7     67798.302 2
  20119455.987   -23512939.531 7 -18131025.005 2
 90 10 17 13 58 59.9990000  0  5 02 06 12 13 09
  22515971.073     8244142.538 6   6643976.924 1
  20764665.729    -8343132.046 7   2372231.777 3
  22746889.651    -9690618.325 6  -7098187.455 1
  20011314.065   -25072773.730 7     71380.394 2
  20116644.511   -23527715.403 7 -18142538.694 2
 90 10 17 13 59 14.9990000  0  5 02 06 12 13 09
  22521328.495     8272282.893 6   6665904.377 1
  20770215.050    -8313973.390 7   2394952.756 3
  22737546.253    -9739715.568 6  -7136445.069 1
  20012211.206   -25068059.155 7     75054.058 2
  20113860.644   -23542343.459 7 -18153937.208 2
 90 10 17 13 59 29.9990000  0  5 02 06 12 13 09
  22526690.745     8300474.516 6   6687871.789 1
  20775789.245    -8284680.217 7   2417778.552 3
  22728210.636    -9788763.288 6  -7174664.100 1
  20013130.659   -25063228.403 7     78818.255 2
  20111105.237   -23556824.235 7 -18165220.958 2
 90 10 17 13 59 44.9990000  0  5 02 06 12 13 09
  22532064.854     8328717.446 6   6709879.178 1
  20781389.206    -8255252.288 7   2440709.354 3
  22718888.042    -9837761.054 6  -7212844.200 1
  20014071.511   -25058281.705 7     82672.804 2
  20108377.183   -23571157.353 7 -18176389.648 2
 90 10 17 13 59 59.9990000  0  5 02 06 12 13 09
  22537452.120     8357010.881 6   6731925.922 1
  20787013.503    -8225690.855 7   2463744.190 3
  22709574.979    -9886709.322 6  -7250985.743 1
  20015036.331   -25053219.907 7     86617.033 1
  20105677.831   -23585343.493 7 -18187443.807 2
 90 10 17 14  0 14.9990000  0  5 02 06 12 13 09
  22542846.651     8385353.337 6   6754010.862 1
  20792665.245    -8195997.391 7   2486881.905 3
  22700269.308    -9935609.266 6  -7289089.627 1
  20016019.854   -25048044.892 7     90649.488 2
  20103006.425   -23599383.924 7 -18198384.426 2
 90 10 17 14  0 29.9990000  0  5 02 06 12 13 09
  22548247.683     8413746.377 6   6776135.205 1
  20798340.620    -8166170.597 7   2510123.514 3
  22690972.120    -9984459.148 6  -7327154.486 1
  20017026.667   -25042755.101 7     94771.377 2
  20100362.058   -23613276.916 7 -18209210.162 2
 90 10 17 14  0 44.9990000  0  5 02 06 12 13 09
  22553662.347     8442192.498 6   6798300.928 1
  20804042.823    -8136208.136 7   2533470.836 3
  22681685.034   -10033255.907 6  -7365177.959 1
  20018055.284   -25037348.480 7     98984.302 1
  20097747.401   -23627019.739 7 -18219918.875 2
 90 10 17 14  0 59.9990000  0  5 02 06 12 13 09
  22559085.558     8470691.713 6   6820508.006 1
  20809770.206    -8106110.073 7   2556923.822 3
  22672412.698   -10081999.301 6  -7403159.850 1
  20019105.675   -25031825.260 7    103288.086 2
  20095160.151   -23640612.090 7 -18230510.346 2
 90 10 17 14  1 14.9990000  0  5 02 06 12 13 09
  22564518.003     8499241.237 6   6842754.303 1
  20815523.417    -8075879.438 7   2580480.113 3
  22663149.245   -10130691.708 6  -7441102.022 1
  20020179.542   -25026188.288 7    107680.506 2
  20092602.339   -23654056.607 7 -18240986.619 2
 90 10 17 14  1 29.9990000  0  5 02 06 12 13 09
  22569958.347     8527841.349 6   6865040.013 1
  20821301.550    -8045515.976 7   2604139.906 3
  22653891.362   -10179332.622 6  -7479004.053 1
  20021274.229   -25020437.608 7    112161.529 2
  20090072.925   -23667352.822 7 -18251347.338 2
 90 10 17 14  1 44.9990000  0  5 02 06 12 13 09
  22575410.253     8556492.263 6   6887365.306 1
  20827105.761    -8015019.698 7   2627903.186 3
  22644643.644   -10227921.304 6  -7516865.390 1
  20022389.284   -25014573.343 7    116731.061 2
  20087569.581   -23680500.201 7 -18261592.076 2
 90 10 17 14  1 59.9990000  0  5 02 06 12 13 09
  22580874.355     8585194.804 6   6909730.822 1
  20832934.339    -7984389.914 7   2651770.504 3
  22635406.964   -10276456.783 6  -7554685.262 1
  20023528.550   -25008594.922 7    121389.548 2
  20085097.753   -23693497.720 7 -18271720.041 2
 90 10 17 14  2 14.9990000  0  5 02 06 12 13 09
  22586344.440     8613948.680 6   6932136.350 1
  20838786.136    -7953627.284 7   2675741.332 3
  22626183.394   -10324939.043 6  -7592463.676 1
  20024686.151   -25002502.830 7    126136.603 2
  20082652.683   -23706345.748 7 -18281731.518 2
 90 10 17 14  2 29.9990000  0  5 02 06 12 13 09
  22591825.659     8642751.363 6   6954579.903 1
  20844666.831    -7922734.492 7   2699813.587 3
  22616966.792   -10373370.265 6  -7630202.332 1
  20025866.253   -24996299.926 7    130970.007 2
  20080235.651   -23719046.336 7 -18291628.106 2
 90 10 17 14  2 44.9990000  0  5 02 06 12 13 09
  22597316.800     8671605.833 6   6977063.802 1
  20850570.792    -7891708.763 7   2723989.421 3
  22607760.331   -10421747.081 6  -7667898.572 1
  20027069.448   -24989983.643 7    135891.757 2
  20077846.979   -23731596.527 7 -18301407.501 2
 90 10 17 14  2 59.9990000  0  5 02 06 12 13 09
  22602819.253     8700512.158 6   6999588.130 1
  20856498.792    -7860550.076 7   2748268.867 3
  22598565.214   -10470069.112 6  -7705552.123 1
  20028292.128   -24983553.988 7    140901.852 2
  20075488.558   -23743996.023 7 -18311069.476 2
 90 10 17 14  3 14.9990000  0  5 02 06 12 13 09
  22608329.019     8729468.889 6   7022151.719 1
  20862453.636    -7829260.114 7   2772650.610 3
  22589379.417   -10518337.474 6  -7743163.853 1
  20029536.136   -24977012.628 7    145998.988 2
  20073156.917   -23756245.842 7 -18320614.816 2
 90 10 17 14  3 29.9990000  0  5 02 06 12 13 09
  22613846.104     8758478.784 6   7044756.730 1
  20868433.737    -7797836.194 7   2797136.733 3
  22580206.737   -10566548.986 6  -7780731.303 1
  20030804.347   -24970356.839 7    151185.286 2
  20070854.558   -23768343.292 7 -18330041.430 2
 90 10 17 14  3 44.9990000  0  5 02 06 12 13 09
  22619381.870     8787539.568 6   7067401.395 1
  20874436.956    -7766280.905 7   2821725.223 3
  22571041.097   -10614705.675 6  -7818256.027 1
  20032091.644   -24963589.588 7    156458.443 2
  20068581.253   -23780290.207 7 -18339350.746 2
 90 10 17 14  3 59.9990000  0  5 02 06 12 13 09
  22624918.261     8816651.840 6   7090086.186 1
  20880467.886    -7734593.766 7   2846416.445 3
  22561885.136   -10662806.699 6  -7855737.364 1
  20033401.058   -24956710.295 7    161818.907 2
  20066336.964   -23792085.950 7 -18348542.262 2
 90 10 17 14  4 14.9990000  0  5 02 06 12 13 09
  22630467.690     8845814.241 6   7112810.042 1
  20886522.823    -7702776.206 7   2871209.304 3
  22552742.878   -10710852.971 6  -7893176.042 1
  20034730.104   -24949720.645 7    167265.358 2
  20064121.534   -23803731.460 7 -18357616.714 2
 90 10 17 14  4 29.9990000  0  5 02 06 12 13 09
  22636030.714     8875027.691 6   7135573.658 1
  20892601.808    -7670827.549 7   2896104.308 3
  22543613.323   -10758843.136 6  -7930570.999 1
  20036083.120   -24942619.880 7    172798.392 2
  20061931.683   -23815225.884 7 -18366573.433 2
 90 10 17 14  4 44.9990000  0  5 02 06 12 13 09
  22641596.854     8904290.642 6   7158375.863 1
  20898706.089    -7638749.511 7   2921100.130 3
  22534492.284   -10806778.429 6  -7967923.199 1
  20037453.745   -24935409.772 7    178416.627 2
  20059773.542   -23826570.526 7 -18375413.437 2
 90 10 17 14  4 59.9990000  0  5 02 06 12 13 09
  22647174.183     8933600.196 6   7181214.381 1
  20904834.683    -7606545.295 7   2946194.274 3
  22525378.925   -10854661.596 6  -8005234.793 1
  20038846.183   -24928093.668 7    184117.457 2
  20057642.917   -23837767.928 7 -18384138.712 2
 90 10 17 14  5 14.9990000  0  5 02 06 12 13 09
  22652761.042     8962960.820 6   7204092.668 1
  20910989.175    -7574210.656 7   2971390.047 3
  22516275.909   -10902487.804 6  -8042502.011 1
  20040259.425   -24920667.409 7    189904.121 2
  20055541.503   -23848813.894 7 -18392745.982 2
 90 10 17 14  5 29.9990000  0  5 02 06 12 13 09
  22658356.620     8992369.999 6   7227008.812 1
  20917165.456    -7541748.232 7   2996685.396 3
  22507186.745   -10950259.194 6  -8079726.501 1
  20041692.784   -24913133.944 7    195774.322 2
  20053468.792   -23859710.473 7 -18401236.852 2
 90 10 17 14  5 44.9990000  0  5 02 06 12 13 09
  22663961.956     9021831.415 6   7249965.657 1
  20923368.417    -7509154.593 7   3022082.982 3
  22498107.175   -10997971.798 6  -8116905.180 1
  20043147.972   -24905489.731 7    201730.821 2
  20051423.011   -23870453.775 7 -18409608.280 2
 90 10 17 14  5 59.9990000  0  5 02 06 12 13 09
  22669581.120     9051347.609 6   7272965.183 1
  20929594.370    -7476427.124 7   3047584.854 3
  22489039.714   -11045622.562 6  -8154035.671 1
  20044624.128   -24897732.223 7    207775.606 2
  20049409.940   -23881040.950 7 -18417858.060 2
 90 10 17 14  6 14.9990000  0  5 02 06 12 13 09
  22675206.862     9080913.536 6   7296003.474 1
  20935847.323    -7443571.459 7   3073186.620 3
  22479983.511   -11093216.371 6  -8191121.776 1
  20046120.448   -24889867.013 7    213904.309 2
  20047422.690   -23891477.124 7 -18425990.172 2
 90 10 17 14  6 29.9990000  0  5 02 06 12 13 09
  22680843.761     9110527.079 6   7319078.848 1
  20942124.284    -7410589.631 7   3098886.695 3
  22470937.995   -11140754.875 6  -8228164.791 1
  20047636.573   -24881896.341 7    220115.190 2
  20045466.667   -23901764.160 7 -18434006.064 2
 90 10 17 14  6 44.9990000  0  5 02 06 12 13 09
  22686487.737     9140192.489 6   7342194.636 1
  20948426.456    -7377477.663 7   3124688.180 3
  22461904.753   -11188233.434 6  -8265161.109 1
  20049174.761   -24873816.202 7    226411.374 2
  20043537.175   -23911897.505 7 -18441902.206 2
 90 10 17 14  6 59.9990000  0  5 02 06 12 13 09
  22692141.245     9169908.734 6   7365350.060 1
  20954751.237    -7344236.818 7   3150590.079 3
  22452881.034   -11235652.830 6  -8302111.322 1
  20050733.050   -24865627.917 7    232791.825 2
  20041638.409   -23921878.215 7 -18449679.414 2
 90 10 17 14  7 14.9990000  0  5 02 06 12 13 09
  22697807.519     9199672.600 6   7388542.566 1
  20961099.948    -7310870.460 7   3176589.785 3
  22443864.698   -11283015.898 6  -8339017.638 1
  20052312.175   -24857334.934 7    239253.862 2
  20039766.839   -23931709.270 7 -18457340.002 2
 90 10 17 14  7 29.9990000  0  5 02 06 12 13 09
  22703478.394     9229490.276 6   7411777.008 1
  20967475.878    -7277372.590 7   3202691.966 3
  22434862.909   -11330316.158 6  -8375875.011 1
  20053909.769   -24848931.350 7    245802.079 2
  20037926.581   -23941384.158 7 -18464878.900 2
 90 10 17 14  7 44.9990000  0  5 02 06 12 13 09
  22709162.808     9259357.678 6   7435050.204 1
  20973874.362    -7243747.437 7   3228893.331 3
  22425873.823   -11377557.192 6  -8412686.237 1
  20055528.175   -24840421.420 7    252433.165 2
  20036114.792   -23950906.888 7 -18472299.243 2
 90 10 17 14  7 59.9990000  0  5 02 06 12 13 09
  22714857.651     9289273.462 6   7458361.106 1
  20980296.386    -7209996.594 7   3255192.637 3
  22416896.714   -11424740.122 6  -8449452.181 1
  20057169.620   -24831806.885 7    259145.760 2
  20034330.831   -23960278.575 7 -18479601.894 2
 90 10 17 14  8 14.9990000  0  5 02 06 12 13 09
  22720558.870     9319238.378 6   7481710.290 1
  20986744.034    -7176119.457 7   3281590.347 3
  22407929.831   -11471863.965 6  -8486172.086 1
  20058827.573   -24823087.248 7    265940.245 2
  20032576.589   -23969498.303 7 -18486786.114 2
 90 10 17 14  8 29.9990000  0  5 02 06 12 13 09
  22726269.620     9349255.715 6   7505100.310 1
  20993215.979    -7142113.187 7   3308088.686 3
  22398975.073   -11518925.092 6  -8522843.120 1
  20060507.323   -24814259.523 7    272818.968 2
  20030852.722   -23978562.646 7 -18493849.262 2
 90 10 17 14  8 44.9990000  0  5 02 06 12 13 09
  22731993.339     9379322.768 6   7528529.091 1
  20999708.003    -7107980.374 7   3334685.629 3
  22390030.456   -11565925.741 6  -8559467.030 1
  20062209.253   -24805326.710 7    279779.564 2
  20029155.183   -23987474.270 7 -18500793.410 2
 90 10 17 14  8 59.9990000  0  5 02 06 12 13 09
  22737725.370     9409437.734 6   7551995.186 1
  21006229.292    -7073723.261 7   3361379.431 3
  22381096.737   -11612867.381 6  -8596044.958 1
  20063927.190   -24796290.779 7    286820.524 2
  20027488.565   -23996234.840 7 -18507619.855 2
 90 10 17 14  9 14.9990000  0  5 02 06 12 13 09
  22743462.183     9439600.347 6   7575498.406 1
  21012770.120    -7039342.286 7   3388169.740 3
  22372176.792   -11659749.950 6  -8632576.869 1
  20065667.745   -24787152.311 7    293941.379 2
  20025849.409   -24004844.162 7 -18514328.441 2
 90 10 17 14  9 29.9990000  0  5 02 06 12 13 09
  22749208.503     9469809.804 6   7599038.142 1
  21019337.198    -7004838.445 7   3415055.795 3
  22363267.925   -11706573.908 6  -8669063.100 1
  20067423.245   -24777912.291 7    301141.360 2
  20024240.620   -24013303.037 7 -18520919.798 2
 90 10 17 14  9 44.9990000  0  5 02 06 12 13 09
  22754971.519     9500069.637 6   7622617.129 1
  21025927.604    -6970208.377 7   3442040.206 3
  22354367.433   -11753335.494 6  -8705500.731 1
  20069204.378   -24768567.510 7    308422.970 2
  20022660.003   -24021607.857 7 -18527391.112 2
 90 10 17 14  9 59.9990000  0  5 02 06 12 13 09
  22760739.573     9530372.284 6   7646229.470 1
  21032539.378    -6935459.738 7   3469117.014 3
  22345480.097   -11800041.779 6  -8741895.272 1
  20070998.909   -24759125.896 7    315780.041 2
  20021108.394   -24029766.011 7 -18533748.146 2
 90 10 17 14 10 14.9990000  0  5 02 06 12 13 09
  22766513.159     9560724.744 6   7669880.628 1
  21039174.464    -6900585.903 7   3496291.374 3
  22336602.995   -11846685.402 6  -8778240.982 1
  20072817.315   -24749580.647 7    323217.861 2
  20019584.394   -24037770.004 7 -18539985.046 1
 90 10 17 14 10 29.9990000  0  5 02 06 12 13 09
  22772297.690     9591126.839 6   7693570.472 1
  21045835.917    -6865587.158 7   3523563.061 3
  22327739.550   -11893266.225 6  -8814537.749 1
  20074652.815   -24739932.187 7    330736.108 2
  20018091.487   -24045620.174 7 -18546102.093 1
 90 10 17 14 10 44.9990000  0  5 02 06 12 13 09
  22778093.433     9621577.392 5   7717298.057 1
  21052518.776    -6830464.907 7   3550930.991 3
  22318885.065   -11939784.984 6  -8850786.158 1
  20076506.855   -24730181.993 7    338333.629 2
  20016627.253   -24053317.630 7 -18552100.140 1
 90 10 17 14 10 59.9990000  0  5 02 06 12 13 09
  22783898.073     9652076.157 6   7741063.213 1
  21059227.565    -6795219.718 7   3578394.718 3
  22310047.659   -11986241.659 6  -8886986.190 1
  20078382.433   -24720330.652 7    346009.964 2
  20015189.909   -24060862.218 7 -18557979.065 1
 90 10 17 14 11 14.9990000  0  5 02 06 12 13 09
  22789711.745     9682621.875 6   7764864.958 1
  21065954.784    -6759853.013 7   3605953.136 3
  22301219.550   -12032637.169 6  -8923138.555 1
  20080276.862   -24710379.569 7    353764.023 2
  20013783.815   -24068255.132 7 -18563739.805 2
 90 10 17 14 11 29.9990000  0  5 02 06 12 13 09
  22795533.792     9713213.501 6   7788702.495 1
  21072709.698    -6724366.144 7   3633605.184 3
  22292401.472   -12078972.241 6  -8959243.844 1
  20082188.065   -24700330.303 7    361594.582 2
  20012406.104   -24075497.389 7 -18569383.136 2
 90 10 17 14 11 44.9990000  0  5 02 06 12 13 09
  22801361.425     9743855.401 6   7812579.189 1
  21079486.604    -6688754.638 7   3661354.350 3
  22283596.667   -12125241.955 6  -8995298.193 1
  20084120.003   -24690178.398 7    369505.124 2
  20011057.222   -24082584.167 7 -18574905.326 2
 90 10 17 14 11 59.9990000  0  5 02 06 12 13 09
  22807203.729     9774547.616 6   7836495.105 1
  21086286.050    -6653019.061 7   3689200.196 3
  22274804.331   -12171446.171 6  -9031301.514 1
  20086072.151   -24679924.422 7    377495.210 2
  20009737.940   -24089515.527 7 -18580306.408 1
 90 10 17 14 12 14.9990000  0  5 02 06 12 13 09
  22813053.081     9805287.746 6   7860448.346 1
  21093110.042    -6617161.623 7   3717140.999 3
  22266023.339   -12217586.809 6  -9067255.288 1
  20088041.761   -24669570.943 7    385562.816 2
  20008447.190   -24096293.755 7 -18585588.171 2
 90 10 17 14 12 29.9990000  0  5 02 06 12 13 09
  22818912.073     9836075.767 6   7884438.901 1
  21099956.683    -6581182.855 7   3745176.345 3
  22257255.737   -12263663.618 6  -9103159.324 1
  20090032.940   -24659118.097 7    393707.865 2
  20007186.214   -24102918.639 7 -18590750.442 2
 90 10 17 14 12 44.9990000  0  5 02 06 12 13 09
  22824780.604     9866914.110 6   7908468.684 1
  21106826.065    -6545080.511 7   3773307.980 3
  22248500.792   -12309673.876 6  -9139011.491 1
  20092040.026   -24648563.917 7    401931.870 2
  20005956.479   -24109387.529 7 -18595791.159 2
 90 10 17 14 12 59.9990000  0  5 02 06 12 13 09
  22830655.456     9897802.561 6   7932537.495 1
  21113719.425    -6508855.002 7   3801535.591 3
  22239757.292   -12355617.400 6  -9174811.672 1
  20094067.175   -24637908.755 7    410234.565 2
  20004754.894   -24115700.446 7 -18600710.350 2
 90 10 17 14 13 14.9990000  0  5 02 06 12 13 09
  22836544.683     9928742.506 6   7956646.439 1
  21120637.019    -6472505.186 7   3829860.072 3
  22231026.472   -12401492.497 6  -9210558.531 1
  20096114.558   -24627151.659 7    418616.675 2
  20003583.042   -24121856.219 7 -18605507.085 2
 90 10 17 14 13 29.9990000  0  5 02 06 12 13 09
  22842439.808     9959732.199 6   7980794.155 1
  21127578.956    -6436032.769 7   3858280.080 3
  22222310.519   -12447300.308 6  -9246252.958 1
  20098180.144   -24616294.266 7    427076.954 2
  20002441.448   -24127855.872 7 -18610182.166 2
 90 10 17 14 13 44.9990000  0  5 02 06 12 13 09
  22848348.065     9990769.574 6   8004979.020 1
  21134540.401    -6399440.305 7   3886793.627 3
  22213605.862   -12493042.810 6  -9281896.499 1
  20100265.823   -24605339.130 7    435613.389 2
  20001330.144   -24133701.707 7 -18614737.387 2
 90 10 17 14 13 59.9990000  0  5 02 06 12 13 09
  22854262.901    10021854.148 6   8029200.661 1
  21141526.065    -6362728.543 7   3915400.128 3
  22204913.190   -12538720.073 6  -9317489.195 1
  20102368.386   -24594286.963 7    444225.437 2
  20000246.948   -24139394.132 7 -18619173.073 1
 90 10 17 14 14 14.9990000  0  5 02 06 12 13 09
  22860188.901    10052990.422 6   8053462.593 1
  21148538.456    -6325893.139 7   3944102.987 3
  22196234.128   -12584327.126 6  -9353027.178 1
  20104489.573   -24583133.730 7    452916.233 2
  19999195.011   -24144928.324 7 -18623485.456 2
 90 10 17 14 14 29.9990000  0  5 02 06 12 13 09
  22866122.144    10084174.474 6   8077761.768 1
  21155569.878    -6288938.139 7   3972899.038 3
  22187569.144   -12629867.525 6  -9388513.231 1
  20106630.870   -24571883.598 7    461682.537 2
  19998169.933   -24150308.140 7 -18627677.549 2
 90 10 17 14 14 44.9990000  0  5 02 06 12 13 09
  22872068.870    10115407.279 6   8102098.908 1
  21162624.495    -6251862.858 7   4001788.810 3
  22178915.448   -12675340.074 6  -9423946.418 1
  20108791.136   -24560535.812 7    470524.925 2
  19997175.808   -24155532.370 7 -18631748.408 2
 90 10 17 14 14 59.9990000  0  5 02 06 12 13 09
  22878020.464    10146692.523 6   8126476.910 1
  21169703.151    -6214663.851 7   4030774.983 3
  22170276.987   -12720740.727 6  -9459323.575 1
  20110969.698   -24549086.947 7    479446.090 2
  19996211.925   -24160597.206 7 -18635695.056 2
 90 10 17 14 15 14.9990000  0  5 02 06 12 13 09
  22883984.378    10178026.908 6   8150893.213 1
  21176806.019    -6177344.531 7   4059854.914 3
  22161651.120   -12766072.314 6  -9494646.906 1
  20113166.761   -24537540.468 7    488443.309 2
  19995278.925   -24165505.998 7 -18639520.117 2
 90 10 17 14 15 29.9990000  0  5 02 06 12 13 09
  22889955.120    10209407.491 6   8175345.525 1
  21183928.487    -6139908.101 7   4089026.094 3
  22153037.237   -12811337.389 6  -9529918.418 1
  20115381.925   -24525899.735 7    497513.978 2
  19994372.745   -24170261.202 7 -18643225.500 2
 90 10 17 14 15 44.9990000  0  5 02 06 12 13 09
  22895934.370    10240829.633 6   8199830.188 1
  21191074.995    -6102359.556 7   4118284.643 3
  22144435.558   -12856540.377 6  -9565141.561 1
  20117614.315   -24514169.542 7    506654.354 2
  19993496.323   -24174867.687 7 -18646814.996 2
 90 10 17 14 15 59.9990000  0  5 02 06 12 13 09
  22901922.245    10272296.470 6   8224349.693 1
  21198241.300    -6064695.979 7   4147632.826 3
  22135844.464   -12901677.695 6  -9600313.523 1
  20119864.550   -24502346.917 7    515866.755 2
  19992649.128   -24179321.905 7 -18650285.846 2
 90 10 17 14 16 14.9990000  0  5 02 06 12 13 09
  22907919.714    10303803.133 6   8248900.232 1
  21205429.425    -6026922.390 7   4177066.730 2
  22127268.183   -12946753.863 6  -9635437.828 1
  20122129.933   -24490437.357 7    525146.898 2
  19991828.472   -24183628.862 7 -18653641.940 2
 90 10 17 14 16 29.9990000  0  5 02 06 12 13 09
  22913921.815    10335353.846 6   8273485.100 1
  21212636.940    -5989034.869 7   4206589.416 3
  22118702.378   -12991764.404 6  -9670511.005 1
  20124412.995   -24478436.734 7    534498.000 2
  19991038.089   -24187784.235 7 -18656879.917 2
 90 10 17 14 16 44.9990000  0  5 02 06 12 13 09
  22919934.495    10366950.702 6   8298105.927 1
  21219871.956    -5951031.341 7   4236202.500 2
  22110152.917   -13036706.702 6  -9705531.001 1
  20126715.909   -24466343.151 7    543921.534 2
  19990276.448   -24191785.275 7 -18659997.641 2
 90 10 17 14 16 59.9990000  0  5 02 06 12 13 09
  22925955.401    10398593.489 5   8322762.516 1
  21227124.456    -5912912.474 7   4265905.454 2
  22101611.550   -13081580.671 6  -9740497.754 1
  20129033.956   -24454157.037 7    553417.170 2
  19989545.769   -24195632.595 7 -18662995.580 1
 90 10 17 14 17 14.9990000  0  5 02 06 12 13 09
  22931986.104    10430281.963 6   8347454.716 1
  21234400.644    -5874678.629 7   4295697.998 2
  22093084.425   -13126386.160 6  -9775411.156 1
  20131370.401   -24441879.059 7    562984.395 2
  19988842.862   -24199325.983 7 -18665873.573 1
 90 10 17 14 17 29.9990000  0  5 02 06 12 13 09
  22938025.769    10462016.470 6   8372182.807 1
  21241697.737    -5836329.677 7   4325580.236 2
  22084573.050   -13171122.531 6  -9810270.686 1
  20133725.815   -24429509.051 7    572623.325 2
  19988168.620   -24202865.145 7 -18668631.390 2
 90 10 17 14 17 44.9990000  0  5 02 06 12 13 09
  22944073.706    10493797.792 6   8396947.357 1
  21249017.503    -5797865.312 7   4355552.409 2
  22076072.862   -13215788.669 6  -9845075.494 1
  20136096.433   -24417046.674 7    582334.241 2
  19987525.269   -24206249.260 7 -18671268.395 2
 90 10 17 14 17 59.9990000  0  5 02 06 12 13 09
  22950129.175    10525622.902 6   8421746.027 1
  21256358.948    -5759288.510 7   4385612.195 2
  22067584.394   -13260387.137 6  -9879827.574 2
  20138484.855   -24404494.943 7    592114.770 2
  19986910.464   -24209481.207 7 -18673786.816 2
 90 10 17 14 18 14.9990000  0  5 02 06 12 13 09
  22956196.190    10557495.836 5   8446581.975 1
  21263721.612    -5720595.685 7   4415762.386 2
  22059112.378   -13304913.668 6  -9914523.594 2
  20140891.964   -24391850.272 7    601967.732 2
  19986325.300   -24212556.828 7 -18676183.438 2
 90 10 17 14 18 29.9990000  0  5 02 06 12 13 09
  22962269.144    10589412.682 5   8471452.122 1
  21271105.901    -5681790.958 7   4445999.781 2
  22050653.347   -13349371.843 6  -9949166.350 2
  20143315.456   -24379117.048 7    611889.696 2
  19985768.487   -24215479.935 7 -18678461.209 2
 90 10 17 14 18 44.9990000  0  5 02 06 12 13 09
  22968350.409    10621375.436 5   8496358.035 1
  21278512.659    -5642872.391 7   4476325.871 2
  22042206.190   -13393759.071 6  -9983753.831 1
  20145753.550   -24366293.269 7    621882.213 2
  19985241.589   -24218248.180 7 -18680618.306 2
 90 10 17 14 18 59.9990000  0  5 02 06 12 13 09
  22974438.167    10653379.356 5   8521296.033 1
  21285939.026    -5603845.189 7   4506736.616 2
  22033772.487   -13438079.898 6 -10018289.570 1
  20148211.222   -24353384.102 7    631941.269 2
  19984744.011   -24220866.390 7 -18682658.500 2
 90 10 17 14 19 14.9990000  0  5 02 06 12 13 09
  22980541.644    10685431.128 5   8546271.333 1
  21293387.198    -5564702.961 7   4537236.998 2
  22025351.659   -13482327.444 6 -10052768.201 1
  20150685.034   -24340383.275 7    642071.749 2
  19984274.401   -24223327.927 7 -18684576.595 2
 90 10 17 14 19 29.9990000  0  5 02 06 12 13 09
  22986648.792    10717524.312 5   8571278.888 1
  21300858.401    -5525452.287 7   4567821.878 2
  22016944.581   -13526507.616 6 -10087194.343 1
  20153175.019   -24327297.365 7    652268.526 2
  19983834.847   -24225638.969 7 -18686377.434 2
 90 10 17 14 19 44.9990000  0  5 02 06 12 13 09
  22992763.065    10749661.655 5   8596320.855 1
  21308345.753    -5486090.625 7   4598493.243 2
  22008551.573   -13570617.204 6 -10121565.472 1
  20155682.730   -24314123.891 7    662533.537 2
  19983425.104   -24227796.712 7 -18688058.817 2
 90 10 17 14 19 59.9990000  0  5 02 06 12 13 09
  22998887.886    10781844.832 5   8621398.537 1
  21315859.597    -5446616.521 7   4629252.225 2
  22000171.425   -13614654.328 6 -10155880.140 1
  20158206.417   -24300861.496 7    672867.835 2
  19983044.886   -24229799.329 7 -18689619.324 2
 90 10 17 14 20 14.9990000  0  5 02 06 12 13 09
  23005020.628    10814071.413 5   8646510.030 1
  21323390.987    -5407032.591 7   4660096.787 2
  21991804.644   -13658620.869 6 -10190139.807 1
  20160746.175   -24287512.727 7    683269.441 2
  19982690.987   -24231649.156 7 -18691060.773 2
 90 10 17 14 20 29.9990000  0  5 02 06 12 13 09
  23011162.940    10846339.464 5   8671653.850 1
  21330944.308    -5367341.072 6   4691025.186 2
  21983450.425   -13702518.450 6 -10224345.740 1
  20163302.198   -24274079.664 7    693736.729 2
  19982369.144   -24233347.666 7 -18692384.319 1
 90 10 17 14 20 44.9990000  0  5 02 06 12 13 09
  23017309.972    10878647.858 5   8696829.101 1
  21338518.112    -5327543.168 7   4722036.480 2
  21975110.862   -13746347.689 6 -10258498.413 1
  20165873.487   -24260563.603 7    704268.689 2
  19982073.089   -24234896.216 7 -18693591.008 1
 90 10 17 14 20 59.9990000  0  5 02 06 12 13 09
  23023467.698    10910995.759 5   8722035.139 1
  21346110.855    -5287640.222 7   4753129.627 2
  21966782.854   -13790109.243 6 -10292598.348 1
  20168462.558   -24246966.026 7    714864.177 2
  19981808.190   -24236295.491 7 -18694681.382 2
 90 10 17 14 21 14.9990000  0  5 02 06 12 13 09
  23029626.394    10943386.415 5   8747274.486 1
  21353724.847    -5247629.043 7   4784307.107 2
  21958469.159   -13833799.360 6 -10326642.619 1
  20171066.628   -24233283.885 7    725525.551 2
  19981570.894   -24237542.262 7 -18695652.925 2
 90 10 17 14 21 29.9990000  0  5 02 06 12 13 09
  23035796.753    10975814.846 5   8772543.286 1
  21361358.495    -5207515.016 7   4815564.729 2
  21950167.909   -13877422.808 7 -10360634.949 2
  20173683.472   -24219522.496 7    736248.675 2
  19981360.769   -24238641.385 7 -18696509.410 2
 90 10 17 14 21 44.9990000  0  5 02 06 12 13 09
  23041977.636    11008281.218 5   8797841.648 1
  21369011.011    -5167298.210 7   4846902.448 2
  21941879.315   -13920979.048 6 -10394574.899 2
  20176318.159   -24205681.671 7    747033.703 2
  19981179.831   -24239592.357 7 -18697250.457 2
 90 10 17 14 21 59.9990000  0  5 02 06 12 13 09
  23048165.276    11040788.960 5   8823172.239 1
  21376686.128    -5126975.374 7   4878322.775 2
  21933605.104   -13964464.325 6 -10428459.553 1
  20178968.401   -24191758.601 7    757882.815 2
  19981027.472   -24240391.772 7 -18697873.405 2
 90 10 17 14 22 14.9990000  0  5 02 06 12 13 09
  23054357.831    11073337.545 5   8848534.651 1
  21384378.792    -5086547.346 7   4909825.069 2
  21925343.776   -14007878.748 7 -10462288.998 2
  20181632.581   -24177753.848 7    768795.574 2
  19980905.933   -24241040.302 7 -18698378.789 2
 90 10 17 14 22 29.9990000  0  5 02 06 12 13 09
  23060561.534    11105923.026 5   8873925.798 1
  21392090.995    -5046018.179 7   4941406.180 2
  21917094.558   -14051225.835 7 -10496065.975 2
  20184311.495   -24163671.475 7    779768.815 2
  19980809.253   -24241541.334 7 -18698769.229 2
 90 10 17 14 22 44.9990000  0  5 02 06 12 13 09
  23066764.292    11138541.919 5   8899342.993 1
  21399821.925    -5005391.724 7   4973063.097 2
  21908858.386   -14094508.776 7 -10529792.965 2
  20187006.511   -24149515.570 7    790799.353 2
  19980740.136   -24241898.626 7 -18699047.666 2
 90 10 17 14 22 59.9980000  0  5 02 06 12 13 09
  23072982.787    11171202.106 5   8924792.357 1
  21407571.990    -4964660.770 6   5004801.445 2
  21900636.490   -14137714.058 7 -10563459.440 2
  20189714.428   -24135277.326 7    801894.060 2
  19980702.404   -24242101.863 7
 90 10 17 14 23 14.9980000  0  5 02 06 12 13 09
  23079206.498    11203903.987 5   8950274.207 1
  21415343.006    -4923824.174 6   5036622.105 2
  21892428.490   -14180851.115 6 -10597072.752 2
  20192440.654   -24120958.907 7    813051.231 2
  19980692.818   -24242154.945 7
 90 10 17 14 23 29.9980000  0  5 02 06 12 13 09
  23085435.209    11236643.568 5   8975785.448 1
  21423133.967    -4882886.801 6   5068521.297 2
  21884231.592   -14223918.644 6 -10630631.885 2
  20195179.701   -24106563.449 7    824268.434 2
  19980710.381   -24242059.775 7
 90 10 17 14 23 44.9980000  0  5 02 06 12 13 09
  23091673.342    11269420.722 5   9001325.952 1
  21430944.225    -4841849.005 6   5100498.738 2
  21876049.209   -14266916.427 6 -10664136.680 2
  20197933.756   -24092091.453 7    835545.285 2
  19980759.084   -24241816.166 7
 90 10 17 14 23 59.9980000  0  5 02 06 12 13 09
  23097915.459    11302236.810 5   9026896.794 1
  21438770.717    -4800709.698 6   5132555.275 2
  21867880.701   -14309842.776 7 -10697585.810 2
  20200702.248   -24077541.641 7    846882.766 2
  19980835.264   -24241422.733 7
 90 10 17 14 24 14.9980000  0  5 02 06 12 13 09
  23104168.686    11335090.873 5   9052497.237 1
  21446618.795    -4759470.037 6   5164690.015 2
  21859726.928   -14352698.039 7 -10730979.544 1
  20203486.178   -24062915.442 7    858279.759 2
  19980935.889   -24240880.422 7        -0.45112
 90 10 17 14 24 29.9980000  0  5 02 06 12 13 09
  23110424.865    11367982.549 5   9078126.993 1
  21454485.787    -4718130.459 6   5196902.608 2
  21851585.732   -14395482.270 7 -10764317.928 1
  20206283.576   -24048213.203 7    869736.019 2
  19981066.451   -24240189.292 7       538.055 2
 90 10 17 14 24 44.9980000  0  5 02 06 12 13 09
  23116695.561    11400914.674 5   9103788.265 1
  21462371.451    -4676688.547 6   5229194.938 2
  21843457.076   -14438192.213 7 -10797598.434 2
  20209096.998   -24033432.301 7    881253.565 2
  19981227.803   -24239346.665 7      1194.615 2
 90 10 17 14 24 59.9980000  0  5 02 06 12 13 09
  23122968.811    11433884.563 5   9129478.974 1
  21470277.514    -4635147.357 6   5261564.629 2
  21835343.568   -14480830.313 7 -10830822.950 2
  20211923.561   -24018575.842 7    892829.995 2
  19981416.240   -24238355.108 7      1967.219 2
 90 10 17 14 25 14.9980000  0  5 02 06 12 13 09
  23129249.014    11466893.964 5   9155200.463 1
  21478201.904    -4593505.261 6   5294012.950 2
  21827245.100   -14523394.435 7 -10863989.815 2
  20214765.232   -24003642.478 7    904466.339 2
  19981633.045   -24237212.558 7      2857.484 2
 90 10 17 14 25 29.9980000  0  5 02 06 12 13 09
  23135539.732    11499941.615 5   9180951.736 1
  21486144.732    -4551763.760 6   5326538.727 2
  21819159.092   -14565885.341 7 -10897099.636 2
  20217621.311   -23988633.622 7    916161.520 2
  19981879.561   -24235920.340 7      3864.377 2
 90 10 17 14 25 44.9980000  0  5 02 06 12 13 09
  23141835.084    11533027.700 6   9206732.987 1
  21494107.053    -4509923.119 6   5359141.761 2
  21811084.209   -14608302.688 7 -10930152.141 2
  20220491.279   -23973549.381 7    927915.435 2
  19982154.342   -24234478.303 7      4988.014 2
 90 10 17 14 25 59.9980000  0  5 02 06 12 13 09
  23148139.592    11566156.349 6   9232547.406 1
  21502087.639    -4467979.307 6   5391825.180 2
  21803028.303   -14650641.906 7 -10963143.775 2
  20223377.623   -23958386.086 7    939730.955 2
  19982457.623   -24232882.386 7      6231.546 2
 90 10 17 14 26 14.9980000  0  5 02 06 12 13 09
  23154452.146    11599323.176 6   9258391.566 1
  21510087.318    -4425937.106 6   5424585.275 2
  21794986.998   -14692907.085 7 -10996077.700 2
  20226277.561   -23943148.148 7    951604.635 2
  19982790.240   -24231136.656 7      7591.824 2
 90 10 17 14 26 29.9980000  0  5 02 06 12 13 09
  23160770.146    11632523.022 5   9284261.438 1
  21518106.342    -4383801.777 6   5457417.932 2
  21786956.217   -14735102.875 7 -11028957.554 2
  20229190.818   -23927841.076 7    963532.195 2
  19983149.162   -24229246.318 7      9064.780 2
 90 10 17 14 26 44.9980000  0  5 02 06 12 13 09
  23167092.193    11665758.906 5   9310159.400 1
  21526142.740    -4341570.533 6   5490325.323 2
  21778940.193   -14777225.783 7 -11061780.620 2
  20232115.959   -23912462.105 7    975515.770 2
  19983538.014   -24227208.124 7     10652.955 2
 90 10 17 14 26 59.9980000  0  5 02 06 12 13 09
  23173423.756    11699032.691 5   9336086.894 1
  21534197.217    -4299241.759 6   5523308.719 2
  21770941.451   -14819273.489 7 -11094545.086 2
  20235057.037   -23897009.392 7    987556.808 2
  19983953.396   -24225020.016 7     12357.938 2
 90 10 17 14 27 14.9980000  0  5 02 06 12 13 09
  23179763.357    11732347.562 5   9362046.412 1
  21542272.576    -4256812.409 6   5556370.486 2
  21762952.959   -14861242.557 7 -11127248.273 2
  20238011.967   -23881480.162 7    999657.477 2
  19984399.654   -24222678.944 7     14182.115 2
 90 10 17 14 27 29.9980000  0  5 02 06 12 13 09
  23186111.772    11765697.253 5   9388033.052 1
  21550365.123    -4214289.305 6   5589505.304 2
  21754979.842   -14903138.927 7 -11159894.826 2
  20240980.318   -23865881.147 7   1011812.523 2
  19984874.365   -24220190.869 7     16120.842 2
 90 10 17 14 27 44.9980000  0  5 02 06 12 13 09
  23192464.162    11799085.084 5   9414049.432 1
  21558476.240    -4171669.454 6   5622715.511 2
  21747024.107   -14944959.194 7 -11192482.068 2
  20243963.193   -23850209.319 7   1024024.302 2
  19985374.842   -24217552.914 7     18176.361 2
 90 10 17 14 27 59.9980000  0  5 02 06 12 13 09
  23198826.404    11832514.637 5   9440098.302 1
  21566603.646    -4128949.419 6   5656003.774 2
  21739079.467   -14986699.345 7 -11225006.878 2
  20246959.287   -23834461.257 7   1036295.485 2
  19985908.154   -24214761.380 7     20351.548 2
 90 10 17 14 28 14.9980000  0  5 02 06 12 13 09
  23205195.834    11865986.395 5   9466180.055 1
  21574753.826    -4086128.797 6   5689370.427 2
  21731152.451   -15028358.175 7 -11257468.329 2
  20249970.873   -23818636.524 7   1048626.414 2
  19986466.678   -24211815.155 7     22647.273 2
 90 10 17 14 28 29.9980000  0  5 02 06 12 13 09
  23211576.373    11899496.547 5   9492291.718 1
  21582918.084    -4043211.728 6   5722812.229 2
  21723240.600   -15069939.235 7 -11289869.178 2
  20252996.342   -23802739.475 7   1061013.689 2
  19987055.498   -24208718.364 7     25060.325 2
 90 10 17 14 28 44.9980000  0  5 02 06 12 13 09
  23217956.670    11933046.671 5   9518434.542 1
  21591105.436    -4000197.095 6   5756330.060 2
  21715341.834   -15111440.705 7 -11322207.998 2
  20256035.201   -23786768.517 7   1073458.562 2
  19987675.201   -24205469.492 7     27591.883 2
 90 10 17 14 28 59.9980000  0  5 02 06 12 13 09
  23224351.467    11966639.602 5   9544610.708 1
  21599309.068    -3957082.224 6   5789925.994 2
  21707460.225   -15152859.222 7 -11354482.185 2
  20259089.295   -23770721.263 7   1085962.882 2
  19988321.982   -24202065.393 7     30244.399 2
 90 10 17 14 29 14.9980000  0  5 02 06 12 13 09
  23230753.186    12000276.842 5   9570821.424 1
  21607532.061    -3913865.894 6   5823600.990 2
  21699596.084   -15194192.929 7 -11386690.289 2
  20262157.506   -23754596.536 7   1098527.572 2
  19989000.545   -24198504.660 7     33018.960 2
 90 10 17 14 29 29.9980000  0  5 02 06 12 13 09
  23237162.904    12033953.969 5   9597063.218 1
  21615775.732    -3870552.774 6   5857351.407 2
  21691744.771   -15235445.805 7 -11418835.406 2
  20265241.576   -23738399.080 7   1111148.935 2
  19989706.584   -24194791.721 7     35912.123 2
 90 10 17 14 29 44.9980000  0  5 02 06 12 13 09
  23243576.647    12067675.544 5   9623339.619 1
  21624035.826    -3827138.348 6   5891180.762 2
  21683911.365   -15276612.838 7 -11450913.627 2
  20268337.553   -23722124.400 7   1123830.467 2
  19990442.576   -24190921.723 7     38927.669 2
 90 10 17 14 29 59.9980000  0  5 02 06 12 13 09
  23250001.475    12101439.768 5   9649649.292 1
  21632317.084    -3783625.107 6   5925087.118 2
  21676093.912   -15317695.669 7 -11482926.239 2
  20271447.686   -23705774.832 7   1136570.360 2
  19991209.881   -24186896.648 7     42064.048 2
 90 10 17 14 30 14.9980000  0  5 02 06 12 13 09
  23256432.912    12135244.856 5   9675990.779 1
  21640615.139    -3740014.849 6   5959069.068 2
  21668290.920   -15358695.659 7 -11514874.302 2
  20274574.178   -23689352.351 7   1149367.063 2
  19992004.201   -24182718.138 7     45319.997 2
 90 10 17 14 30 29.9980000  0  5 02 06 12 13 09
  23262874.092    12169090.061 5   9702363.544 1
  21648934.123    -3696308.590 6   5993125.824 2
  21660505.412   -15399613.171 7 -11546758.094 2
  20277712.123   -23672857.648 7   1162220.046 2
  19992828.365   -24178386.783 7     48695.039 2
 90 10 17 14 30 44.9980000  0  5 02 06 12 13 09
  23269323.701    12202978.155 5   9728769.735 1
  21657271.053    -3652503.932 6   6027259.255 2
  21652735.936   -15440445.001 7 -11578575.125 2
  20280865.240   -23656288.548 7   1175131.002 2
  19993682.920   -24173899.841 7     52191.326 2
 90 10 17 14 30 59.9980000  0  5 02 06 12 13 09
  23275780.615    12236908.638 5   9755208.961 1
  21665621.506    -3608601.432 6   6061468.927 2
  21644982.959   -15481191.154 7 -11610325.388 2
  20284032.834   -23639645.539 7   1188099.541 2
  19994564.646   -24169257.794 7     55808.463 2
 90 10 17 14 31 14.9980000  0  5 02 06 12 13 09
  23282244.100    12270879.961 5   9781679.980 1
  21673996.865    -3564603.155 6   6095753.238 2
  21637243.178   -15521853.075 7 -11642010.027 2
  20287213.076   -23622930.632 7   1201124.118 2
  19995478.592   -24164462.227 7     59545.236 2
 90 10 17 14 31 29.9980000  0  5 02 06 12 13 09
  23288718.623    12304894.022 5   9808184.355 1
  21682386.123    -3520507.511 6   6130113.407 2
  21629523.139   -15562428.533 7 -11673627.291 2
  20290408.459   -23606142.192 7   1214205.984 2
  19996420.225   -24159511.115 7     63403.219 2
 90 10 17 14 31 44.9980000  0  5 02 06 12 13 09
  23295197.701    12338949.835 5   9834721.213 1
  21690795.404    -3476315.656 6   6164548.548 2
  21621818.654   -15602917.968 7 -11705177.518 2
  20293615.514   -23589281.577 7   1227344.090 2
  19997391.873   -24154405.555 7     67381.533 2
 90 10 17 14 31 59.9980000  0  5 02 06 12 13 09
  23301689.990    12373041.649 5   9861286.143 1
  21699224.006    -3432033.623 6   6199053.960 2
  21614128.857   -15643326.744 7 -11736664.892 2
  20296837.006   -23572354.664 7   1240533.860 2
  19998392.279   -24149151.077 7     71475.900 2
 90 10 17 14 32 14.9980000  0  5 02 06 12 13 09
  23308181.381    12407171.159 5   9887880.425 1
  21707666.498    -3387659.936 6   6233630.793 2
  21606453.803   -15683652.825 7 -11768087.838 2
  20300072.014   -23555360.053 7   1253776.381 2
  19999420.068   -24143745.898 7     75687.694 2
 90 10 17 14 32 29.9980000  0  5 02 06 12 13 09
  23314683.834    12441338.918 5   9914504.525 1
  21716130.045    -3343194.289 6   6268279.277 2
  21598797.342   -15723895.270 7 -11799445.608 2
  20303317.865   -23538297.443 7   1267071.878 2
  20000478.842   -24138189.378 7     80017.413 2
 90 10 17 14 32 44.9980000  0  5 02 06 12 13 09
  23321192.529    12475541.681 5   9941155.892 1
  21724607.404    -3298640.323 6   6302996.580 2
  21591154.404   -15764056.966 7 -11830740.464 2
  20306578.068   -23521170.457 7   1280417.547 2
  20001564.006   -24132485.048 7     84462.318 2
 90 10 17 14 32 59.9980000  0  5 02 06 12 13 09
  23327710.857    12509779.641 5   9967834.720 1
  21733100.326    -3253998.027 6   6337782.730 2
  21583527.178   -15804137.357 7 -11861971.955 2
  20309848.857   -23503978.884 7   1293813.540 2
  20002676.826   -24126632.310 7     89022.858 2
 90 10 17 14 33 14.9980000  0  5 02 06 12 13 09
  23334226.748    12544057.286 5   9994544.433 1
  21741615.373    -3209263.206 6   6372640.955 2
  21575916.162   -15844131.565 7 -11893136.300 2
  20313133.951   -23486718.713 7   1307262.986 2
  20003819.912   -24120627.051 7     93702.254 2
 90 10 17 14 33 29.9980000  0  5 02 06 12 13 09
  23340761.732    12578373.681 5  10021284.370 1
  21750144.623    -3164437.042 6   6407570.371 1
  21568321.959   -15884040.171 7 -11924233.928 2
  20316430.725   -23469391.165 7   1320764.931 2
  20004991.217   -24114469.933 7     98499.976 2
 90 10 17 14 33 44.9980000  0  5 02 06 12 13 09
  23347297.350    12612726.937 5  10048052.993 1
  21758692.740    -3119521.709 6   6442569.272 2
  21560745.037   -15923864.664 7 -11955266.019 2
  20319740.584   -23451998.235 7   1334317.828 2
  20006192.506   -24108162.765 7    103414.623 2
 90 10 17 14 33 59.9980000  0  5 02 06 12 13 09
  23353840.881    12647114.892 5  10074848.661 1
  21767257.436    -3074519.699 6   6477635.697 1
  21553180.803   -15963606.733 7 -11986233.888 2
  20323062.498   -23434542.442 7   1347919.706 2
  20007420.100   -24101707.676 7    108444.532 2
 90 10 17 14 34 14.9980000  0  5 02 06 12 13 09
  23360393.365    12681536.069 5  10101670.249 1
  21775835.818    -3029432.542 6   6512768.475 1
  21545633.482   -16003267.336 7 -12017138.275 2
  20326396.404   -23417025.249 7   1361569.432 2
  20008675.764   -24095106.178 7    113588.518 2
 90 10 17 14 34 29.9980000  0  5 02 06 12 13 09
  23366949.803    12715991.510 5  10128518.517 1
  21784432.436    -2984259.650 6   6547968.073 1
  21538103.490   -16042845.318 7 -12047978.286 2
  20329741.896   -23399446.277 7   1375267.294 2
  20009960.764   -24088357.158 7    118847.463 2
 90 10 17 14 34 44.9980000  0  5 02 06 12 13 09
  23373514.193    12750478.621 5  10155391.478 1
  21793043.936    -2939003.976 6   6583232.163 1
  21530586.615   -16082342.957 7 -12078755.684 2
  20333098.037   -23381808.212 7   1389011.195 2
  20011271.951   -24081463.328 7    124219.240 2
 90 10 17 14 34 59.9980000  0  5 02 06 12 13 09
  23380084.600    12785001.719 5  10182292.440 1
  21801673.756    -2893661.580 6   6618563.831 1
  21523088.045   -16121755.584 7 -12109466.841 2
  20336466.912   -23364107.085 7   1402804.237 2
  20012613.389   -24074420.402 7    129707.192 2
 90 10 17 14 35 14.9980000  0  5 02 06 12 13 09
  23386655.389    12819556.942 5  10209218.463 1
  21810317.396    -2848236.435 6   6653959.978 1
  21515602.600   -16161086.629 7 -12140114.430 2
  20339845.803   -23346346.829 7   1416643.352 2
  20013981.350   -24067232.195 7    135308.365 2
 90 10 17 14 35 29.9980000  0  5 02 06 12 13 09
  23393242.529    12854147.204 5  10236171.790 1
  21818976.475    -2802725.938 6   6689422.640 1
  21508133.397   -16200332.684 7 -12170695.791 2
  20343237.170   -23328524.825 7   1430530.586 2
  20015377.592   -24059895.658 7    141025.107 2
 90 10 17 14 35 44.9980000  0  5 02 06 12 13 09
  23399830.951    12888776.373 5  10263155.436 1
  21827652.920    -2757126.340 6   6724954.732 1
  21500682.740   -16239489.481 7 -12201207.598 2
  20346641.529   -23310637.589 7   1444468.650 2
  20016803.240   -24052406.760 7    146860.589 2
 90 10 17 14 35 59.9980000  0  5 02 06 12 13 09
  23406427.357    12923439.277 5  10290165.357 1
  21836347.506    -2711443.224 6   6760551.901 1
  21493246.896   -16278561.793 7 -12231653.575 2
  20350056.342   -23292690.562 7   1458453.305 2
  20018253.896   -24044770.679 7    152810.749 2
 90 10 17 14 36 14.9980000  0  5 02 06 12 13 09
  23413028.998    12958138.938 5  10317203.930 1
  21845057.326    -2665673.760 6   6796216.346 1
  21485829.045   -16317546.221 7 -12262031.068 2
  20353483.115   -23274680.930 7   1472486.744 2
  20019736.834   -24036984.461 7    158877.893 2
 90 10 17 14 36 29.9980000  0  5 02 06 12 13 09
  23419639.428    12992872.566 5  10344268.936 1
  21853782.139    -2619821.049 6   6831945.669 1
  21478425.928   -16356445.239 7 -12292342.001 2
  20356922.381   -23256611.861 7   1486566.491 2
  20021247.357   -24029051.203 7    165059.629 2
 90 10 17 14 36 44.9980000  0  5 02 06 12 13 09
  23426257.022    13027637.432 5  10371358.315 1
  21862523.834    -2573887.962 6   6867737.611 1
  21471041.115   -16395261.161 7 -12322588.189 2
  20360370.623   -23238485.972 7   1500690.521 2
  20022783.115   -24020972.699 7    171354.537 2
 90 10 17 14 36 59.9980000  0  5 02 06 12 13 09
  23432875.217    13062434.845 5  10398473.038 1
  21871280.154    -2527873.638 6   6903592.856 1
  21463669.779   -16433992.439 7 -12352768.410 2
  20363830.764   -23220302.406 7   1514859.496 2
  20024350.123   -24012748.669 7    177762.835 2
 90 10 17 14 37 14.9980000  0  5 02 06 12 13 09
  23439503.740    13097264.148 5  10425612.616 1
  21880051.967    -2481779.148 6   6939510.571 1
  21456315.357   -16472639.350 7 -12382882.898 2
  20367301.428   -23202062.301 7   1529072.527 2
  20025942.021   -24004379.277 7    184284.418 2
 90 10 17 14 37 29.9980000  0  5 02 06 12 13 09
  23446138.787    13132129.089 5  10452779.970 1
  21888840.068    -2435600.866 6   6975493.578 1
  21448978.904   -16511197.665 7 -12412928.353 2
  20370785.295   -23183761.851 7   1543332.579 2
  20027561.756   -23995860.717 7    190922.224 2
 90 10 17 14 37 44.9980000  0  5 02 06 12 13 09
  23452782.521    13167029.735 5  10479975.153 1
  21897642.326    -2389338.989 6   7011541.728 1
  21441658.646   -16549666.835 7 -12442904.333 2
  20374276.881   -23165401.390 7   1557639.392 2
  20029213.873   -23987192.944 7    197676.304 2
 90 10 17 14 37 59.9980000  0  5 02 06 12 13 09
  23459428.162    13201958.387 5  10507192.137 1
  21906460.396    -2343001.558 6   7047648.751 1
  21434353.553   -16588054.368 7 -12472816.713 2
  20377782.295   -23146988.878 7   1571986.770 2
  20030889.303   -23978383.997 7    204540.403 2
 90 10 17 14 38 14.9980000  0  5 02 06 12 13 09
  23466079.279    13236923.187 5  10534437.299 1
  21915295.678    -2296580.748 6   7083820.731 1
  21427066.076   -16626351.735 7 -12502658.833 2
  20381297.975   -23128516.311 7   1586380.938 2
  20032592.865   -23969425.525 7    211520.997 2
 90 10 17 14 38 29.9980000  0  5 02 06 12 13 09
  23472739.209    13271920.968 5  10561708.157 1
  21924144.068    -2250079.926 6   7120055.072 1
  21419795.600   -16664561.673 7 -12532432.821 2
  20384823.357   -23109987.146 7   1600819.211 2
  20034326.146   -23960320.698 7    218615.647 2
 90 10 17 14 38 44.9980000  0  5 02 06 12 13 09
  23479406.428    13306953.789 5  10589006.318 1
  21933008.334    -2203497.524 6   7156352.974 1
  21412540.897   -16702681.806 7 -12562136.837 2
  20388361.498   -23091399.673 7   1615302.919 2
  20036085.287   -23951067.496 7    225825.916 2
 90 10 17 14 38 59.9980000  0  5 02 06 12 13 09
  23486080.537    13342021.603 5  10616331.732 1
  21941887.334    -2156833.538 6   7192714.441 1
  21405303.451   -16740711.529 7 -12591770.397 2
  20391909.975   -23072754.083 7   1629831.911 2
  20037875.498   -23941665.633 7    233152.011 2
 90 10 17 14 39 14.9980000  0  5 02 06 12 13 09
  23492760.818    13377125.762 5  10643685.475 1
  21950783.771    -2110087.071 6   7229140.187 1
  21398085.100   -16778649.327 7 -12621332.339 2
  20395468.186   -23054049.394 7   1644406.958 2
  20039694.740   -23932113.915 7    240594.892 2
 90 10 17 14 39 29.9980000  0  5 02 06 12 13 09
  23499449.467    13412267.281 5  10671068.323 1
  21959695.389    -2063257.419 6   7265630.747 1
  21390882.397   -16816493.776 7 -12650821.530 2
  20399038.709   -23035284.856 7   1659028.643 2
  20041540.334   -23922411.543 7    248155.154 2
 90 10 17 14 39 44.9980000  0  5 02 06 12 13 09
  23506144.951    13447444.055 5  10698478.642 1
  21968622.061    -2016346.911 6   7302184.319 1
  21383700.295   -16854246.489 7 -12680239.252 2
  20402621.193   -23016462.572 7   1673695.320 2
  20043416.084   -23912560.505 7    255831.251 2
 90 10 17 14 39 59.9980000  0  5 02 06 12 13 09
  23512840.826    13482657.778 5  10725917.767 1
  21977563.639    -1969354.126 6   7338801.995 1
  21376532.545   -16891905.492 7 -12709583.941 2
  20406214.709   -22997581.324 7   1688407.941 2
  20045317.998   -23902559.069 7    263624.549 2
 90 10 17 14 40 14.9980000  0  5 02 06 12 13 09
  23519548.756    13517906.144 5  10753383.885 1
  21986520.936    -1922281.756 6   7375481.681 1
  21369382.529   -16929472.784 7 -12738857.173 2
  20409818.318   -22978643.589 7   1703164.588 2
  20047247.498   -23892409.869 7    271532.979 2
 90 10 17 14 40 29.9980000  0  5 02 06 12 13 09
  23526266.568    13553193.198 5  10780880.136 1
  21995494.420    -1875125.876 6   7412226.451 1
  21362252.475   -16966943.820 7 -12768055.403 2
  20413432.693   -22959645.588 7   1717968.194 2
  20049211.967   -23882108.428 7    279560.039 2
 90 10 17 14 40 44.9980000  0  5 02 06 12 13 09
  23532989.459    13588515.037 5  10808403.504 1
  22004482.600    -1827890.725 6   7449032.978 1
  21355141.326   -17004322.005 7 -12797181.276 2
  20417059.373   -22940591.590 7   1732815.430 2
  20051197.490   -23871658.645 7    287702.697 2
 90 10 17 14 40 59.9980000  0  5 02 06 12 13 09
  23539716.443    13623875.642 5  10835957.082 1
  22013486.873    -1780572.671 6   7485904.121 1
  21348046.107   -17041603.077 7 -12826231.485 2
  20420696.068   -22921477.662 7   1747709.366 2
  20053215.740   -23861056.892 7    295963.762 2
 90 10 17 14 41 14.9980000  0  5 02 06 12 13 09
  23546452.201    13659270.435 5  10863537.278 1
  22022506.936    -1733176.513 6   7522836.110 1
  21340969.162   -17078791.354 7 -12855209.385 2
  20424344.482   -22902308.595 7   1762646.265 2
  20055261.678   -23850307.638 7    304339.775 2
 90 10 17 14 41 29.9980000  0  5 02 06 12 13 09
  23553196.342    13694704.645 5  10891148.215 1
  22031540.670    -1685697.462 6   7559832.694 1
  21333910.998   -17115881.341 7 -12884110.683 2
  20428002.053   -22883079.731 7   1777629.773 2
  20057335.943   -23839405.619 7    312834.825 2
 90 10 17 14 41 44.9980000  0  5 02 06 12 13 09
  23559942.475    13730174.420 4  10918786.833 1
  22040592.482    -1638139.398 6   7596890.852 1
  21326871.373   -17152876.273 7 -12912937.915 2
  20431674.100   -22863794.812 7   1792656.952 2
  20059437.584   -23828354.615 7    321445.960 2
 90 10 17 14 41 59.9980000  0  5 02 06 12 13 09
  23566697.982    13765680.359 4  10946453.655 1
  22049656.967    -1590502.200 6   7634010.665 1
  21319849.670   -17189775.290 7 -12941690.417 2
  20435353.928   -22844453.526 7   1807728.054 2
  20061571.045   -23817154.055 7    330173.641 2
 90 10 17 14 42 14.9980000  0  5 02 06 12 13 09
  23573465.357    13801225.793 4  10974151.254 1
  22058737.904    -1542782.804 6   7671194.527 1
  21312846.545   -17226574.735 7 -12970365.322 2
  20439044.592   -22825052.995 7   1822845.323 2
  20063731.459   -23805800.833 7    339020.282 2
 90 10 17 14 42 29.9980000  0  5 02 06 12 13 09
  23580236.326    13836810.554 4  11001879.485 1
  22067835.943    -1494981.664 6   7708442.087 1
  21305863.021   -17263274.321 7 -12998962.421 2
  20442747.646   -22805593.627 7   1838008.437 2
  20065919.889   -23794295.249 7    347985.643 2
 90 10 17 14 42 44.9980000  0  5 02 06 12 13 09
  23587016.615    13872427.624 4  11029632.902 1
  22076946.334    -1447105.965 6   7745747.739 1
  21298897.061   -17299880.515 7 -13027486.755 2
  20446462.037   -22786082.398 7   1853211.957 2
  20068137.561   -23782643.779 7    357064.681 2
 90 10 17 14 42 59.9980000  0  5 02 06 12 13 09
  23593798.139    13908080.405 4  11057414.121 1
  22086068.373    -1399152.747 6   7783113.798 1
  21291950.943   -17336389.732 7 -13055935.515 2
  20450185.186   -22766516.303 7   1868458.230 2
  20070381.592   -23770843.319 7    366259.814 2
 90 10 17 14 43 14.9980000  0  5 02 06 12 13 09
  23600588.287    13943768.679 4  11085223.015 1
  22095210.146    -1351122.513 6   7820539.864 1
  21285021.147   -17372801.791 7 -13084308.564 2
  20453917.811   -22746895.850 7   1883746.863 2
  20072657.146   -23758894.257 7    375570.742 2
 90 10 17 14 43 29.9980000  0  5 02 06 12 13 09
  23607389.381    13979488.741 4  11113056.684 1
  22104365.123    -1303019.142 6   7858022.921 1
  21278109.303   -17409119.882 7 -13112608.393 2
  20457662.553   -22727224.818 7   1899074.901 2
  20074957.553   -23746800.425 7    384994.479 2
 90 10 17 14 43 44.9980000  0  5 02 06 12 13 09
  23614194.271    14015246.230 4  11140919.503 1
  22113532.537    -1254837.049 6   7895567.320 1
  21271218.350   -17445337.794 7 -13140830.162 2
  20461415.225   -22707497.744 7   1914446.608 2
  20077288.951   -23734555.533 7    394535.929 2
 90 10 17 14 43 59.9980000  0  5 02 06 12 13 09
  23621003.912    14051035.456 4  11168807.052 1
  22122717.318    -1206582.672 6   7933168.047 1
  21264343.709   -17481461.169 7 -13168978.268 2
  20465178.521   -22687720.795 7   1929857.176 2
  20079645.850   -23722165.987 7    404190.090 2
 90 10 17 14 44 14.9980000  0  5 02 06 12 13 09
  23627821.803    14086855.071 4  11196718.301 1
  22131910.537    -1158257.532 6   7970823.913 1
  21257487.959   -17517491.115 7 -13197053.565 2
  20468952.951   -22667895.456 7   1945305.457 2
  20082030.123   -23709633.123 7    413955.936 2
 90 10 17 14 44 29.9980000  0  5 02 06 12 13 09
  23634646.990    14122708.325 4  11224655.743 1
  22141120.896    -1109858.469 6   8008537.377 1
  21250649.381   -17553423.734 7 -13225053.023 2
  20472733.896   -22648018.715 7   1960793.789 2
  20084443.209   -23696953.423 7    423836.195 2
 90 10 17 14 44 44.9980000  0  5 02 06 12 13 09
  23641476.311    14158595.590 4  11252619.692 1
  22150344.311    -1061385.652 6   8046308.315 1
  21243830.373   -17589258.391 7 -13252976.148 2
  20476526.139   -22628090.546 7   1976322.188 2
  20086885.834   -23684126.826 7    433830.923 2
 90 10 17 14 44 59.9980000  0  5 02 06 12 13 09
  23648307.248    14194517.602 4  11280610.761 1
  22159584.506    -1012838.491 6   8084137.184 1
  21237032.068   -17624993.943 7 -13280822.045 2
  20480329.920   -22608110.378 7   1991891.109 2
  20089352.084   -23671152.228 7    443940.971 2
 90 10 17 14 45 14.9980000  0  5 02 06 12 13 09
  23655153.982    14230473.435 5  11308628.125 1
  22168836.889     -964218.330 6   8122022.930 1
  21230248.498   -17660631.069 7 -13308591.240 2
  20484139.209   -22588079.437 7   2007499.597 2
  20091852.248   -23658031.234 7    454165.086 2
 90 10 17 14 45 29.9980000  0  5 02 06 12 13 09
  23662001.021    14266464.358 4  11336672.866 1
  22178102.537     -915524.118 6   8159966.374 1
  21223486.521   -17696168.011 7 -13336282.383 2
  20487961.795   -22567996.690 7   2023148.451 2
  20094374.615   -23644762.252 7    464504.519 2
 90 10 17 14 45 44.9980000  0  5 02 06 12 13 09
  23668855.725    14302493.128 4  11364747.090 1
  22187383.834     -866753.236 6   8197969.572 1
  21216745.404   -17731601.590 7 -13363892.984 2
  20491795.600   -22547859.660 7   2038839.597 2
  20096928.865   -23631342.419 7    474961.501 2
 90 10 17 14 45 59.9980000  0  5 02 06 12 13 09
  23675717.154    14338552.429 4  11392845.053 1
  22196678.568     -817913.441 6   8236026.464 1
  21210018.865   -17766938.822 7 -13391428.496 2
  20495633.279   -22527675.916 7   2054567.144 2
  20099511.561   -23617779.212 7    485530.204 2
 90 10 17 14 46 14.9980000  0  5 02 06 12 13 09
  23682586.928    14374646.006 4  11420969.754 1
  22205985.897     -769001.371 6   8274139.663 1
  21203314.342   -17802175.633 7 -13418885.772 2
  20499483.764   -22507442.111 7   2070333.701 2
  20102118.107   -23604069.222 7    496213.280 2
 90 10 17 14 46 29.9980000  0  5 02 06 12 13 09
  23689457.068    14410774.746 4  11449121.847 1
  22215308.373     -720016.269 6   8312309.776 1
  21196627.334   -17837310.676 7 -13446263.747 2
  20503347.271   -22487157.154 7   2086140.118 2
  20104755.014   -23590211.208 7    507011.709 2
 90 10 17 14 46 44.9980000  0  5 02 06 12 13 09
  23696342.639    14446934.306 5  11477297.965 1
  22224640.014     -670962.526 6   8350533.381 1
  21189960.912   -17872347.679 7 -13473565.318 2
  20507216.178   -22466825.423 7   2101982.981 2
  20107419.811   -23576209.429 7    517922.161 2
 90 10 17 14 46 59.9980000  0  5 02 06 12 13 09
  23703229.123    14483123.009 5  11505496.801 1
  22233988.412     -621842.371 6   8388808.729 1
  21183312.725   -17907288.162 7 -13500791.687 2
  20511092.881   -22446449.229 7   2117860.486 2
  20110110.779   -23562065.614 7    528943.294 2
 90 10 17 14 47 14.9980000  0  5 02 06 12 13 09
  23710125.881    14519347.192 5  11533723.299 1
  22243349.217     -572649.980 6   8427140.364 1
  21176683.537   -17942125.601 7 -13527937.759 2
  20514980.029   -22426022.563 7   2133777.328 2
  20112831.225   -23547774.034 7    540079.563 2
 90 10 17 14 47 29.9980000  0  5 02 06 12 13 09
  23717023.521    14555604.753 5  11561975.831 1
  22252722.100     -523387.418 6   8465526.681 1
  21170074.232   -17976861.535 7 -13555004.738 2
  20518876.709   -22405547.668 7   2149731.742 2
  20115577.498   -23533336.444 7    551329.611 2
 90 10 17 14 47 44.9980000  0  5 02 06 12 13 09
  23723926.568    14591895.451 5  11590254.144 1
  22262111.811     -474055.255 6   8503967.231 1
  21163481.600   -18011495.833 7 -13581992.516 2
  20522779.701   -22385024.915 7   2165723.444 2
  20118353.701   -23518752.978 7    562693.321 2
 90 10 17 14 47 59.9980000  0  5 02 06 12 13 09
  23730836.482    14628217.413 4  11618556.805 1
  22271512.787     -424655.728 6   8542460.268 1
  21156909.842   -18046029.977 7 -13608902.253 2
  20526694.154   -22364456.412 7   2181750.811 2
  20121157.912   -23504025.695 7    574169.094 2
 90 10 17 14 48 14.9980000  0  5 02 06 12 13 09
  23737756.061    14664566.591 5  11646880.681 1
  22280924.943     -375193.198 6   8581002.407 1
  21150357.162   -18080467.630 7 -13635736.802 3
  20530616.459   -22343846.241 7   2197810.636 2
  20123987.256   -23489158.986 7    585753.513 2
 90 10 17 14 48 29.9980000  0  5 02 06 12 13 09
  23744676.826    14700944.068 5  11675226.580 1
  22290349.186     -325666.982 6   8619594.164 1
  21143821.623   -18114807.626 7 -13662495.251 2
  20534547.756   -22323193.965 7   2213903.268 2
  20126839.772   -23474151.782 7    597447.409 2
 90 10 17 14 48 44.9980000  0  5 02 06 12 13 09
  23751610.225    14737353.845 5  11703597.709 1
  22299787.936     -276073.291 6   8658238.497 1
  21137306.795   -18149045.414 7 -13689174.063 2
  20538484.311   -22302495.562 7   2230031.853 2
  20129726.006   -23458999.894 7    609254.044 2
 90 10 17 14 48 59.9980000  0  5 02 06 12 13 09
  23758542.162    14773796.502 5  11731994.440 1
  22309236.740     -226411.685 6   8696935.755 1
  21130811.959   -18183179.894 7 -13715772.373 2
  20542434.881   -22281750.732 7   2246196.611 2
  20132636.107   -23443702.815 7    621173.815 2
 90 10 17 14 49 14.9980000  0  5 02 06 12 13 09
  23765477.553    14810263.217 5  11760409.938 1
  22318699.865     -176691.323 6   8735678.799 1
  21124333.701   -18217219.413 7 -13742296.687 2
  20546386.467   -22260968.475 7   2262390.537 2
  20135574.092   -23428269.488 7    633199.746 2
 90 10 17 14 49 29.9980000  0  5 02 06 12 13 09
  23772428.709    14846758.049 5  11788847.311 1
  22328170.857     -126908.520 6   8774470.494 1
  21117875.475   -18251159.706 7 -13768743.686 2
  20550351.553   -22240145.107 7   2278616.496 2
  20138535.107   -23412695.889 7    645334.985 2
 90 10 17 14 49 44.9980000  0  5 02 06 12 13 09
  23779381.631    14883285.651 5  11817310.222 1
  22337658.787      -77058.865 6   8813314.271 1
  21111436.162   -18284995.789 7 -13795109.482 2
  20554321.373   -22219276.163 7   2294877.972 2
  20141528.459   -23396977.487 7    657583.061 2
 90 10 17 14 49 59.9980000  0  5 02 06 12 13 09
  23786335.647    14919840.010 5  11845793.987 1
  22347157.811      -27148.811 6   8852205.118 1
  21105016.318   -18318733.147 7 -13821398.348 2
  20558299.686   -22198367.960 7   2311170.038 2
  20144546.154   -23381120.406 7    669939.203 2
 90 10 17 14 50 14.9980000  0  5 02 06 12 13 09
  23793298.764    14956419.806 5  11874297.561 1
  22356665.561       22820.132 6   8891141.858 1
  21098616.068   -18352372.925 7 -13847611.184 2
  20562286.381   -22177422.027 7   2327491.501 2
  20147589.014   -23365126.039 7    682402.315 2
 90 10 17 14 50 29.9980000  0  5 02 06 12 13 09
  23800263.389    14993025.595 4  11902821.376 1
  22366186.100       72848.297 6   8930124.749 1
  21092233.217   -18385914.060 7 -13873747.155 2
  20566281.443   -22156437.808 7   2343842.802 2
  20150657.623   -23348993.745 7    694972.909 2
 90 10 17 14 50 44.9980000  0  5 02 06 12 13 09
  23807229.646    15029660.445 4  11931367.833 1
  22375718.373      122938.593 6   8969156.041 1
  21085870.068   -18419353.040 7 -13899803.518 2
  20570282.600   -22135412.446 7   2360226.159 2
  20153754.912   -23332720.374 7    707653.429 2
 90 10 17 14 50 59.9980000  0  5 02 06 12 13 09
  23814209.576    15066324.550 5  11959937.088 1
  22385261.162      173090.587 6   9008235.407 1
  21079525.600   -18452689.542 7 -13925780.038 2
  20574289.240   -22114346.187 7   2376641.381 2
  20156877.920   -23316306.023 7    720443.805 2
 90 10 17 14 51 14.9980000  0  5 02 06 12 13 09
  23821188.506    15103016.416 5  11988527.993 1
  22394814.756      223302.630 6   9047361.574 1
  21073202.553   -18485924.694 7 -13951677.570 2
  20578306.529   -22093240.625 7   2393087.241 2
  20160028.240   -23299752.405 7    733342.702 2
 90 10 17 14 51 29.9980000  0  5 02 06 12 13 09
  23828180.678    15139740.620 5  12017144.115 1
  22404381.811      273579.103 6   9086537.944 1
  21066896.256   -18519053.385 7 -13977492.155 2
  20582331.647   -22072091.242 7   2409567.244 2
  20163205.193   -23283054.810 7    746353.781 2
 90 10 17 14 51 44.9980000  0  5 02 06 12 13 09
  23835177.193    15176494.229 5  12045783.143 1
  22413961.451      323916.744 6   9125761.978 1
  21060613.092   -18552078.140 7 -14003225.748 2
  20586362.834   -22050901.267 7   2426078.875 2
  20166410.404   -23266216.024 7    759474.874 2
 90 10 17 14 51 59.9980000  0  5 02 06 12 13 09
  23842173.475    15213274.437 5  12074442.897 1
  22423554.459      374312.498 6   9165031.299 1
  21054349.670   -18585001.399 7 -14028880.257 3
  20590400.068   -22029673.707 7   2442619.797 2
  20169643.209   -23249239.338 7    772703.425 2
 90 10 17 14 52 14.9980000  0  5 02 06 12 13 09
  23849178.584    15250081.094 5  12103123.261 1
  22433154.686      424765.715 6   9204345.388 1
  21048101.146   -18617823.202 7 -14054455.699 2
  20594448.490   -22008409.281 7   2459189.444 2
  20172898.631   -23232124.938 7    786039.286 2
 90 10 17 14 52 29.9980000  0  5 02 06 12 13 09
  23856188.545    15286916.520 5  12131826.039 1
  22442766.506      475278.495 6   9243705.887 1
  21041877.490   -18650540.603 7 -14079949.798 2
  20598503.303   -21987105.630 7   2475789.651 2
  20176180.404   -23214870.435 7    799484.317 2
 90 10 17 14 52 44.9980000  0  5 02 06 12 13 09
  23863205.584    15323781.071 4  12160551.517 1
  22452390.584      525851.206 6   9283113.097 1
  21035671.467   -18683152.721 7 -14105361.852 2
  20602562.818   -21965762.706 7   2492420.463 2
  20179494.404   -23197475.340 7    813038.896 2
 90 10 17 14 52 59.9980000  0  5 02 06 12 13 09
  23870223.701    15360672.515 4  12189297.937 1
  22462024.350      576481.059 6   9322564.824 1
  21029483.068   -18715661.628 7 -14130693.483 2
  20606633.287   -21944382.795 7   2509080.095 2
  20182826.154   -23179942.114 7    826701.113 2
 90 10 17 14 53 14.9980000  0  5 02 06 12 13 09
  23877250.654    15397593.376 3  12218067.262 1
  22471668.084      627170.248 6   9362062.802 1
  21023317.342   -18748064.475 7 -14155942.474 2
  20610708.654   -21922963.633 7   2525770.318 2
  20186192.607   -23162268.391 7    840472.811 2
 90 10 17 14 53 29.9980000  0  5 02 06 12 13 09
  23884284.248    15434544.487 3  12246860.165 1
  22481328.350      677919.289 6   9401607.395 1
  21017173.006   -18780360.081 7 -14181107.898 2
  20614792.061   -21901504.766 7   2542491.474 2
  20189581.084   -23144453.708 7    854354.347 2
 90 10 17 14 53 44.9980000  0  5 02 06 12 13 09
  23891318.350    15471524.210 3  12275675.380 1
  22490996.107      728726.293 6   9441197.158 1
  21011047.389   -18812549.637 7 -14206190.679 2
  20618884.803   -21880007.948 7   2559242.208 2
  20192998.139   -23126499.392 7    868344.682 2
 90 10 17 14 53 59.9980000  0  5 02 06 12 13 09
  23898361.029    15508533.237 3  12304513.383 1
  22500674.490      779591.713 5   9480832.455 1
  21004942.193   -18844632.068 7 -14231189.989 2
  20622981.092   -21858472.636 7   2576022.935 2
  20196442.146   -23108404.960 7    882444.207 2
 90 10 17 14 54 14.9980000  0  5 02 06 12 13 09
  23905410.982    15545574.356 3  12333376.441 1
  22510366.146      830517.900 6   9520515.085 1
  20998858.951   -18876604.455 7 -14256103.551 2
  20627086.365   -21836896.483 7   2592835.485 2
  20199913.201   -23090167.902 7    896654.865 2
 90 10 17 14 54 29.9980000  0  5 02 06 12 13 09
  23912462.865    15582644.212 3  12362261.870 1
  22520069.928      881501.471 6   9560242.437 1
  20992792.943   -18908469.491 7 -14280933.467 2
  20631198.201   -21815282.660 7   2609677.393 2
  20203410.857   -23071791.326 7    910974.240 2
 90 10 17 14 54 44.9980000  0  5 02 06 12 13 09
  23919525.186    15619741.770 3  12391168.891 1
  22529781.920      932541.075 6   9600013.451 1
  20986750.928   -18940227.820 7 -14305680.229 2
  20635318.326   -21793632.420 7   2626547.673 2
  20206933.615   -23053276.181 7    925401.589 2
 90 10 17 14 54 59.9980000  0  5 02 06 12 13 09
  23926589.811    15656863.501 3  12420094.748 1
  22539503.170      983632.808 6   9639825.085 1
  20980726.537   -18971882.670 7 -14330346.363 2
  20639444.529   -21771949.664 7   2643443.294 2
  20210483.131   -23034626.547 7    939933.737 2
 90 10 17 14 55 14.9980000  0  5 02 06 12 13 09
  23933659.232    15694015.061 3  12449043.830 1
  22549236.592     1034781.875 6   9679681.388 1
  20974723.053   -19003428.138 7 -14354927.259 2
  20643577.928   -21750228.989 7   2660368.458 2
  20214058.678   -23015836.781 7    954575.071 2
 90 10 17 14 55 29.9980000  0  4 06 12 13 09
  22558979.561     1085985.307 5   9719580.063 1
  20968741.490   -19034866.628 7 -14379424.792 2
  20647719.990   -21728473.416 7   2677320.815 2
  20217659.342   -22996909.692 7    969323.417 2
 90 10 17 14 55 44.9980000  0  5 02 06 12 13 09
  23947814.498          -0.19113
  22568734.787     1137245.521 6   9759522.982 1
  20962780.342   -19066195.020 7 -14403836.534 2
  20651867.506   -21706680.365 7   2694302.375 2
  20221285.475   -22977842.578 7    984180.865 2
 90 10 17 14 55 59.9980000  0  5 02 06 12 13 09
  23954902.373       37238.959 3
  22578500.943     1188563.356 5   9799510.788 1
  20956838.725   -19097411.926 7 -14428161.405 2
  20656020.014   -21684849.139 7   2711313.677 2
  20224942.131   -22958634.465 7    999148.184 2
 90 10 17 14 56 14.9980000  0  5 02 06 12 13 09
  23961992.615       74508.995 3
  22588277.396     1239938.505 6   9839543.265 1
  20950919.982   -19128516.824 7 -14452398.999 2
  20660182.131   -21662979.686 7   2728354.771 2
  20228626.068   -22939285.566 7   1014225.208 2
 90 10 17 14 56 29.9980000  0  5 02 06 12 13 09
  23969090.256      111808.038 3
  22598062.342     1291368.867 5   9879618.758 1
  20945022.053   -19159511.229 7 -14476550.495 2
  20664353.021   -21641074.094 7   2745424.022 2
  20232331.006   -22919797.598 7   1029410.594 2
 90 10 17 14 56 44.9980000  0  5 02 06 12 13 09
  23976192.420      149132.634 3        -0.18611
  22607859.912     1342850.982 5   9919734.585 1
  20939145.271   -19190398.034 7 -14500618.144 3
  20668523.256   -21619135.874 7   2762518.696 2
  20236068.084   -22900174.071 7   1044701.619 2
 90 10 17 14 56 59.9980000  0  5 02 06 12 13 09
  23983302.279      186485.464 4     29105.752 1
  22617667.412     1394386.821 5   9959892.260 1
  20933288.873   -19221174.470 7 -14524599.786 2
  20672708.139   -21597162.793 7   2779640.539 2
  20239825.436   -22880412.665 7   1060100.084 2
 90 10 17 14 57 14.9980000  0  5 02 06 12 13 09
  23990416.357      223865.748 4     58233.097 1
  22627485.873     1445975.247 5  10000090.918 1
  20927453.576   -19251841.179 7 -14548495.939 2
  20676894.943   -21575156.064 7   2796788.596 2
  20243614.717   -22860514.342 7   1075605.235 2
 90 10 17 14 57 29.9980000  0  5 02 06 12 13 09
  23997530.600      261274.647 4     87382.669 1
  22637311.615     1497617.150 5  10040331.251 1
  20921637.850   -19282396.441 7 -14572305.234 3
  20681087.217   -21553114.704 7   2813963.638 2
  20247429.225   -22840477.791 7   1091218.096 2
 90 10 17 14 57 44.9980000  0  5 02 06 12 13 09
  24004661.271      298711.803 4    116554.340 1
  22647147.568     1549312.190 5  10080612.984 1
  20915845.475   -19312839.997 7 -14596027.501 2
  20685289.506   -21531038.741 7   2831165.646 2
  20251264.498   -22820303.407 7   1106938.361 2
 90 10 17 14 57 59.9980000  0  5 02 06 12 13 09
  24011789.420      336178.044 4    145748.604 1
  22656997.123     1601060.693 5  10120936.372 1
  20910073.271   -19343171.031 7 -14619662.089 2
  20689498.732   -21508927.635 7   2848395.047 2
  20255130.357   -22799990.749 7   1122766.369 2
 90 10 17 14 58 14.9980000  0  5 02 06 12 13 09
  24018925.100      373668.484 4    174961.760 1
  22666852.475     1652857.580 5  10161297.463 1
  20904321.670   -19373394.011 7 -14643212.468 3
  20693712.443   -21486786.792 7   2865647.599 2
  20259020.373   -22779544.722 7   1138698.307 2
 90 10 17 14 58 29.9980000  0  5 02 06 12 13 09
  24026061.303      411186.855 4    204196.656 1
  22676719.295     1704706.288 5  10201698.935 1
  20898590.873   -19403504.680 7 -14666675.336 3
  20697932.147   -21464612.525 7   2882926.199 2
  20262936.678   -22758961.594 7   1154737.073 2
